Date StartTime U_cm/s V_cm/s W_cm/s Ustd_cm/s Vstd_cm/s Wstd_cm/s Uvar_(cm/s)^2 Vvar_(cm/s)^2 Wvar_(cm/s)^2 KE_(m/s)^2 TurbulentKE_(m/s)^2 HorizWindSpeed_cm/s FrictionSpeec_cm/s DragCoef SpeedOfSound_m/s SonicTemperature_C Pressure_mb 
04/04/2014  00:00:00      -52.181      -20.281       -5.722       28.318       25.970       18.157      801.934      674.432      329.662        0.249        0.090       55.984       18.178        0.105      336.316        7.534      858.797
04/04/2014  00:01:00      -31.481      -19.791       -1.609       18.728       17.466       16.356      350.732      305.057      267.521        0.115        0.046       37.186       10.053        0.073      336.328        7.555      858.799
04/04/2014  00:02:00      -27.330       -8.309        0.276       20.854       22.242       11.002      434.887      494.710      121.055        0.093        0.053       28.565       10.697        0.140      336.352        7.595      858.806
04/04/2014  00:03:00      -18.300        2.669       -1.494       20.141       10.958       10.391      405.650      120.085      107.982        0.049        0.032       18.493       12.982        0.493      336.319        7.541      858.805
04/04/2014  00:04:00      -53.834       -1.509       -1.436       39.606       19.044       12.598     1568.654      362.691      158.716        0.250        0.105       53.855       18.549        0.119      336.335        7.568      858.806
04/04/2014  00:05:00     -167.655      -52.828       -5.732       63.956       30.874       17.093     4090.409      953.201      292.183        1.813        0.267      175.781       12.222        0.005      336.319        7.539      858.815
04/04/2014  00:06:00     -161.245      -85.953       -1.845       74.498       51.425       37.871     5549.925     2644.509     1434.191        2.151        0.481      182.724       36.380        0.040      336.302        7.510      858.817
04/04/2014  00:07:00     -143.295      -20.533      -12.444       79.717       35.051       30.434     6354.851     1228.586      926.206        1.481        0.425      144.759       38.321        0.070      336.279        7.471      858.806
04/04/2014  00:08:00     -108.802      -19.814       -4.095       62.306       38.262       34.185     3882.070     1463.978     1168.609        0.938        0.326      110.591       36.090        0.106      336.282        7.479      858.793
04/04/2014  00:09:00     -162.560       -7.093       -4.848       83.602       60.698       31.068     6989.232     3684.204      965.224        1.907        0.582      162.715       36.532        0.050      336.271        7.458      858.775
04/04/2014  00:10:00      -80.802      -15.216        6.082       87.170       53.155       30.534     7598.575     2825.495      932.330        0.907        0.568       82.223       36.542        0.198      336.267        7.453      858.781
04/04/2014  00:11:00     -204.376      -15.116      -17.484       92.571       79.686       37.132     8569.325     6349.894     1378.812        2.930        0.815      204.934       40.547        0.039      336.277        7.468      858.782
04/04/2014  00:12:00     -159.267       -7.941      -11.622       61.229       58.368       35.480     3748.958     3406.851     1258.812        1.699        0.421      159.465       36.296        0.052      336.290        7.492      858.769
04/04/2014  00:13:00     -234.203        8.106      -29.434       60.317       41.804       25.069     3638.150     1747.600      628.453        3.090        0.301      234.343       17.100        0.005      336.296        7.498      858.753
04/04/2014  00:14:00      -99.029      -12.254      -11.001       46.931       20.397       15.792     2202.499      416.038      249.387        0.647        0.143       99.784       12.505        0.016      336.281        7.478      858.738
04/04/2014  00:15:00      -44.898      -30.325       -2.955       21.902       25.410       13.305      479.676      645.648      177.019        0.212        0.065       54.179       13.103        0.058      336.330        7.560      858.724
04/04/2014  00:16:00      -81.574      -48.853       -1.323       55.504       44.043       24.160     3080.698     1939.775      583.690        0.732        0.280       95.084       26.899        0.080      336.350        7.592      858.713
04/04/2014  00:17:00      -41.260       -5.795       17.956       40.488       35.054       28.066     1639.269     1228.792      787.722        0.286        0.183       41.664       26.782        0.413      336.344        7.583      858.711
04/04/2014  00:18:00     -149.088      -63.427       -8.311       64.715       48.535       30.135     4187.985     2355.660      908.111        1.688        0.373      162.019       24.121        0.022      336.277        7.469      858.710
04/04/2014  00:19:00     -100.344      -23.282        6.550       79.180       64.819       38.638     6269.445     4201.527     1492.861        1.131        0.598      103.010       43.276        0.176      336.278        7.470      858.711
04/04/2014  00:20:00     -202.471     -169.901        4.506      132.970       97.626       60.644    17681.014     9530.755     3677.736        5.038        1.544      264.312       72.011        0.074      336.345        7.581      858.704
04/04/2014  00:21:00     -143.528      -77.687        4.052      116.915       84.377       68.995    13669.126     7119.529     4760.344        2.610        1.277      163.204       59.141        0.131      336.352        7.593      858.699
04/04/2014  00:22:00      -90.871      -41.242        0.702      100.679       79.137       45.230    10136.333     6262.612     2045.743        1.420        0.922       99.792       46.822        0.220      336.352        7.595      858.700
04/04/2014  00:23:00     -207.272      -56.465      -22.765       85.011       72.705       41.916     7226.893     5286.053     1756.941        3.047        0.713      214.825       33.977        0.025      336.353        7.593      858.710
04/04/2014  00:24:00     -218.908      -40.973       -8.402      102.637       66.231       46.439    10534.329     4386.565     2156.625        3.337        0.854      222.710       47.793        0.046      336.315        7.531      858.714
04/04/2014  00:25:00     -159.281      -41.855        0.975       93.642       89.698       47.513     8768.821     8045.772     2257.495        2.309        0.954      164.689       50.054        0.092      336.341        7.574      858.706
04/04/2014  00:26:00     -130.068      -49.432        5.076       70.196       58.494       30.034     4927.494     3421.542      902.018        1.432        0.463      139.144       37.131        0.071      336.339        7.573      858.701
04/04/2014  00:27:00      -32.311      -20.535        6.288       37.120       30.468       21.773     1377.925      928.321      474.049        0.214        0.139       38.284       19.591        0.262      336.329        7.557      858.691
04/04/2014  00:28:00      -94.037      -13.363       -7.683       36.769       37.710       19.162     1351.970     1422.012      367.174        0.611        0.157       94.982       18.973        0.040      336.327        7.554      858.689
04/04/2014  00:29:00     -179.789      -59.031      -14.742       37.241       56.321       27.336     1386.874     3172.074      747.259        2.067        0.265      189.232       28.434        0.023      336.316        7.536      858.681
04/04/2014  00:30:00     -184.845       -5.633        0.864      119.674       88.123       41.707    14321.798     7765.699     1739.514        2.901        1.191      184.931       29.563        0.026      336.305        7.516      858.675
04/04/2014  00:31:00     -302.014      -52.544      -24.203      105.148       99.839       46.982    11056.178     9967.749     2207.354        5.889        1.162      306.551       52.036        0.029      336.288        7.485      858.666
04/04/2014  00:32:00     -216.914      -82.003       -2.092       64.837       64.013       32.491     4203.867     4097.720     1055.669        3.157        0.468      231.897       25.483        0.012      336.270        7.454      858.669
04/04/2014  00:33:00     -207.831      -55.734      -12.456       64.229       46.989       33.964     4125.388     2207.962     1153.548        2.697        0.374      215.174       31.736        0.022      336.288        7.485      858.670
04/04/2014  00:34:00     -115.439      -14.533      -21.186       66.128       36.812       25.062     4372.953     1355.112      628.105        1.017        0.318      116.350       30.122        0.067      336.309        7.525      858.664
04/04/2014  00:35:00     -100.311      -34.591      -15.714       37.160       40.602       28.469     1380.892     1648.490      810.495        0.767        0.192      106.107       19.061        0.032      336.331        7.561      858.653
04/04/2014  00:36:00      -65.871        5.854        3.960       78.556       66.074       42.099     6170.999     4365.757     1772.362        0.835        0.615       66.131       47.463        0.515      336.312        7.527      858.637
04/04/2014  00:37:00      -73.094       36.345        1.079       76.612       68.039       34.073     5869.329     4629.291     1160.951        0.916        0.583       81.631       28.976        0.126      336.296        7.501      858.613
04/04/2014  00:38:00     -225.275      -24.240      -15.924       79.742       81.836       43.563     6358.713     6697.151     1897.717        3.327        0.748      226.576       41.175        0.033      336.276        7.466      858.604
04/04/2014  00:39:00     -211.045       32.270      -20.401       96.138       57.524       41.701     9242.485     3309.008     1739.011        3.014        0.715      213.498       45.741        0.046      336.242        7.411      858.579
04/04/2014  00:40:00     -318.037      -86.317      -11.519      101.542      102.639       49.674    10310.825    10534.674     2467.483        6.602        1.166      329.542       52.257        0.025      336.223        7.376      858.565
04/04/2014  00:41:00     -219.476     -108.885        0.182       99.851       93.493       44.483     9970.281     8741.016     1978.701        4.035        1.034      245.002       44.134        0.032      336.240        7.406      858.554
04/04/2014  00:42:00      -91.853      -16.117       -2.782       65.281       80.467       34.489     4261.580     6474.982     1189.506        1.031        0.596       93.256       37.457        0.161      336.248        7.422      858.545
04/04/2014  00:43:00      -67.090       10.799       -5.719       36.349       49.776       29.643     1321.259     2477.635      878.684        0.466        0.234       67.953       19.493        0.082      336.309        7.524      858.528
04/04/2014  00:44:00      -53.914       61.182       -5.341       36.145       61.456       32.082     1306.486     3776.856     1029.243        0.639        0.306       81.547       19.302        0.056      336.224        7.382      858.515
04/04/2014  00:45:00     -183.110        7.815      -14.275       60.938       74.622       34.795     3713.408     5568.414     1210.665        2.214        0.525      183.276       27.160        0.022      336.178        7.303      858.510
04/04/2014  00:46:00     -140.416       29.292       -9.996       67.977       57.269       31.246     4620.933     3279.765      976.304        1.477        0.444      143.439       30.169        0.044      336.187        7.319      858.507
04/04/2014  00:47:00     -102.141      -46.159        2.524       51.758       68.505       32.584     2678.886     4692.978     1061.687        1.050        0.422      112.086       28.171        0.063      336.181        7.310      858.518
04/04/2014  00:48:00     -187.003       33.747      -19.578       48.757       44.879       28.724     2377.198     2014.122      825.064        2.085        0.261      190.023       27.956        0.022      336.189        7.322      858.523
04/04/2014  00:49:00     -131.434        6.308      -10.391       62.226       47.634       29.075     3872.063     2269.032      845.328        1.220        0.349      131.585       24.824        0.036      336.215        7.367      858.544
04/04/2014  00:50:00     -197.817      -20.298      -21.969       58.296       57.550       31.892     3398.366     3312.051     1017.105        2.388        0.386      198.856       21.249        0.011      336.190        7.323      858.536
04/04/2014  00:51:00     -229.098       11.908      -24.248       94.982       57.033       37.393     9021.675     3252.757     1398.272        3.344        0.684      229.407       44.136        0.037      336.179        7.304      858.538
04/04/2014  00:52:00     -158.816        2.014      -17.166       85.266       85.600       42.435     7270.236     7327.279     1800.730        2.096        0.820      158.829       43.914        0.076      336.182        7.310      858.535
04/04/2014  00:53:00     -242.878      -59.927       -4.166       72.992       73.868       44.702     5327.811     5456.432     1998.246        3.769        0.639      250.162       34.616        0.019      336.172        7.292      858.530
04/04/2014  00:54:00     -224.216      -71.599       -9.910       81.831       66.074       38.679     6696.363     4365.832     1496.075        3.403        0.628      235.370       37.485        0.025      336.164        7.279      858.539
04/04/2014  00:55:00     -182.818      -52.291       -9.710       77.165       97.803       41.964     5954.431     9565.330     1761.016        2.676        0.864      190.149       32.277        0.029      336.154        7.262      858.549
04/04/2014  00:56:00     -147.145       48.763       13.691      123.250       87.762       47.129    15190.535     7702.147     2221.159        2.466        1.256      155.015       46.779        0.091      336.174        7.297      858.557
04/04/2014  00:57:00     -178.641     -101.990      -20.056       71.874       84.166       36.426     5165.830     7083.942     1326.867        2.814        0.679      205.705       34.583        0.028      336.178        7.302      858.564
04/04/2014  00:58:00     -266.733      -29.336      -12.783      120.409       66.630       52.749    14498.408     4439.588     2782.488        4.694        1.086      268.341       63.790        0.057      336.182        7.307      858.567
04/04/2014  00:59:00      -94.615      -10.499        0.158       80.549       54.825       37.133     6488.149     3005.752     1378.888        0.997        0.544       95.196       38.035        0.160      336.191        7.325      858.545
04/04/2014  01:00:00     -117.307      -85.411        7.188      119.109       79.823       52.016    14186.955     6371.650     2705.670        2.218        1.163      145.107       51.774        0.127      336.243        7.413      858.536
04/04/2014  01:01:00     -222.620     -105.570        2.295      119.729       81.773       52.953    14335.088     6686.803     2804.012        4.226        1.191      246.383       53.359        0.047      336.179        7.305      858.530
04/04/2014  01:02:00      -94.968     -123.141       -1.691       76.557       47.538       33.608     5860.901     2259.882     1129.506        1.672        0.463      155.508       23.736        0.023      336.202        7.343      858.542
04/04/2014  01:03:00      -47.044      -98.604       35.196      108.167       70.228       63.738    11700.057     4931.977     4062.562        1.693        1.035      109.251       73.912        0.458      336.234        7.396      858.536
04/04/2014  01:04:00      -48.623        2.196       15.417       73.134       62.941       47.195     5348.564     3961.591     2227.371        0.707        0.577       48.672       38.117        0.613      336.213        7.365      858.527
04/04/2014  01:05:00      -13.363       15.466       20.068       36.955       31.064       16.597     1365.647      964.987      275.457        0.171        0.130       20.439       10.242        0.251      336.222        7.378      858.532
04/04/2014  01:06:00      -95.658      -46.692       -6.714       44.759       41.523       18.334     2003.397     1724.182      336.142        0.772        0.203      106.445       15.948        0.022      336.198        7.338      858.542
04/04/2014  01:07:00      -44.921      -49.202       10.225       45.940       46.959       25.375     2110.514     2205.158      643.907        0.475        0.248       66.624       19.735        0.088      336.225        7.384      858.538
04/04/2014  01:08:00      -70.157       -2.848      -12.195       26.379       45.973       11.952      695.858     2113.503      142.840        0.401        0.148       70.215        9.585        0.019      336.188        7.322      858.508
04/04/2014  01:09:00      -46.063      -13.776       -2.386       20.546       23.368       15.763      422.130      546.059      248.475        0.177        0.061       48.079       13.296        0.076      336.187        7.321      858.499
04/04/2014  01:10:00     -125.234      -30.287       -4.727       54.056       39.329       22.898     2922.082     1546.809      524.325        1.081        0.250      128.844       23.050        0.032      336.178        7.306      858.490
04/04/2014  01:11:00     -155.375      -35.309       -0.455      105.481       46.268       39.317    11126.210     2140.711     1545.800        2.010        0.741      159.336       49.003        0.095      336.179        7.305      858.473
04/04/2014  01:12:00     -206.538      -76.950        5.834       99.783       78.557       48.261     9956.694     6171.234     2329.157        3.353        0.923      220.407       46.958        0.045      336.165        7.282      858.477
04/04/2014  01:13:00     -162.981      -95.592       -6.050       56.963       54.187       33.737     3244.761     2936.233     1138.191        2.153        0.366      188.946       24.618        0.017      336.177        7.301      858.486
04/04/2014  01:14:00      -74.430      -41.548       15.076       71.658       40.128       25.566     5134.884     1610.235      653.632        0.744        0.370       85.241       34.554        0.164      336.159        7.273      858.474
04/04/2014  01:15:00      -40.918      -52.857       11.220       46.893       32.534       24.153     2198.978     1058.463      583.359        0.422        0.192       66.844       24.532        0.135      336.226        7.385      858.477
04/04/2014  01:16:00      -38.438      -39.148        9.808       53.078       44.147       20.023     2817.312     1948.975      400.923        0.414        0.258       54.864       22.569        0.169      336.206        7.353      858.479
04/04/2014  01:17:00     -138.296     -121.355       -4.199      156.573       50.189       43.778    24515.115     2518.934     1916.546        3.140        1.448      183.991       53.111        0.083      336.262        7.444      858.464
04/04/2014  01:18:00      -91.550      -42.789        6.435       85.536       45.330       29.882     7316.478     2054.773      892.952        1.026        0.513      101.056       38.229        0.143      336.197        7.336      858.466
04/04/2014  01:19:00      -92.733      -15.486       -0.071       33.921       34.623       26.964     1150.617     1198.778      727.061        0.596        0.154       94.017       23.144        0.061      336.182        7.312      858.445
04/04/2014  01:20:00     -141.123       -7.573       -6.616       67.060       52.640       27.796     4497.087     2770.992      772.627        1.403        0.402      141.326       23.104        0.027      336.179        7.306      858.448
04/04/2014  01:21:00     -137.459        0.790      -23.805       39.734       38.996       21.079     1578.830     1520.711      444.333        1.150        0.177      137.461       18.584        0.018      336.193        7.330      858.447
04/04/2014  01:22:00     -121.698      -24.442      -16.598       54.095       41.064       22.841     2926.323     1686.216      521.707        1.041        0.257      124.128       21.026        0.029      336.184        7.316      858.439
04/04/2014  01:23:00      -60.613       10.828       -4.401       47.095       38.950       21.704     2217.931     1517.103      471.048        0.401        0.210       61.572       26.948        0.192      336.191        7.326      858.426
04/04/2014  01:24:00     -145.635      -71.325       -2.801       55.395       48.466       30.575     3068.598     2348.960      934.849        1.633        0.318      162.163       28.038        0.030      336.164        7.281      858.432
04/04/2014  01:25:00      -91.192      -87.236       11.776       70.491       76.083       30.922     4968.932     5788.638      956.182        1.389        0.586      126.198       39.870        0.100      336.191        7.325      858.430
04/04/2014  01:26:00     -152.593      -54.318       -3.810       68.547       47.278       35.467     4698.631     2235.241     1257.899        1.722        0.410      161.972       32.824        0.041      336.156        7.267      858.438
04/04/2014  01:27:00     -107.744      -43.163       -4.950       70.399       58.004       42.145     4956.072     3364.412     1776.219        1.179        0.505      116.068       47.283        0.166      336.183        7.313      858.445
04/04/2014  01:28:00      -15.085      -26.104       10.136       34.101       52.844       26.818     1162.888     2792.520      719.202        0.284        0.234       30.149       22.056        0.535      336.197        7.337      858.449
04/04/2014  01:29:00      -67.392      -32.041       -1.484       36.317       28.409       21.887     1318.926      807.075      479.052        0.409        0.130       74.621       19.663        0.069      336.179        7.307      858.446
04/04/2014  01:30:00      -86.034      -19.977       -7.026       55.023       25.126       19.832     3027.571      631.297      393.310        0.595        0.203       88.323       22.247        0.063      336.217        7.369      858.458
04/04/2014  01:31:00     -128.014      -69.799       -1.496       51.036       43.759       29.909     2604.716     1914.883      894.571        1.334        0.271      145.806       28.752        0.039      336.175        7.301      858.462
04/04/2014  01:32:00     -109.991      -24.435       -5.212       54.562       36.376       25.484     2976.991     1323.182      649.411        0.883        0.247      112.672       26.584        0.056      336.163        7.280      858.458
04/04/2014  01:33:00      -72.284      -70.855        0.407       45.164       43.428       30.929     2039.823     1885.978      956.578        0.756        0.244      101.220       24.974        0.061      336.199        7.341      858.459
04/04/2014  01:34:00      -40.187      -86.645       -0.816       36.033       26.329       17.284     1298.356      693.195      298.750        0.571        0.115       95.511       16.298        0.029      336.198        7.339      858.460
04/04/2014  01:35:00      -17.730      -57.950        2.070       10.670       10.483        9.697      113.855      109.889       94.041        0.200        0.016       60.601        7.200        0.014      336.174        7.299      858.448
04/04/2014  01:36:00      -27.918      -31.304      -13.694       15.946       12.458       11.273      254.267      155.197      127.086        0.124        0.027       41.945        9.711        0.054      336.193        7.331      858.440
04/04/2014  01:37:00       -4.834       -5.838        7.976       16.787       17.551       11.406      281.793      308.038      130.092        0.042        0.036        7.580       14.132        3.476      336.197        7.334      858.430
04/04/2014  01:38:00       18.253       19.771       -2.424       22.154       14.928       12.272      490.819      222.856      150.592        0.080        0.043       26.909        9.410        0.122      336.231        7.394      858.433
04/04/2014  01:39:00        7.040       43.208       51.554       23.519       50.722       36.321      553.122     2572.760     1319.187        0.451        0.222       43.778       34.525        0.622      336.186        7.318      858.421
04/04/2014  01:40:00       41.653       78.545       82.244       41.189       32.118       27.533     1696.504     1031.555      758.055        0.908        0.174       88.906       21.913        0.061      336.090        7.159      858.415
04/04/2014  01:41:00       21.892       92.275       93.894       35.551       41.745       22.552     1263.848     1742.617      508.614        1.066        0.176       94.837       18.525        0.038      336.088        7.154      858.408
04/04/2014  01:42:00       83.460       78.495       57.982       34.813       24.017       29.513     1211.936      576.798      871.021        0.957        0.133      114.574       17.010        0.022      336.056        7.099      858.411
04/04/2014  01:43:00      100.178       82.015       57.012       48.788       32.263       37.617     2380.299     1040.919     1415.073        1.242        0.242      129.468       31.050        0.058      336.052        7.096      858.408
04/04/2014  01:44:00       90.954       59.142       42.181       58.665       54.704       48.083     3441.640     2992.483     2311.995        1.115        0.437      108.492       31.833        0.086      336.058        7.105      858.408
04/04/2014  01:45:00      105.838       66.663       39.889       58.429       57.110       43.135     3413.958     3261.533     1860.653        1.288        0.427      125.083       35.946        0.083      336.121        7.208      858.406
04/04/2014  01:46:00      144.329      113.984       65.842       53.135       39.226       47.620     2823.277     1538.692     2267.670        2.239        0.331      183.911       36.256        0.039      336.206        7.349      858.397
04/04/2014  01:47:00      107.142       64.939       58.142       66.635       60.068       51.335     4440.285     3608.167     2635.304        1.488        0.534      125.285       44.609        0.127      336.210        7.359      858.390
04/04/2014  01:48:00       29.174       62.643       73.455       57.671       61.660       52.976     3325.963     3801.966     2806.503        1.005        0.497       69.103       55.349        0.642      336.147        7.253      858.383
04/04/2014  01:49:00       96.842      109.071       86.368       71.474       65.364       54.682     5108.515     4272.498     2990.121        2.055        0.619      145.859       47.076        0.104      336.160        7.274      858.368
04/04/2014  01:50:00      120.533       83.526       56.448       61.494       45.481       43.254     3781.563     2068.563     1870.949        1.620        0.386      146.645       34.962        0.057      336.118        7.204      858.369
04/04/2014  01:51:00       53.134       77.408       94.917       62.283       61.426       43.382     3879.151     3773.092     1882.041        1.368        0.477       93.890       48.767        0.270      336.216        7.367      858.357
04/04/2014  01:52:00       52.099       70.406       75.798       58.886       42.470       40.023     3467.575     1803.727     1601.860        1.014        0.344       87.586       36.069        0.170      336.187        7.320      858.343
04/04/2014  01:53:00       77.752       52.242       38.366       61.488       48.502       44.741     3780.826     2352.430     2001.793        0.919        0.407       93.673       30.579        0.107      336.123        7.213      858.334
04/04/2014  01:54:00       95.036       68.170       34.017       40.625       27.179       29.329     1650.414      738.711      860.172        0.904        0.162      116.957       21.995        0.035      336.042        7.078      858.326
04/04/2014  01:55:00       66.205       45.388       35.027       38.223       25.517       24.367     1460.981      651.102      593.754        0.519        0.135       80.270       11.877        0.022      336.034        7.065      858.305
04/04/2014  01:56:00       42.807       80.254       82.000       48.870       45.986       36.206     2388.276     2114.754     1310.858        1.040        0.291       90.957       33.483        0.136      336.138        7.237      858.303
04/04/2014  01:57:00       22.999      -27.592       30.897       34.055       56.364       36.462     1159.772     3176.861     1329.513        0.395        0.283       35.920       40.518        1.272      336.284        7.483      858.288
04/04/2014  01:58:00       29.250        7.866       13.409       32.504       29.187       24.128     1056.496      851.865      582.178        0.179        0.125       30.289       20.969        0.479      336.221        7.377      858.289
04/04/2014  01:59:00       30.303       26.740       13.908       21.123       16.045       21.539      446.166      257.445      463.949        0.150        0.058       40.414       11.842        0.086      336.171        7.292      858.280
04/04/2014  02:00:00       54.887       33.193       10.551       29.833       34.857       24.905      890.007     1215.031      620.259        0.347        0.136       64.143       12.534        0.038      336.110        7.191      858.271
04/04/2014  02:01:00       12.502       47.050       -4.686       78.189       41.784       34.152     6113.593     1745.904     1166.386        0.571        0.451       48.683       23.911        0.241      336.117        7.202      858.255
04/04/2014  02:02:00       46.984       -3.181       18.543       57.652       66.366       36.716     3323.772     4404.480     1348.079        0.582        0.454       47.092       13.321        0.080      336.170        7.291      858.253
04/04/2014  02:03:00       16.506       18.697       14.056       42.643       50.532       38.753     1818.397     2553.486     1501.829        0.335        0.294       24.941       39.351        2.489      336.178        7.305      858.253
04/04/2014  02:04:00       78.109       44.468        3.515       34.107       33.080       23.625     1163.317     1094.263      558.156        0.545        0.141       89.880       16.646        0.034      336.187        7.321      858.256
04/04/2014  02:05:00       31.346       77.926      -12.165       23.393       23.559       15.961      547.222      555.048      254.769        0.428        0.068       83.994        7.673        0.008      336.133        7.229      858.248
04/04/2014  02:06:00       36.514       40.916       -7.482       34.249       35.222       22.863     1172.998     1240.578      522.695        0.300        0.147       54.840       21.244        0.150      336.110        7.192      858.230
04/04/2014  02:07:00       81.279       28.257        6.534       41.538       27.967       21.440     1725.432      782.159      459.662        0.521        0.148       86.050        9.693        0.013      336.142        7.245      858.216
04/04/2014  02:08:00       39.522      110.529      -13.740       28.834       43.182       25.383      831.375     1864.721      644.307        0.865        0.167      117.383       24.434        0.043      336.132        7.227      858.221
04/04/2014  02:09:00       38.024      192.522      -31.309       19.175       30.683       15.593      367.668      941.418      243.152        2.052        0.078      196.241       14.699        0.006      336.085        7.150      858.224
04/04/2014  02:10:00        2.080      213.457      -34.763       66.233       58.558       33.737     4386.865     3429.016     1138.197        2.786        0.448      213.467       31.931        0.022      336.148        7.250      858.225
04/04/2014  02:11:00     -117.763      137.730      -26.229       38.659       45.432       34.227     1494.497     2064.095     1171.484        1.913        0.237      181.212       27.564        0.023      336.192        7.328      858.227
04/04/2014  02:12:00      -85.067      108.985      -38.830       44.986       41.875       30.398     2023.758     1753.493      924.069        1.266        0.235      138.254       33.004        0.057      336.175        7.300      858.234
04/04/2014  02:13:00       -9.478       98.208       -7.734       23.152       51.478       22.230      536.027     2650.021      494.151        0.674        0.184       98.664       24.086        0.060      336.206        7.352      858.234
04/04/2014  02:14:00       -5.368      152.096      -15.422       25.025       22.179       19.987      626.235      491.908      399.496        1.246        0.076      152.191       13.554        0.008      336.158        7.271      858.230
04/04/2014  02:15:00       15.349      142.622      -20.892       28.343       41.873       21.915      803.330     1753.327      480.269        1.202        0.152      143.446       23.735        0.027      336.124        7.215      858.224
04/04/2014  02:16:00       69.223       66.528       -2.992       32.357       35.614       29.830     1046.956     1268.380      889.841        0.622        0.160       96.009       25.234        0.069      336.093        7.162      858.214
04/04/2014  02:17:00       47.175       32.639       14.665       35.223       27.583       25.864     1240.692      760.849      668.931        0.309        0.134       57.365       20.253        0.125      336.124        7.214      858.204
04/04/2014  02:18:00       38.250       50.737       52.025       35.586       36.290       29.506     1266.356     1316.942      870.625        0.510        0.173       63.540       27.709        0.190      336.075        7.133      858.195
04/04/2014  02:19:00       12.636       -0.597       15.136       32.608       41.036       26.335     1063.268     1683.970      693.509        0.191        0.172       12.651       18.543        2.149      336.090        7.158      858.197
04/04/2014  02:20:00       33.495      -55.476        9.880       31.849       49.684       29.299     1014.330     2468.488      858.444        0.432        0.217       64.804       27.795        0.184      336.263        7.447      858.206
04/04/2014  02:21:00       14.111       16.714       58.144       28.774       50.763       34.042      827.939     2576.837     1158.868        0.421        0.228       21.874       34.295        2.458      336.246        7.418      858.209
04/04/2014  02:22:00        8.289       83.656       98.230       31.243       35.498       21.924      976.125     1260.074      480.682        0.972        0.136       84.066       18.904        0.051      336.192        7.329      858.210
04/04/2014  02:23:00       50.039       51.633       45.103       25.507       27.252       26.290      650.595      742.697      691.155        0.464        0.104       71.902       14.045        0.038      336.136        7.233      858.211
04/04/2014  02:24:00       -4.270      -24.902       21.707       26.321       41.855       27.592      692.819     1751.810      761.316        0.216        0.160       25.266       22.470        0.791      336.250        7.427      858.215
04/04/2014  02:25:00       -9.866        8.073       45.064       17.317       23.737       17.074      299.869      563.468      291.523        0.167        0.058       12.748        9.695        0.578      336.206        7.353      858.218
04/04/2014  02:26:00       -6.604      -15.862       37.661       18.655       36.297       19.944      347.998     1317.478      397.776        0.189        0.103       17.182       19.017        1.225      336.236        7.402      858.215
04/04/2014  02:27:00      -43.277      -15.436        1.890       64.608       42.056       26.074     4174.155     1768.743      679.877        0.437        0.331       45.947       25.219        0.301      336.152        7.261      858.225
04/04/2014  02:28:00      -54.942       -7.399       -0.140       42.615       20.126       22.605     1816.050      405.057      510.964        0.290        0.137       55.438       25.006        0.203      336.142        7.243      858.236
04/04/2014  02:29:00      -39.311      -28.366       12.217       30.291       33.730       20.638      917.543     1137.708      425.927        0.249        0.124       48.477       16.414        0.115      336.142        7.245      858.242
04/04/2014  02:30:00      -37.165      -52.786        8.156       25.191       24.798       18.625      634.606      614.935      346.899        0.291        0.080       64.557       15.128        0.055      336.219        7.372      858.237
04/04/2014  02:31:00      -20.933      -61.000       -5.298       17.206       20.111       14.964      296.053      404.461      223.924        0.256        0.046       64.492       12.386        0.037      336.201        7.343      858.238
04/04/2014  02:32:00      -63.140      -14.125        1.279       14.051       13.062       11.753      197.429      170.625      138.133        0.235        0.025       64.701        8.883        0.019      336.172        7.295      858.233
04/04/2014  02:33:00      -41.328      -16.169        2.399       18.245       15.100        9.851      332.864      228.007       97.049        0.132        0.033       44.378        8.448        0.036      336.171        7.293      858.239
04/04/2014  02:34:00      -77.063      -41.888      -19.361       46.932       21.782       15.959     2202.592      474.462      254.681        0.550        0.147       87.712       11.903        0.018      336.125        7.217      858.242
04/04/2014  02:35:00      -10.353      -35.055        5.472       38.101       29.828       14.744     1451.671      889.719      217.378        0.196        0.128       36.552       13.257        0.132      336.143        7.246      858.235
04/04/2014  02:36:00      -12.025      -59.300        9.876       46.504       37.768       30.777     2162.655     1426.459      947.225        0.415        0.227       60.507       23.743        0.154      336.185        7.317      858.221
04/04/2014  02:37:00     -133.563     -115.944       -5.561       67.276       48.093       31.441     4526.082     2312.914      988.511        1.957        0.391      176.868       25.193        0.020      336.080        7.141      858.218
04/04/2014  02:38:00     -116.527      -94.350        2.975       86.066       65.793       41.517     7407.417     4328.717     1723.701        1.797        0.673      149.934       43.877        0.086      336.054        7.097      858.217
04/04/2014  02:39:00      -62.825      -67.626        0.619       50.956       25.393       25.592     2596.527      644.784      654.939        0.621        0.195       92.305       29.008        0.099      336.093        7.164      858.215
04/04/2014  02:40:00      -33.565      -46.342       10.745       33.939       38.924       16.716     1151.864     1515.101      279.423        0.317        0.147       57.220       14.994        0.069      336.083        7.147      858.202
04/04/2014  02:41:00      -57.491      -12.085        0.201       21.007       20.614       16.394      441.298      424.929      268.775        0.229        0.057       58.747       12.642        0.046      336.048        7.087      858.193
04/04/2014  02:42:00      -46.623      -42.451       -4.665       25.632       26.037       15.159      657.016      677.927      229.788        0.278        0.078       63.053       10.522        0.028      336.119        7.205      858.191
04/04/2014  02:43:00      -51.837      -48.645       -2.552       30.923       24.689       17.520      956.215      609.570      306.965        0.347        0.094       71.087       18.714        0.069      336.082        7.144      858.191
04/04/2014  02:44:00      -44.400      -39.463       -3.391       18.520       23.270       12.489      342.981      541.494      155.969        0.229        0.052       59.403        7.633        0.017      336.090        7.158      858.189
04/04/2014  02:45:00      -34.975      -82.119        2.781       44.827       32.215       25.317     2009.420     1037.788      640.966        0.583        0.184       89.256       14.976        0.028      336.125        7.217      858.179
04/04/2014  02:46:00       -5.684      -68.805       15.040       49.976       55.036       21.597     2497.614     3029.002      466.448        0.549        0.300       69.039       12.366        0.032      336.047        7.088      858.171
04/04/2014  02:47:00      -41.147      -14.803        3.486       45.072       26.389       17.056     2031.443      696.360      290.922        0.247        0.151       43.729       19.835        0.206      336.068        7.122      858.170
04/04/2014  02:48:00      -12.243      -49.165        9.189       50.432       36.788       21.468     2543.391     1353.364      460.863        0.350        0.218       50.666       16.876        0.111      336.092        7.161      858.166
04/04/2014  02:49:00      -56.455      -74.213        7.413       67.242       47.323       24.303     4521.543     2239.497      590.632        0.805        0.368       93.246       28.952        0.096      335.977        6.968      858.153
04/04/2014  02:50:00      -56.576      -52.125       11.689       35.975       27.925       28.768     1294.199      779.819      827.582        0.448        0.145       76.928       25.555        0.110      336.041        7.076      858.139
04/04/2014  02:51:00      -34.959      -53.722        9.057       28.013       33.623       19.928      784.737     1130.521      397.112        0.325        0.116       64.095       19.081        0.089      336.033        7.063      858.132
04/04/2014  02:52:00     -100.881      -69.716        0.448       66.968       35.881       28.677     4484.719     1287.415      822.342        1.081        0.330      122.626       35.343        0.083      336.008        7.021      858.125
04/04/2014  02:53:00     -135.284        6.614      -18.962       71.807       40.646       27.995     5156.246     1652.080      783.708        1.315        0.380      135.445       15.329        0.013      335.915        6.867      858.120
04/04/2014  02:54:00      -98.036       15.439       -8.428       51.184       56.966       30.330     2619.841     3245.116      919.920        0.835        0.339       99.244       19.613        0.039      335.883        6.813      858.112
04/04/2014  02:55:00     -129.457      -35.918       -2.058       55.712       29.341       25.067     3103.878      860.883      628.350        1.132        0.230      134.347       31.051        0.053      335.859        6.771      858.111
04/04/2014  02:56:00     -115.600      -21.960       -8.708       36.064       29.500       22.311     1300.630      870.260      497.777        0.829        0.133      117.667       17.174        0.021      335.885        6.815      858.104
04/04/2014  02:57:00      -43.199       -5.625        1.343       17.588       14.721       11.964      309.346      216.697      143.132        0.128        0.033       43.564        9.181        0.044      335.868        6.788      858.080
04/04/2014  02:58:00      -11.142      -47.288        2.756       23.905       42.627       21.024      571.446     1817.057      442.007        0.260        0.142       48.583       23.342        0.231      335.973        6.962      858.066
04/04/2014  02:59:00      -45.626       15.229        0.161       28.752       19.270       15.912      826.685      371.334      253.187        0.188        0.073       48.101       17.166        0.127      335.916        6.868      858.050
04/04/2014  03:00:00      -33.944      -69.926       -2.673       23.048       68.541       15.340      531.220     4697.829      235.323        0.576        0.273       77.729       24.417        0.099      335.963        6.945      858.052
04/04/2014  03:01:00     -102.920      -96.722      -11.806       40.073       37.600       19.441     1605.832     1413.734      377.947        1.174        0.170      141.236       18.766        0.018      335.911        6.861      858.045
04/04/2014  03:02:00     -214.980      -23.145      -15.251       76.131       73.280       48.713     5795.997     5369.888     2372.925        3.026        0.677      216.222       48.267        0.050      335.893        6.825      858.043
04/04/2014  03:03:00      -68.910      -84.577        3.110       94.303      106.722       35.421     8893.044    11389.578     1254.675        1.672        1.077      109.095       49.320        0.204      335.908        6.852      858.032
04/04/2014  03:04:00     -152.557       -5.540       -6.258       80.175       71.569       29.836     6427.976     5122.073      890.193        1.789        0.622      152.657       26.086        0.029      335.889        6.821      858.014
04/04/2014  03:05:00     -169.159      -85.663       -6.788       79.755       60.743       40.524     6360.829     3689.727     1642.227        2.384        0.585      189.613       39.807        0.044      335.893        6.828      858.013
04/04/2014  03:06:00     -269.451     -173.008      -10.066       93.557       74.062       46.654     8752.841     5485.167     2176.611        5.952        0.821      320.212       33.393        0.011      335.883        6.810      857.990
04/04/2014  03:07:00     -103.610      -81.351        0.972       91.590       61.927       48.726     8388.706     3834.898     2374.205        1.597        0.730      131.731       50.299        0.146      335.891        6.825      857.981
04/04/2014  03:08:00      -87.304      -79.775       11.554       86.889       73.011       39.163     7549.778     5330.624     1533.754        1.426        0.721      118.262       38.377        0.105      335.913        6.862      857.964
04/04/2014  03:09:00     -127.892      -52.512       -2.997       77.474       66.617       39.585     6002.249     4437.771     1566.985        1.556        0.600      138.253       32.155        0.054      335.900        6.840      857.955
04/04/2014  03:10:00     -203.121      -59.226      -10.154       92.422       83.953       41.121     8541.837     7048.137     1690.958        3.107        0.864      211.580       31.420        0.022      335.876        6.797      857.951
04/04/2014  03:11:00     -241.819      -75.724        1.673      137.977       96.468       48.878    19037.705     9306.102     2389.056        4.747        1.537      253.398       49.557        0.038      335.886        6.815      857.951
04/04/2014  03:12:00     -212.552       -1.286        1.734      112.040      138.435       51.036    12552.856    19164.189     2604.679        3.975        1.716      212.556       52.016        0.060      335.871        6.790      857.948
04/04/2014  03:13:00     -289.983       16.647      -19.511       71.182       87.734       51.539     5066.919     7697.201     2656.281        5.008        0.771      290.460       47.234        0.026      335.869        6.783      857.938
04/04/2014  03:14:00     -191.952      -75.703       10.612      149.151       88.513       52.471    22245.878     7834.539     2753.159        3.775        1.642      206.341       65.155        0.100      335.895        6.832      857.931
04/04/2014  03:15:00     -130.637      -23.934        2.249      130.659       73.413       53.541    17071.727     5389.466     2866.622        2.148        1.266      132.812       66.011        0.247      335.898        6.837      857.920
04/04/2014  03:16:00      -16.341      -17.416       18.933       60.172       59.930       46.643     3620.680     3591.652     2175.604        0.516        0.469       23.882       37.036        2.405      335.902        6.844      857.915
04/04/2014  03:17:00     -133.790      -76.192       -1.045      129.367      100.165       52.431    16735.861    10033.081     2748.964        2.661        1.476      153.964       60.877        0.156      335.887        6.818      857.895
04/04/2014  03:18:00     -227.641     -120.377        7.932      165.936      115.703       67.030    27534.863    13387.241     4492.974        5.589        2.271      257.509       80.721        0.098      335.860        6.772      857.894
04/04/2014  03:19:00     -173.342      -24.754      -10.817       77.190       61.536       36.579     5958.356     3786.650     1338.042        2.093        0.554      175.100       25.604        0.021      335.833        6.727      857.908
04/04/2014  03:20:00     -186.920        3.994       -6.953      124.033       98.791       54.060    15384.275     9759.698     2922.513        3.153        1.403      186.963       57.566        0.095      335.844        6.745      857.914
04/04/2014  03:21:00     -194.629        2.305       -7.167      106.035       83.908       53.754    11243.464     7040.634     2889.490        2.955        1.059      194.643       54.844        0.079      335.847        6.752      857.904
04/04/2014  03:22:00     -356.038      -66.419      -22.865      162.189       79.783       56.116    26305.276     6365.330     3149.002        8.375        1.791      362.180       78.139        0.047      335.848        6.753      857.909
04/04/2014  03:23:00     -366.445        1.952      -28.706      148.589       98.067       63.529    22078.702     9617.193     4035.875        8.541        1.787      366.450       66.610        0.033      335.842        6.741      857.914
04/04/2014  03:24:00     -190.501      -28.218       -7.761      141.446       73.644       54.878    20006.890     5423.423     3011.601        3.279        1.422      192.579       72.121        0.140      335.831        6.725      857.914
04/04/2014  03:25:00     -213.743      -28.708       -4.490      130.237       76.491       55.774    16961.553     5850.812     3110.742        3.622        1.296      215.663       56.141        0.068      335.826        6.715      857.906
04/04/2014  03:26:00     -215.908      -71.322       -5.132      110.925      108.936       47.468    12304.338    11867.065     2253.188        3.907        1.321      227.384       50.302        0.049      335.811        6.689      857.922
04/04/2014  03:27:00     -236.449     -144.020       -4.969      120.744       89.129       61.648    14579.104     7944.017     3800.475        5.149        1.316      276.857       54.207        0.038      335.825        6.711      857.918
04/04/2014  03:28:00     -208.972     -152.778      -16.582      110.471       90.617       60.331    12203.859     8211.351     3639.861        4.567        1.203      258.864       55.589        0.046      335.809        6.686      857.911
04/04/2014  03:29:00     -155.367      -69.271       -5.596       96.878       63.709       43.588     9385.343     4058.790     1899.955        2.215        0.767      170.110       48.274        0.081      335.800        6.672      857.926
04/04/2014  03:30:00      -66.705      -31.940        7.121       90.100       66.297       47.921     8117.969     4395.333     2296.408        1.016        0.740       73.958       47.679        0.416      335.847        6.754      857.927
04/04/2014  03:31:00     -185.973     -113.602       -1.400      160.139      113.048       59.414    25644.465    12779.853     3530.076        4.472        2.098      217.925       60.616        0.077      335.821        6.709      857.921
04/04/2014  03:32:00     -200.062      -53.136        2.571       99.637       82.189       39.008     9927.439     6755.065     1521.634        3.053        0.910      206.998       37.677        0.033      335.790        6.656      857.930
04/04/2014  03:33:00     -302.987     -130.062      -18.423      127.017      121.619       64.485    16133.424    14791.207     4158.327        7.206        1.754      329.723       76.828        0.054      335.841        6.740      857.923
04/04/2014  03:34:00     -203.490      -45.115       -6.833      120.096       64.895       49.970    14423.093     4211.324     2496.979        3.231        1.057      208.431       62.432        0.090      335.820        6.706      857.912
04/04/2014  03:35:00     -189.161      -77.669       -9.401      101.456       77.055       40.438    10293.364     5937.545     1635.196        2.988        0.893      204.486       48.339        0.056      335.834        6.729      857.918
04/04/2014  03:36:00     -231.896      -85.241       -7.563      123.302       95.045       47.780    15203.360     9033.642     2282.975        4.380        1.326      247.066       59.366        0.058      335.832        6.726      857.907
04/04/2014  03:37:00     -169.606      -68.057       11.391       92.757       75.919       38.328     8603.877     5763.637     1469.059        2.468        0.792      182.751       40.370        0.049      335.843        6.743      857.896
04/04/2014  03:38:00     -121.264      -14.117       20.720      132.746      102.214       57.810    17621.428    10447.702     3342.007        2.337        1.571      122.083       69.356        0.323      335.853        6.761      857.905
04/04/2014  03:39:00     -108.325      -29.009        4.378       99.432       57.072       49.012     9886.739     3257.222     2402.211        1.407        0.777      112.142       53.582        0.228      335.857        6.768      857.905
04/04/2014  03:40:00     -157.396     -121.888      -11.320       76.790       71.117       46.710     5896.636     5057.669     2181.860        2.644        0.657      199.073       38.538        0.037      335.840        6.738      857.912
04/04/2014  03:41:00     -120.275      -50.984        7.834       93.616       83.239       58.037     8763.868     6928.768     3368.347        1.809        0.953      130.634       65.320        0.250      335.835        6.731      857.911
04/04/2014  03:42:00      -91.444      -18.410        9.253       80.430       56.873       46.401     6468.973     3234.482     2153.089        1.032        0.593       93.278       42.698        0.210      335.825        6.716      857.921
04/04/2014  03:43:00     -164.959      -15.982       -5.298       74.218       52.469       31.421     5508.354     2752.994      987.252        1.837        0.462      165.731       34.475        0.043      335.805        6.680      857.916
04/04/2014  03:44:00     -134.568      -54.304       -4.033       96.479       63.937       35.534     9308.225     4088.001     1262.650        1.786        0.733      145.112       38.260        0.070      335.804        6.679      857.907
04/04/2014  03:45:00     -137.261      -40.532        2.939       67.829       65.964       38.622     4600.710     4351.225     1491.688        1.547        0.522      143.120       35.983        0.063      335.803        6.681      857.904
04/04/2014  03:46:00     -194.609      -25.715      -13.410       78.907       79.329       43.568     6226.272     6293.058     1898.208        2.656        0.721      196.301       37.991        0.037      335.762        6.609      857.903
04/04/2014  03:47:00     -249.051      -25.329      -22.978       75.552       74.479       38.579     5708.061     5547.069     1488.303        3.797        0.637      250.335       37.133        0.022      335.780        6.639      857.895
04/04/2014  03:48:00     -222.331     -125.231      -25.037       88.227       76.660       47.912     7784.090     5876.708     2295.519        4.085        0.798      255.174       27.606        0.012      335.788        6.653      857.898
04/04/2014  03:49:00     -177.656      -53.580       -4.514       96.606       63.501       43.689     9332.676     4032.322     1908.764        2.486        0.764      185.560       35.300        0.036      335.784        6.647      857.893
04/04/2014  03:50:00     -177.205      -22.488        3.560      132.944       85.738       60.705    17674.157     7351.063     3685.099        3.031        1.436      178.626       65.600        0.135      335.781        6.642      857.881
04/04/2014  03:51:00     -246.179      -35.026      -10.932      133.031       96.871       50.904    17697.286     9384.029     2591.218        4.581        1.484      248.658       43.964        0.031      335.776        6.635      857.866
04/04/2014  03:52:00     -194.547      -76.577      -11.478       94.862      124.974       48.561     8998.804    15618.610     2358.136        3.540        1.349      209.076       54.106        0.067      335.796        6.665      857.850
04/04/2014  03:53:00     -234.565      -13.171       -9.335      133.269       85.744       45.396    17760.587     7352.062     2060.805        4.122        1.359      234.934       53.561        0.052      335.784        6.645      857.854
04/04/2014  03:54:00     -201.617      -33.019      -11.931      153.564       82.732       60.184    23581.833     6844.517     3622.144        3.796        1.702      204.303       76.747        0.141      335.802        6.677      857.854
04/04/2014  03:55:00     -121.428     -112.162       -1.067       93.615       88.156       53.881     8763.745     7771.478     2903.179        2.338        0.972      165.303       47.297        0.082      335.835        6.731      857.835
04/04/2014  03:56:00      -82.945      -69.038        2.289      102.279       84.422       54.873    10460.970     7127.033     3011.050        1.612        1.030      107.917       56.024        0.270      335.834        6.729      857.819
04/04/2014  03:57:00     -159.462      -30.504        1.608       77.993       76.116       41.742     6082.832     5793.718     1742.398        1.999        0.681      162.353       37.692        0.054      335.810        6.691      857.817
04/04/2014  03:58:00     -275.016      -22.702      -19.625       84.590      114.404       42.388     7155.515    13088.194     1796.704        4.928        1.102      275.951       40.920        0.022      335.796        6.662      857.818
04/04/2014  03:59:00     -181.184     -155.231      -11.203       66.491       81.833       38.993     4421.027     6696.628     1520.477        3.484        0.632      238.588       34.559        0.021      335.794        6.660      857.819
04/04/2014  04:00:00     -172.975      -59.897       -7.801       62.709       74.282       33.622     3932.452     5517.765     1130.407        2.207        0.529      183.052       25.392        0.019      335.798        6.670      857.806
04/04/2014  04:01:00     -207.642      -61.615       -5.187      139.579      103.209       58.135    19482.394    10652.111     3379.713        4.022        1.676      216.591       66.414        0.094      335.798        6.669      857.802
04/04/2014  04:02:00     -169.175      -32.607        2.636       86.741       84.284       44.658     7523.999     7103.828     1994.327        2.315        0.831      172.288       39.283        0.052      335.804        6.681      857.805
04/04/2014  04:03:00     -190.042     -150.742      -12.093       98.182       86.022       56.770     9639.617     7399.734     3222.883        3.962        1.013      242.568       60.148        0.061      335.861        6.772      857.798
04/04/2014  04:04:00     -128.473      -77.787        7.276       95.605       92.194       48.887     9140.226     8499.736     2389.928        2.132        1.001      150.187       57.145        0.145      335.862        6.777      857.789
04/04/2014  04:05:00     -152.048      -72.112      -10.540      101.210       69.219       45.503    10243.433     4791.310     2070.488        2.276        0.855      168.282       49.906        0.088      335.861        6.774      857.791
04/04/2014  04:06:00     -137.133      -31.572        3.971       97.983       78.067       44.458     9600.674     6094.382     1976.495        1.874        0.884      140.721       48.655        0.120      335.864        6.780      857.775
04/04/2014  04:07:00     -108.905      -50.421        4.249      103.589       60.530       45.041    10730.692     3663.914     2028.694        1.542        0.821      120.010       53.283        0.197      335.851        6.758      857.761
04/04/2014  04:08:00     -206.653      -52.855      -17.568       73.377       54.745       42.887     5384.130     2997.009     1839.266        2.801        0.511      213.305       34.067        0.026      335.813        6.691      857.750
04/04/2014  04:09:00     -127.424      -46.240        1.739       99.482       64.828       45.217     9896.723     4202.679     2044.608        1.726        0.807      135.555       47.824        0.124      335.835        6.731      857.754
04/04/2014  04:10:00     -198.242      -75.493       -4.365      134.245       80.015       59.005    18021.755     6402.351     3481.549        3.646        1.395      212.130       61.237        0.083      335.856        6.765      857.714
04/04/2014  04:11:00     -170.814      -52.255        4.997      101.510      104.719       52.317    10304.333    10966.040     2737.028        2.797        1.200      178.628       48.596        0.074      335.839        6.738      857.696
04/04/2014  04:12:00     -202.204      -64.206        4.887      117.924      108.797       65.419    13906.103    11836.762     4279.702        3.752        1.501      212.153       44.373        0.044      335.868        6.784      857.691
04/04/2014  04:13:00     -365.353      -21.747      -15.025      176.378      151.701       74.904    31109.037    23013.210     5610.607        9.695        2.987      365.999       71.457        0.038      335.860        6.773      857.686
04/04/2014  04:14:00     -155.028      -82.662       23.293      178.112      144.243       71.117    31723.807    20806.088     5057.576        4.449        2.879      175.689       90.156        0.263      335.899        6.838      857.687
04/04/2014  04:15:00     -133.166      -28.434        0.272       85.243      100.682       56.356     7266.397    10136.865     3175.989        1.956        1.029      136.168       49.499        0.132      335.903        6.844      857.684
04/04/2014  04:16:00     -211.911      -67.198        5.293      120.032       98.997       50.684    14407.578     9800.316     2568.911        3.811        1.339      222.310       48.101        0.047      335.855        6.765      857.681
04/04/2014  04:17:00     -456.802      -22.446      -23.702      135.199      125.014       69.851    18278.767    15628.514     4879.125       12.425        1.939      457.353       70.964        0.024      335.828        6.719      857.666
04/04/2014  04:18:00     -257.475      -46.834       -3.739      140.041       91.361       61.759    19611.348     8346.812     3814.169        5.013        1.589      261.699       74.274        0.081      335.826        6.716      857.671
04/04/2014  04:19:00     -266.363      -78.647       -2.790      115.159      111.794       66.316    13261.501    12497.846     4397.775        5.364        1.508      277.732       62.985        0.051      335.824        6.712      857.671
04/04/2014  04:20:00     -136.637      -59.780        2.952      129.365       94.177       60.488    16735.231     8869.395     3658.850        2.575        1.463      149.142       33.490        0.050      335.855        6.766      857.672
04/04/2014  04:21:00     -295.849     -109.108      -12.003      155.059      103.829       67.076    24043.426    10780.366     4499.207        6.944        1.966      315.327       87.494        0.077      335.831        6.724      857.680
04/04/2014  04:22:00     -145.411      -46.931        8.526      133.061       66.622       57.519    17705.132     4438.532     3308.448        2.443        1.273      152.797       65.964        0.186      335.873        6.796      857.692
04/04/2014  04:23:00     -190.819      -35.783       -6.512       79.438       63.898       36.657     6310.386     4082.951     1343.709        2.473        0.587      194.145       25.890        0.018      335.841        6.741      857.689
04/04/2014  04:24:00     -111.753      -50.391       25.628      122.914       97.485       46.272    15107.769     9503.364     2141.137        2.121        1.338      122.589       57.914        0.223      335.860        6.773      857.678
04/04/2014  04:25:00     -208.360      -79.239        6.591      139.797      102.767       69.663    19543.210    10561.141     4852.963        4.234        1.748      222.919       78.664        0.125      335.840        6.739      857.687
04/04/2014  04:26:00     -202.079       -8.461       16.410      135.035       89.348       54.001    18234.474     7983.027     2916.098        3.515        1.457      202.256       68.513        0.115      335.847        6.751      857.690
04/04/2014  04:27:00     -277.808      -87.425       -2.803      117.000      129.450       63.627    13688.980    16757.365     4048.419        5.965        1.725      291.239       53.005        0.033      335.865        6.781      857.711
04/04/2014  04:28:00     -318.487      -29.293      -26.740      128.909      112.641       55.935    16617.585    12687.922     3128.739        6.771        1.622      319.831       53.458        0.028      335.848        6.753      857.719
04/04/2014  04:29:00     -334.923      -60.090      -11.675      102.235       79.023       57.931    10452.042     6244.668     3355.959        6.798        1.003      340.271       52.299        0.024      335.821        6.706      857.697
04/04/2014  04:30:00     -276.074     -101.556       -0.861      124.795       85.679       48.312    15573.857     7340.864     2334.047        5.589        1.262      294.161       53.800        0.033      335.803        6.677      857.693
04/04/2014  04:31:00     -161.924      -18.659        0.563       73.250       71.014       40.509     5365.617     5043.006     1641.009        1.931        0.602      162.995       41.651        0.065      335.798        6.669      857.694
04/04/2014  04:32:00     -123.188      -48.161        5.155      112.516       80.658       48.819    12659.786     6505.656     2383.315        1.953        1.077      132.268       62.489        0.223      335.814        6.698      857.701
04/04/2014  04:33:00     -270.077     -184.372      -12.819      152.104      139.020       77.137    23135.734    19326.499     5950.116        7.775        2.421      327.009       70.752        0.047      335.838        6.735      857.699
04/04/2014  04:34:00     -294.999     -139.876      -32.306      142.697      125.318       57.923    20362.378    15704.726     3355.108        7.352        1.971      326.480       69.198        0.045      335.819        6.703      857.702
04/04/2014  04:35:00     -245.547     -117.065       -5.582      120.164       97.488       52.730    14439.470     9503.969     2780.459        5.037        1.336      272.025       43.300        0.025      335.823        6.710      857.726
04/04/2014  04:36:00     -363.194        0.906       -8.624      128.552      114.213       64.564    16525.717    13044.562     4168.558        8.286        1.687      363.195       63.832        0.031      335.811        6.688      857.722
04/04/2014  04:37:00     -311.122      -14.955      -26.405      122.266       88.096       56.583    14948.870     7760.931     3201.677        6.181        1.296      311.482       54.422        0.031      335.813        6.693      857.721
04/04/2014  04:38:00     -300.319      -59.240      -26.561      124.681       97.588       53.568    15545.283     9523.388     2869.535        6.117        1.397      306.106       56.904        0.035      335.824        6.713      857.723
04/04/2014  04:39:00     -239.422       11.345       -4.092      105.501       94.392       55.419    11130.446     8909.775     3071.301        4.029        1.156      239.691       43.988        0.034      335.815        6.695      857.729
04/04/2014  04:40:00     -177.625      -36.284       -7.045       72.875       78.612       41.647     5310.833     6179.818     1734.436        2.307        0.661      181.293       32.582        0.032      335.846        6.750      857.746
04/04/2014  04:41:00     -274.252      -86.941        2.598      150.994      100.200       69.743    22799.275    10040.026     4864.092        6.023        1.885      287.703       79.994        0.077      335.884        6.812      857.744
04/04/2014  04:42:00     -236.926      -60.146       -2.404      129.051       98.619       63.749    16654.120     9725.726     4063.913        4.509        1.522      244.442       63.702        0.068      335.881        6.807      857.750
04/04/2014  04:43:00     -120.952      -24.262        8.145       69.381       63.965       44.263     4813.655     4091.480     1959.184        1.307        0.543      123.361       30.157        0.060      335.903        6.845      857.768
04/04/2014  04:44:00     -110.657     -125.719        2.146       68.843       94.999       43.542     4739.426     9024.727     1895.878        2.185        0.783      167.482       46.239        0.076      335.943        6.911      857.770
04/04/2014  04:45:00     -214.058     -174.156       -1.481      105.500       92.749       57.090    11130.259     8602.298     3259.283        4.957        1.150      275.955       56.134        0.041      335.938        6.901      857.765
04/04/2014  04:46:00     -149.541     -190.155        9.229      134.695      103.913       58.817    18142.843    10797.948     3459.412        4.550        1.620      241.913       63.998        0.070      335.961        6.941      857.771
04/04/2014  04:47:00     -149.744     -123.775        9.621       88.606       62.052       40.771     7850.994     3850.402     1662.282        2.560        0.668      194.278       31.522        0.026      335.954        6.929      857.789
04/04/2014  04:48:00      -74.595      -98.526       -3.813       64.133       71.707       34.904     4113.094     5141.934     1218.295        1.288        0.524      123.579       34.595        0.078      335.950        6.925      857.782
04/04/2014  04:49:00      -98.471     -138.836       -5.366       62.776       62.964       29.309     3940.777     3964.458      859.031        1.888        0.438      170.211       27.087        0.025      335.868        6.786      857.780
04/04/2014  04:50:00      -78.802      -42.168        8.353       50.257       36.104       27.115     2525.795     1303.521      735.202        0.631        0.228       89.374       17.248        0.037      335.844        6.748      857.773
04/04/2014  04:51:00      -29.049      -14.257       11.562       33.097       32.295       21.566     1095.414     1042.965      465.109        0.189        0.130       32.359       16.554        0.262      335.825        6.717      857.765
04/04/2014  04:52:00       -1.971      -16.784       10.183       35.189       23.242       21.942     1238.261      540.201      481.457        0.132        0.113       16.899       19.687        1.357      335.889        6.823      857.766
04/04/2014  04:53:00      -19.040      -76.973        4.602       67.277       49.339       32.980     4526.148     2434.375     1087.688        0.718        0.402       79.293       33.387        0.177      335.957        6.935      857.758
04/04/2014  04:54:00      -72.341      -96.019      -13.540       39.470       54.610       29.812     1557.917     2982.305      888.747        1.003        0.271      120.221       12.359        0.011      335.892        6.827      857.768
04/04/2014  04:55:00      -86.442      -65.953        9.521       33.378       48.813       25.048     1114.100     2382.660      627.427        0.802        0.206      108.729       22.791        0.044      335.824        6.714      857.778
04/04/2014  04:56:00     -142.183      -81.402        0.691       63.547       46.324       29.449     4038.235     2145.897      867.240        1.695        0.353      163.836       29.228        0.032      335.738        6.570      857.782
04/04/2014  04:57:00      -94.011     -109.209       -5.760       50.880       51.173       31.934     2588.735     2618.725     1019.805        1.351        0.311      144.100       24.559        0.029      335.728        6.555      857.769
04/04/2014  04:58:00      -87.077      -64.204        7.154       51.738       47.947       22.260     2676.819     2298.960      495.526        0.861        0.274      108.188       19.842        0.034      335.762        6.612      857.768
04/04/2014  04:59:00      -42.433      -74.414       10.556       47.302       48.199       30.228     2237.467     2323.183      913.756        0.646        0.274       85.662       27.590        0.104      335.763        6.615      857.770
04/04/2014  05:00:00      -42.802      -73.518        5.612       51.047       69.016       27.284     2605.769     4763.226      744.393        0.769        0.406       85.070       32.021        0.142      335.763        6.613      857.760
04/04/2014  05:01:00        6.915      -26.862       10.847       18.355       25.258       19.495      336.923      637.945      380.053        0.112        0.068       27.738       17.469        0.397      335.835        6.735      857.745
04/04/2014  05:02:00       -8.249      -17.820       15.603       19.661       24.386       19.201      386.557      594.670      368.689        0.099        0.067       19.636       12.425        0.400      335.881        6.811      857.745
04/04/2014  05:03:00      -28.580      -33.715        9.524       37.450       28.211       24.318     1402.500      795.833      591.386        0.242        0.139       44.199       21.741        0.242      335.829        6.724      857.751
04/04/2014  05:04:00       31.833       -2.084       -2.277       36.609       23.446       24.729     1340.234      549.736      611.527        0.176        0.125       31.901       18.402        0.333      335.801        6.677      857.754
04/04/2014  05:05:00      -14.374       18.705       40.439       19.164       22.675       19.616      367.241      514.150      384.786        0.173        0.063       23.589       15.042        0.407      335.733        6.565      857.760
04/04/2014  05:06:00      -11.004        6.070        2.212       18.659       30.516       23.091      348.151      931.228      533.214        0.099        0.091       12.567       20.969        2.784      335.684        6.484      857.766
04/04/2014  05:07:00      -30.423       -8.163       -2.031       22.377       21.164       22.089      500.725      447.897      487.915        0.122        0.072       31.499        8.969        0.081      335.686        6.487      857.762
04/04/2014  05:08:00       10.911        4.743       15.557       23.558       14.131       21.248      554.971      199.691      451.491        0.079        0.060       11.897       16.188        1.851      335.681        6.479      857.748
04/04/2014  05:09:00      -40.526       -6.927       -2.523       34.810       27.157       19.070     1211.712      737.521      363.650        0.200        0.116       41.114        7.145        0.030      335.720        6.543      857.742
04/04/2014  05:10:00      -27.033      -36.661        6.998       43.318       30.681       19.349     1876.465      941.333      374.387        0.266        0.160       45.550       16.725        0.135      335.781        6.645      857.744
04/04/2014  05:11:00      -90.565      -52.150       -0.412       54.665       37.151       20.030     2988.250     1380.186      401.187        0.784        0.238      104.507       20.889        0.040      335.669        6.456      857.741
04/04/2014  05:12:00      -77.799      -59.087      -13.233       33.216       30.056       20.146     1103.331      903.360      405.863        0.607        0.121       97.693       12.871        0.017      335.671        6.461      857.734
04/04/2014  05:13:00      -34.694      -13.545        4.019       26.933       17.504       15.801      725.360      306.384      249.685        0.134        0.064       37.244       16.507        0.196      335.703        6.515      857.722
04/04/2014  05:14:00      -24.576      -22.333        3.352       41.999       21.406       17.993     1763.876      458.196      323.764        0.183        0.127       33.207       21.852        0.433      335.713        6.532      857.711
04/04/2014  05:15:00       -6.087      -27.658        7.917       15.522       22.391       15.640      240.926      501.370      244.616        0.093        0.049       28.320       11.101        0.154      335.762        6.612      857.704
04/04/2014  05:16:00      -15.716      -32.711        8.890       22.645       24.272       15.957      512.796      589.152      254.637        0.138        0.068       36.290       11.368        0.098      335.700        6.509      857.700
04/04/2014  05:17:00      -46.827      -11.709       -1.447       20.207       20.074       12.181      408.310      402.974      148.382        0.165        0.048       48.268        9.674        0.040      335.677        6.470      857.703
04/04/2014  05:18:00      -16.244      -11.157        7.612       22.312       20.865       17.213      497.820      435.366      296.289        0.084        0.061       19.706       14.408        0.535      335.709        6.523      857.696
04/04/2014  05:19:00        5.166       30.390       33.379       13.388       18.906       21.506      179.235      357.421      462.492        0.153        0.050       30.826       16.785        0.296      335.653        6.429      857.682
04/04/2014  05:20:00        6.681       37.875       44.103       33.868       28.680       20.723     1147.061      822.534      429.451        0.291        0.120       38.460       19.584        0.259      335.632        6.394      857.673
04/04/2014  05:21:00        9.664       28.562       40.247       24.290       21.368       15.113      589.992      456.605      228.394        0.190        0.064       30.153       12.596        0.175      335.630        6.392      857.682
04/04/2014  05:22:00       34.604       33.907       35.158       21.553       22.935       24.390      464.541      526.035      594.883        0.258        0.079       48.447       12.370        0.065      335.425        6.049      857.682
04/04/2014  05:23:00       50.572       26.359        0.888       18.376       19.311       15.251      337.671      372.905      232.585        0.210        0.047       57.029        9.569        0.028      335.392        5.994      857.675
04/04/2014  05:24:00       28.195       15.118        1.851       23.680       15.501       10.301      560.755      240.293      106.113        0.097        0.045       31.992        6.367        0.040      335.363        5.946      857.671
04/04/2014  05:25:00       89.544       41.959        8.286       23.035       25.639       21.036      530.620      657.363      442.505        0.574        0.082       98.887       12.753        0.017      335.337        5.902      857.671
04/04/2014  05:26:00      107.125       60.998       33.275       38.158       34.594       30.740     1456.030     1196.735      944.923        0.995        0.180      123.274       20.279        0.027      335.416        6.034      857.659
04/04/2014  05:27:00       94.769       49.912       30.638       44.733       41.142       41.307     2001.010     1692.649     1706.277        0.890        0.270      107.109       30.526        0.081      335.363        5.945      857.647
04/04/2014  05:28:00       81.937       70.890       59.543       57.087       44.753       44.320     3258.929     2002.853     1964.245        1.125        0.361      108.347       23.886        0.049      335.362        5.943      857.635
04/04/2014  05:29:00       40.627       45.021       77.038       43.536       41.977       33.369     1895.425     1762.068     1113.467        0.719        0.239       60.642       19.267        0.101      335.418        6.038      857.636
04/04/2014  05:30:00       18.863       20.598       53.978       45.185       44.587       24.690     2041.649     1988.008      609.608        0.417        0.232       27.930       31.382        1.262      335.487        6.153      857.633
04/04/2014  05:31:00       30.047       16.727       35.895       41.006       25.420       25.874     1681.455      646.161      669.469        0.273        0.150       34.389       25.042        0.530      335.463        6.112      857.638
04/04/2014  05:32:00       19.490       -8.222       40.135       34.264       48.336       26.914     1174.035     2336.348      724.374        0.315        0.212       21.153       29.507        1.946      335.499        6.174      857.637
04/04/2014  05:33:00       20.049      -10.487       40.932       37.969       51.005       30.544     1441.636     2601.498      932.916        0.358        0.249       22.627       33.945        2.251      335.512        6.195      857.635
04/04/2014  05:34:00       35.177       18.742       44.407       43.772       45.022       35.141     1915.976     2026.968     1234.859        0.437        0.259       39.858       36.817        0.853      335.467        6.120      857.628
04/04/2014  05:35:00       42.881      -24.284       20.671       38.708       46.628       35.063     1498.335     2174.141     1229.394        0.388        0.245       49.280       39.304        0.636      335.473        6.129      857.617
04/04/2014  05:36:00       72.083      -61.251      -11.807       30.243       36.598       26.867      914.632     1339.440      721.820        0.603        0.149       94.592       22.696        0.058      335.504        6.181      857.610
04/04/2014  05:37:00       41.124      -29.436       19.305       43.300       45.067       40.491     1874.866     2031.038     1639.547        0.424        0.277       50.573       33.932        0.450      335.479        6.138      857.600
04/04/2014  05:38:00       38.174      -27.563       19.360       48.650       45.855       39.071     2366.810     2102.656     1526.557        0.429        0.300       47.085       34.704        0.543      335.462        6.112      857.593
04/04/2014  05:39:00       -1.197       -9.956       47.388       19.768       37.248       21.171      390.783     1387.420      448.212        0.229        0.111       10.027       10.134        1.021      335.527        6.220      857.593
04/04/2014  05:40:00       -4.300      -13.989       34.293       24.052       23.486       20.399      578.497      551.609      416.106        0.147        0.077       14.635       14.633        1.000      335.531        6.225      857.594
04/04/2014  05:41:00       -2.349        2.795       57.195       23.655       31.541       24.714      559.549      994.858      610.765        0.272        0.108        3.651       16.656       20.808      335.501        6.176      857.584
04/04/2014  05:42:00      -22.918        9.538       38.680       25.654       32.372       22.795      658.130     1047.969      519.610        0.217        0.111       24.823       14.930        0.362      335.514        6.200      857.582
04/04/2014  05:43:00       -3.066      -16.349       28.102       27.851       35.834       24.268      775.688     1284.088      588.924        0.186        0.132       16.634       21.221        1.628      335.543        6.246      857.578
04/04/2014  05:44:00        9.178        5.576       45.049       22.013       28.867       16.054      484.587      833.315      257.732        0.186        0.079       10.739        8.133        0.573      335.487        6.153      857.581
04/04/2014  05:45:00       30.802      -23.848       26.222       38.733       43.558       35.006     1500.224     1897.339     1225.451        0.341        0.231       38.955       29.814        0.586      335.435        6.067      857.579
04/04/2014  05:46:00       83.713      -89.096       -6.348       50.251       41.936       26.449     2525.114     1758.668      699.536        0.998        0.249      122.254       26.708        0.048      335.498        6.171      857.574
04/04/2014  05:47:00       54.975      -90.318      -18.562       29.771       36.586       24.305      886.323     1338.554      590.734        0.717        0.141      105.733       14.423        0.019      335.624        6.382      857.573
04/04/2014  05:48:00       37.108      -53.229      -10.892       38.152       46.430       27.936     1455.609     2155.786      780.437        0.436        0.220       64.887       19.510        0.090      335.555        6.268      857.571
04/04/2014  05:49:00       37.948      -24.966        8.456       28.847       27.445       31.763      832.156      753.249     1008.903        0.236        0.130       45.424       22.030        0.235      335.558        6.271      857.577
04/04/2014  05:50:00       18.333      -21.198       14.099       25.224       31.351       24.858      636.239      982.882      617.927        0.161        0.112       28.026       23.655        0.712      335.521        6.210      857.582
04/04/2014  05:51:00       68.333      -73.800      -19.136       35.178       33.754       23.761     1237.489     1139.358      564.590        0.671        0.147      100.578       16.061        0.026      335.484        6.149      857.581
04/04/2014  05:52:00        8.556       -5.894       28.684       16.051       25.375       24.338      257.630      643.906      592.325        0.121        0.075       10.390       11.488        1.223      335.501        6.178      857.588
04/04/2014  05:53:00       31.686      -45.064        4.440       26.278       43.978       24.685      690.507     1934.070      609.349        0.314        0.162       55.089       24.956        0.205      335.591        6.327      857.602
04/04/2014  05:54:00       30.096      -32.826       15.747       31.023       51.388       25.372      962.444     2640.719      643.744        0.324        0.212       44.535       30.984        0.484      335.515        6.200      857.611
04/04/2014  05:55:00       51.344      -70.035       -3.246       18.707       30.509       18.751      349.942      930.778      351.605        0.459        0.082       86.839        8.020        0.009      335.496        6.168      857.615
04/04/2014  05:56:00       15.876      -12.743       18.033       24.639       40.849       23.625      607.086     1668.659      558.147        0.179        0.142       20.357       27.227        1.789      335.514        6.198      857.615
04/04/2014  05:57:00       18.640        7.786       28.390       20.988       29.132       17.743      440.515      848.669      314.825        0.141        0.080       20.201       13.179        0.426      335.434        6.065      857.615
04/04/2014  05:58:00       18.226        9.144       37.885       26.984       33.875       20.475      728.112     1147.506      419.233        0.207        0.115       20.391       17.545        0.740      335.458        6.104      857.627
04/04/2014  05:59:00        3.812       17.493       46.279       22.640       32.317       22.864      512.565     1044.416      522.760        0.227        0.104       17.904       20.996        1.375      335.436        6.068      857.636
04/04/2014  06:00:00       -3.241       -6.259       13.067       12.183       22.934       13.539      148.434      525.946      183.307        0.054        0.043        7.049       15.280        4.699      335.436        6.068      857.645
04/04/2014  06:01:00      -10.067        7.245       17.344       18.403       17.016       14.786      338.654      289.542      218.635        0.065        0.042       12.402       15.039        1.470      335.402        6.011      857.649
04/04/2014  06:02:00       -2.700       -0.563       25.422       10.704       19.667       11.501      114.581      386.808      132.279        0.064        0.032        2.758        4.338        2.474      335.419        6.040      857.654
04/04/2014  06:03:00       15.164       18.765       18.224       19.509       27.649       19.467      380.620      764.493      378.957        0.122        0.076       24.126       15.416        0.408      335.374        5.964      857.649
04/04/2014  06:04:00        8.454       25.347       29.995       20.082       23.783       14.261      403.280      565.617      203.375        0.139        0.059       26.720        9.266        0.120      335.403        6.013      857.649
04/04/2014  06:05:00       -5.357       -4.239       22.676       16.221       22.931       17.898      263.105      525.839      320.326        0.083        0.055        6.832       16.589        5.896      335.462        6.111      857.650
04/04/2014  06:06:00       -5.480        5.957       29.156       11.219       16.721       10.167      125.870      279.582      103.360        0.071        0.025        8.094        5.317        0.432      335.455        6.101      857.647
04/04/2014  06:07:00      -11.365       -1.872       11.811       11.789       21.333       15.469      138.982      455.115      239.291        0.055        0.042       11.518       14.284        1.538      335.451        6.093      857.644
04/04/2014  06:08:00      -18.194       -1.931        3.129       16.545       12.233       10.562      273.739      149.642      111.562        0.044        0.027       18.296        7.872        0.185      335.341        5.908      857.638
04/04/2014  06:09:00       -5.990       15.310        4.287        9.513       10.771        9.910       90.491      116.010       98.214        0.030        0.015       16.440        3.960        0.058      335.360        5.942      857.630
04/04/2014  06:10:00      -11.007       21.998       -3.575       11.707       16.205       10.409      137.060      262.601      108.339        0.056        0.025       24.598        7.379        0.090      335.399        6.005      857.617
04/04/2014  06:11:00        6.888       12.088       12.291       17.210       15.696       12.672      296.171      246.361      160.587        0.052        0.035       13.913        9.126        0.430      335.425        6.050      857.608
04/04/2014  06:12:00       10.834       20.240       25.676       29.951       27.833       19.508      897.043      774.649      380.556        0.162        0.103       22.957       18.317        0.637      335.397        6.004      857.597
04/04/2014  06:13:00       15.130      -19.405       13.937       29.631       51.819       20.955      878.000     2685.194      439.126        0.240        0.200       24.606       22.739        0.854      335.399        6.005      857.587
04/04/2014  06:14:00       14.629       -4.748       24.039       23.096       21.953       20.656      533.423      481.954      426.653        0.113        0.072       15.380       10.253        0.444      335.433        6.063      857.582
04/04/2014  06:15:00       -2.153       25.118       52.915       21.749       30.425       16.566      472.998      925.687      274.419        0.255        0.084       25.210       17.754        0.496      335.423        6.045      857.578
04/04/2014  06:16:00       54.394      -43.084        5.631       44.540       68.098       44.243     1983.821     4637.357     1957.442        0.671        0.429       69.390       52.354        0.569      335.398        6.005      857.579
04/04/2014  06:17:00       18.120       -1.494       18.601       36.113       35.664       28.791     1304.129     1271.902      828.924        0.204        0.170       18.182       30.064        2.734      335.455        6.100      857.579
04/04/2014  06:18:00       -5.675      -19.059       23.654       26.089       22.030       18.684      680.632      485.306      349.097        0.123        0.076       19.886       11.686        0.345      335.470        6.122      857.588
04/04/2014  06:19:00      -24.738      -21.095        9.794       13.593       12.121        7.407      184.770      146.912       54.858        0.077        0.019       32.511        3.538        0.012      335.523        6.212      857.582
04/04/2014  06:20:00       -7.707       13.069       25.326       12.805       16.907       21.595      163.964      285.840      466.349        0.089        0.046       15.173       15.068        0.986      335.451        6.093      857.568
04/04/2014  06:21:00      -26.364       26.609       39.850       16.800       29.621       21.232      282.224      877.416      450.787        0.230        0.081       37.458       21.311        0.324      335.434        6.064      857.561
04/04/2014  06:22:00       -9.620       49.051       56.699       18.929       23.108       18.522      358.311      533.973      343.052        0.347        0.062       49.986        7.719        0.024      335.418        6.039      857.546
04/04/2014  06:23:00      -22.239       16.365       19.657       23.630       20.648       19.214      558.377      426.349      369.164        0.125        0.068       27.612       11.062        0.161      335.425        6.048      857.541
04/04/2014  06:24:00       -7.592       17.774       11.829        9.581       10.141       10.262       91.799      102.850      105.308        0.041        0.015       19.327        7.178        0.138      335.447        6.087      857.533
04/04/2014  06:25:00       -4.604       42.135        2.192       17.398       28.372       19.296      302.683      804.947      372.344        0.164        0.074       42.386       21.057        0.247      335.353        5.928      857.529
04/04/2014  06:26:00       -9.816       66.719       -3.599       17.785       23.500       19.889      316.314      552.241      395.563        0.291        0.063       67.437       12.419        0.034      335.304        5.847      857.533
04/04/2014  06:27:00      -26.341       45.642       -2.034       19.383       20.902       17.224      375.708      436.900      296.680        0.195        0.055       52.697        7.260        0.019      335.287        5.816      857.544
04/04/2014  06:28:00       -6.820       63.388       -5.910       17.969       20.227        9.678      322.900      409.145       93.671        0.246        0.041       63.754        7.328        0.013      335.295        5.833      857.552
04/04/2014  06:29:00      -14.285       26.431       -8.415       22.727       23.716        7.382      516.513      562.471       54.489        0.105        0.057       30.044        5.954        0.039      335.321        5.876      857.561
04/04/2014  06:30:00      -85.188       -5.159       -7.547       23.331       20.007       14.285      544.320      400.275      204.061        0.424        0.057       85.344       11.723        0.019      335.334        5.897      857.559
04/04/2014  06:31:00      -98.779        6.807       -0.960       40.644       32.579       21.596     1651.897     1061.393      466.402        0.649        0.159       99.013       21.415        0.047      335.240        5.740      857.557
04/04/2014  06:32:00      -93.708      -25.108        0.569       38.728       22.941       19.409     1499.845      526.309      376.700        0.591        0.120       97.014       21.105        0.047      335.220        5.709      857.557
04/04/2014  06:33:00      -91.125      -67.543        0.490       47.143       25.962       24.720     2222.442      674.021      611.081        0.819        0.175      113.428       21.660        0.036      335.298        5.838      857.565
04/04/2014  06:34:00     -112.560      -51.166      -10.240       39.464       22.252       20.620     1557.371      495.138      425.185        0.893        0.124      123.643       20.276        0.027      335.280        5.808      857.575
04/04/2014  06:35:00      -80.318       -6.930       -1.825       42.828       29.865       20.811     1834.276      891.924      433.090        0.483        0.158       80.616       23.839        0.087      335.274        5.797      857.566
04/04/2014  06:36:00     -102.429        0.982       -9.583       32.716       21.349       16.225     1070.365      455.799      263.239        0.619        0.089      102.434       14.723        0.021      335.256        5.767      857.563
04/04/2014  06:37:00     -100.298        4.987       -6.216       23.774       16.187       10.206      565.205      262.014      104.170        0.553        0.047      100.422       12.012        0.014      335.305        5.848      857.556
04/04/2014  06:38:00      -50.347       -5.536        1.330       22.231       11.683        9.054      494.236      136.494       81.976        0.164        0.036       50.651       12.110        0.057      335.270        5.789      857.560
04/04/2014  06:39:00      -41.631      -35.971       -9.250       13.058       11.398       10.941      170.506      129.925      119.715        0.177        0.021       55.019        8.951        0.026      335.378        5.974      857.566
04/04/2014  06:40:00      -20.237      -40.478        6.027       14.515       13.837       13.482      210.673      191.459      181.753        0.133        0.029       45.255       10.073        0.050      335.451        6.093      857.579
04/04/2014  06:41:00       -5.310       -7.827        6.555       17.679       21.508        9.703      312.562      462.614       94.140        0.050        0.043        9.458        5.455        0.333      335.407        6.018      857.592
04/04/2014  06:42:00        7.995       13.023       19.017       10.530        7.160        9.959      110.891       51.267       99.180        0.043        0.013       15.281        3.354        0.048      335.379        5.974      857.598
04/04/2014  06:43:00        5.175        7.062       11.735       11.058        7.429        5.366      122.282       55.192       28.795        0.021        0.010        8.755        2.186        0.062      335.425        6.050      857.596
04/04/2014  06:44:00       11.732       24.379        6.520        7.803        6.544        7.730       60.885       42.823       59.758        0.047        0.008       27.055        5.210        0.037      335.412        6.024      857.596
04/04/2014  06:45:00        8.183       28.303       -2.441        8.731       10.266        6.553       76.236      105.396       42.938        0.055        0.011       29.462        2.997        0.010      335.397        6.003      857.600
04/04/2014  06:46:00        2.486       10.484       -3.250        3.527        5.337        3.642       12.441       28.485       13.266        0.009        0.003       10.774        2.039        0.036      335.390        5.992      857.612
04/04/2014  06:47:00       -2.473        4.447        5.096        3.021        4.123        5.477        9.129       17.003       29.993        0.005        0.003        5.088        3.222        0.401      335.461        6.112      857.613
04/04/2014  06:48:00      -10.210        5.440        7.418        5.509        5.059        5.487       30.353       25.595       30.111        0.014        0.004       11.569        4.104        0.126      335.478        6.138      857.610
04/04/2014  06:49:00       -2.891        6.995        2.064        6.210        5.363        7.882       38.560       28.765       62.130        0.010        0.006        7.569        5.353        0.500      335.414        6.026      857.616
04/04/2014  06:50:00      -21.299       -2.167       -4.612       12.450        6.439        7.167      155.012       41.466       51.361        0.036        0.012       21.409        6.620        0.096      335.377        5.969      857.617
04/04/2014  06:51:00      -27.459        5.669       -4.059        7.322        7.381        4.724       53.618       54.486       22.315        0.047        0.007       28.038        3.193        0.013      335.369        5.956      857.621
04/04/2014  06:52:00      -41.360       14.389       -8.041        9.510        6.144        6.473       90.450       37.750       41.904        0.108        0.009       43.792        3.426        0.006      335.224        5.714      857.619
04/04/2014  06:53:00      -23.164        4.037       -4.188        9.932        5.436        4.709       98.650       29.552       22.171        0.036        0.008       23.513        5.980        0.065      335.172        5.627      857.624
04/04/2014  06:54:00      -46.415       10.352       -8.099       18.224       19.279        9.509      332.100      371.681       90.415        0.156        0.040       47.555        8.908        0.035      335.144        5.583      857.626
04/04/2014  06:55:00      -62.686        5.093      -10.025       20.728       15.227       11.126      429.639      231.874      123.782        0.242        0.039       62.893        6.186        0.010      335.163        5.614      857.630
04/04/2014  06:56:00      -58.916        3.982      -11.051       17.214       19.691       10.154      296.334      387.717      103.111        0.220        0.039       59.051        5.069        0.007      335.105        5.519      857.636
04/04/2014  06:57:00      -57.207       -7.489       -3.396       23.031       10.475       13.892      530.439      109.723      192.996        0.209        0.042       57.695       11.105        0.037      335.061        5.446      857.641
04/04/2014  06:58:00      -55.391        3.371       -4.961       22.536       19.986       14.390      507.860      399.450      207.069        0.211        0.056       55.494       14.225        0.066      335.066        5.455      857.648
04/04/2014  06:59:00      -41.375        2.616       -0.270       26.607       12.365       12.232      707.923      152.893      149.621        0.136        0.051       41.457       15.647        0.142      335.058        5.439      857.656
04/04/2014  07:00:00      -45.747        6.518       -2.598       24.539       12.892       10.908      602.154      166.194      118.994        0.151        0.044       46.209        8.824        0.036      335.067        5.456      857.664
04/04/2014  07:01:00      -53.372        6.506        2.083       21.429       10.187       12.069      459.181      103.785      145.664        0.180        0.035       53.767        9.126        0.029      335.054        5.434      857.677
04/04/2014  07:02:00      -61.634       20.548       -7.824       12.764       10.286        9.699      162.931      105.794       94.064        0.232        0.018       64.969        4.658        0.005      335.104        5.517      857.688
04/04/2014  07:03:00      -39.950        1.657       -1.172       18.631       12.521        7.215      347.127      156.779       52.051        0.108        0.028       39.984        7.892        0.039      335.123        5.549      857.696
04/04/2014  07:04:00      -38.313       -4.416       -1.358       14.288       11.640        8.193      204.154      135.485       67.133        0.095        0.020       38.567        8.266        0.046      335.095        5.502      857.703
04/04/2014  07:05:00      -29.536      -18.919       -0.443       13.587        7.711        7.630      184.610       59.457       58.214        0.077        0.015       35.076        3.781        0.012      335.063        5.451      857.712
04/04/2014  07:06:00       -7.750       -1.616       -4.252        5.094        5.056        5.105       25.953       25.560       26.062        0.008        0.004        7.917        3.543        0.200      335.040        5.410      857.725
04/04/2014  07:07:00      -10.107       -8.219       -6.235        8.503        5.054        4.592       72.297       25.545       21.083        0.016        0.006       13.027        5.149        0.156      335.118        5.540      857.736
04/04/2014  07:08:00      -15.342       -0.343        3.658        9.774        6.003        7.169       95.536       36.042       51.392        0.022        0.009       15.346        5.911        0.148      335.177        5.637      857.752
04/04/2014  07:09:00      -21.307        1.629        2.119        5.153        5.171        6.587       26.552       26.739       43.391        0.028        0.005       21.369        3.942        0.034      335.179        5.640      857.763
04/04/2014  07:10:00       -0.293        6.482       -0.696        8.911        8.980        7.241       79.411       80.634       52.430        0.013        0.011        6.489        5.954        0.842      335.230        5.723      857.767
04/04/2014  07:11:00       -1.993       -0.079       -0.841        7.115        5.467        6.539       50.617       29.884       42.756        0.006        0.006        1.995        5.042        6.390      335.271        5.792      857.761
04/04/2014  07:12:00      -41.216       -4.417       -5.892       11.693        5.218        4.845      136.729       27.225       23.474        0.097        0.009       41.452        3.211        0.006      335.159        5.607      857.761
04/04/2014  07:13:00      -53.953      -14.272       -5.138       14.366       10.172        7.767      206.377      103.460       60.324        0.176        0.019       55.809        5.812        0.011      335.058        5.440      857.768
04/04/2014  07:14:00      -59.556      -11.641       -3.853       31.097       18.888       17.589      967.027      356.743      309.376        0.266        0.082       60.683       12.286        0.041      334.941        5.247      857.773
04/04/2014  07:15:00      -49.923      -12.053        7.113       36.828       31.528       22.099     1356.271      994.029      488.350        0.276        0.142       51.358       21.623        0.177      334.910        5.194      857.780
04/04/2014  07:16:00     -123.011       -2.752       -2.008       46.474       27.963       19.284     2159.797      781.947      371.862        0.923        0.166      123.042       22.234        0.033      334.813        5.034      857.797
04/04/2014  07:17:00     -141.938       -5.749      -16.683       38.245       28.666       17.814     1462.669      821.767      317.350        1.153        0.130      142.055       17.296        0.015      334.788        4.992      857.796
04/04/2014  07:18:00     -152.538        5.272      -17.315       30.526       19.841       15.251      931.855      393.649      232.582        1.258        0.078      152.629       13.344        0.008      334.753        4.932      857.802
04/04/2014  07:19:00     -137.734       32.473      -15.849       36.603       24.309       18.721     1339.772      590.942      350.467        1.128        0.114      141.510       15.261        0.012      334.827        5.057      857.805
04/04/2014  07:20:00     -140.280       32.627      -11.725       31.103       20.178       15.540      967.377      407.156      241.489        1.125        0.081      144.024        9.974        0.005      334.820        5.043      857.801
04/04/2014  07:21:00     -121.573       24.877      -11.424       25.749       20.366       16.523      662.998      414.789      273.012        0.844        0.068      124.092       10.326        0.007      334.813        5.033      857.789
04/04/2014  07:22:00     -145.651       15.910      -17.445       18.995       21.622       15.459      360.821      467.529      238.969        1.142        0.053      146.517        7.975        0.003      334.905        5.187      857.784
04/04/2014  07:23:00     -113.545        6.568      -17.934       39.632       37.099       18.454     1570.716     1376.355      340.546        0.827        0.164      113.735       19.248        0.029      334.918        5.208      857.783
04/04/2014  07:24:00      -87.334        3.828       -7.875       21.824       24.087       19.362      476.297      580.161      374.880        0.457        0.072       87.418       14.756        0.028      334.893        5.166      857.784
04/04/2014  07:25:00     -106.479      -20.090      -11.824       20.779       23.672       19.200      431.757      560.359      368.626        0.662        0.068      108.357       15.276        0.020      334.935        5.236      857.788
04/04/2014  07:26:00     -117.379       -0.374      -15.575       29.026       30.487       14.869      842.538      929.474      221.094        0.801        0.100      117.380        6.289        0.003      334.908        5.190      857.784
04/04/2014  07:27:00     -132.915      -15.835      -16.629       16.309       21.999       15.088      265.979      483.959      227.639        0.959        0.049      133.855        6.826        0.003      334.828        5.057      857.786
04/04/2014  07:28:00      -94.855       -9.483       -4.489       35.584       29.613       20.479     1266.202      876.902      419.388        0.583        0.128       95.328       18.318        0.037      334.845        5.086      857.785
04/04/2014  07:29:00      -98.175       -4.886       -9.215       35.846       26.469       19.407     1284.970      700.601      376.627        0.605        0.118       98.296       18.326        0.035      334.856        5.105      857.791
04/04/2014  07:30:00     -106.056        1.338       -8.131       37.276       23.900       18.173     1389.517      571.203      330.251        0.680        0.115      106.064       18.636        0.031      334.829        5.059      857.799
04/04/2014  07:31:00     -122.623       13.323       -8.207       23.879       21.034       19.529      570.199      442.423      381.398        0.834        0.070      123.345       12.479        0.010      334.926        5.221      857.804
04/04/2014  07:32:00     -128.462       10.483      -16.509       30.874       22.483       15.928      953.175      505.502      253.700        0.930        0.086      128.889       11.806        0.008      335.002        5.347      857.806
04/04/2014  07:33:00      -97.215      -11.135       -6.040       23.727       26.562       20.285      562.954      705.553      411.499        0.565        0.084       97.850       13.951        0.020      335.006        5.355      857.812
04/04/2014  07:34:00     -108.436      -29.430      -12.284       25.611       21.432       22.651      655.905      459.344      513.060        0.720        0.081      112.359       15.870        0.020      335.023        5.383      857.810
04/04/2014  07:35:00      -69.417       -3.690       -7.720       28.408       21.617       16.130      806.989      467.289      260.166        0.321        0.077       69.515       11.866        0.029      335.039        5.409      857.811
04/04/2014  07:36:00      -81.897       -2.034      -13.848       20.830       20.840       12.517      433.883      434.304      156.668        0.396        0.051       81.922        4.651        0.003      335.111        5.528      857.818
04/04/2014  07:37:00      -69.652      -26.424       -9.326       23.905       22.833       12.331      571.447      521.350      152.060        0.344        0.062       74.495       10.884        0.021      335.117        5.540      857.822
04/04/2014  07:38:00      -72.633      -25.426       -6.248       19.032       19.110       13.531      362.200      365.196      183.088        0.344        0.046       76.954        5.798        0.006      335.130        5.562      857.830
04/04/2014  07:39:00      -60.317      -10.238       -8.753       16.176       22.775       10.531      261.663      518.714      110.898        0.236        0.045       61.179        8.297        0.018      335.145        5.585      857.834
04/04/2014  07:40:00      -50.057       -5.019       -4.890       26.471       16.849       12.594      700.720      283.901      158.617        0.185        0.057       50.308       12.436        0.061      335.165        5.617      857.840
04/04/2014  07:41:00      -53.380        0.394       -2.774       24.187       14.010       15.002      585.030      196.268      225.061        0.193        0.050       53.382       14.924        0.078      335.174        5.632      857.851
04/04/2014  07:42:00      -46.916        4.102       -4.444       19.201       13.864        9.891      368.681      192.201       97.827        0.145        0.033       47.095        8.474        0.032      335.177        5.637      857.849
04/04/2014  07:43:00      -70.477       12.295       -5.132       17.750       11.795       10.039      315.063      139.122      100.776        0.285        0.028       71.541        6.737        0.009      335.184        5.649      857.848
04/04/2014  07:44:00      -65.873        2.003       -6.166       16.869       12.879       10.477      284.549      165.860      109.767        0.247        0.028       65.904        9.200        0.019      335.201        5.676      857.836
04/04/2014  07:45:00      -56.418       -2.858       -1.794       16.632       11.170       13.222      276.614      124.769      174.831        0.189        0.029       56.491       11.505        0.041      335.209        5.689      857.835
04/04/2014  07:46:00      -37.061        4.732        2.143       23.451       12.177        9.714      549.960      148.273       94.365        0.110        0.040       37.362        8.891        0.057      335.250        5.759      857.830
04/04/2014  07:47:00      -72.263       17.599       -0.577       13.913       12.935       12.538      193.580      167.311      157.193        0.302        0.026       74.375        9.085        0.015      335.253        5.763      857.827
04/04/2014  07:48:00      -53.752        8.752       -3.257       13.846       13.584       13.843      191.698      184.514      191.617        0.177        0.028       54.460        8.542        0.025      335.278        5.804      857.831
04/04/2014  07:49:00      -22.937      -12.124        1.236       13.342       11.266        8.455      178.020      126.931       71.487        0.053        0.019       25.944        7.667        0.087      335.333        5.896      857.832
04/04/2014  07:50:00      -30.848       -5.487       -0.550       15.196       13.188        8.197      230.921      173.929       67.197        0.073        0.024       31.332        6.596        0.044      335.341        5.909      857.831
04/04/2014  07:51:00      -51.408       -4.954       -2.852       10.507       13.330        7.687      110.404      177.700       59.095        0.151        0.017       51.647        4.361        0.007      335.354        5.932      857.838
04/04/2014  07:52:00      -61.187      -12.217       -1.384       19.456       16.474       11.076      378.522      271.391      122.678        0.233        0.039       62.395        8.691        0.019      335.316        5.866      857.823
04/04/2014  07:53:00      -76.377       -4.668      -11.457        9.750        8.337        7.814       95.068       69.498       61.062        0.311        0.011       76.519        4.123        0.003      335.291        5.824      857.827
04/04/2014  07:54:00      -72.331        4.084       -7.887       10.926       11.535       10.591      119.368      133.063      112.175        0.284        0.018       72.446        5.612        0.006      335.294        5.829      857.820
04/04/2014  07:55:00      -73.143        7.342       -6.513       10.001       10.609       10.023      100.026      112.557      100.460        0.288        0.016       73.510        6.005        0.007      335.300        5.839      857.818
04/04/2014  07:56:00      -54.622      -13.841       -4.472       12.239       20.422       11.821      149.787      417.076      139.732        0.195        0.035       56.349        8.082        0.021      335.341        5.910      857.825
04/04/2014  07:57:00      -57.712      -17.255       -7.046       10.494       11.063        9.601      110.133      122.379       92.172        0.200        0.016       60.236        3.465        0.003      335.376        5.969      857.833
04/04/2014  07:58:00      -60.891        2.366       -7.078       13.437        9.997        8.228      180.555       99.934       67.696        0.206        0.017       60.937        3.277        0.003      335.366        5.951      857.846
04/04/2014  07:59:00      -69.236       -0.386       -5.535       10.334        7.157        7.714      106.783       51.222       59.505        0.252        0.011       69.238        5.623        0.007      335.366        5.951      857.849
04/04/2014  08:00:00      -55.903        6.710       -0.414       17.195       12.255       11.785      295.667      150.176      138.879        0.188        0.029       56.304       10.777        0.037      335.400        6.007      857.862
04/04/2014  08:01:00      -55.710       14.490       -3.695       12.652        4.952        6.267      160.077       24.525       39.273        0.178        0.011       57.563        6.652        0.013      335.413        6.031      857.867
04/04/2014  08:02:00      -19.188       15.822        4.558       12.938        8.940       11.342      167.402       79.928      128.638        0.051        0.019       24.870       10.701        0.185      335.548        6.256      857.871
04/04/2014  08:03:00      -24.663       20.679        4.634       13.488       10.669       12.344      181.928      113.830      152.385        0.075        0.022       32.185        9.993        0.096      335.599        6.340      857.874
04/04/2014  08:04:00      -21.494        9.514       -4.151       11.233        8.074        4.172      126.184       65.190       17.407        0.039        0.010       23.505        3.590        0.023      335.482        6.148      857.864
04/04/2014  08:05:00        0.577      -10.769        4.445        4.151       10.621        8.314       17.234      112.796       69.127        0.017        0.010       10.784        6.255        0.336      335.736        6.568      857.862
04/04/2014  08:06:00        6.090       -6.911        4.338       13.984       13.297       12.724      195.565      176.818      161.898        0.032        0.027        9.212       11.765        1.631      335.656        6.436      857.846
04/04/2014  08:07:00       13.431        9.114        6.609        9.578        7.334        9.783       91.736       53.789       95.703        0.027        0.012       16.231        5.659        0.122      335.684        6.482      857.834
04/04/2014  08:08:00       21.403        3.741       -4.514       14.558       12.209       11.539      211.944      149.058      133.151        0.049        0.025       21.728        8.627        0.158      335.566        6.287      857.816
04/04/2014  08:09:00       -4.602       27.460        1.534       20.046       27.785       13.558      401.827      772.027      183.823        0.107        0.068       27.843       16.522        0.352      335.685        6.486      857.809
04/04/2014  08:10:00       -5.350       47.129       -7.803       16.722       22.486       11.920      279.635      505.616      142.076        0.162        0.046       47.431       10.633        0.050      335.670        6.458      857.810
04/04/2014  08:11:00       -0.225       64.035      -13.247       19.925       19.778       11.160      397.023      391.170      124.540        0.259        0.046       64.036        6.208        0.009      335.616        6.370      857.809
04/04/2014  08:12:00       -6.954       51.899        5.814       18.349       27.588       18.416      336.701      761.113      339.139        0.211        0.072       52.362       13.679        0.068      335.834        6.730      857.804
04/04/2014  08:13:00       85.878       48.771       10.019       29.949       26.355       22.643      896.946      694.609      512.699        0.598        0.105       98.760        7.321        0.005      335.794        6.665      857.796
04/04/2014  08:14:00       77.103       53.701        9.148       16.218       22.836       20.535      263.008      521.482      421.668        0.506        0.060       93.961        6.867        0.005      335.791        6.661      857.784
04/04/2014  08:15:00       46.265       17.257       11.999       27.764       19.451       16.168      770.839      378.343      261.413        0.200        0.071       49.379       14.664        0.088      335.744        6.582      857.774
04/04/2014  08:16:00       48.630       33.486       -1.289       18.758       17.226       13.924      351.869      296.745      193.889        0.217        0.042       59.044       11.354        0.037      335.739        6.574      857.770
04/04/2014  08:17:00       20.404       75.593      -14.758       27.929       39.830       20.937      780.004     1586.457      438.354        0.458        0.140       78.299       19.281        0.061      335.753        6.597      857.762
04/04/2014  08:18:00       68.203       53.304       23.679       44.247       28.718       28.209     1957.839      824.722      795.765        0.582        0.179       86.562       11.563        0.018      335.966        6.951      857.762
04/04/2014  08:19:00       90.682       20.596       25.717       64.623       44.749       41.993     4176.069     2002.492     1763.394        0.862        0.397       92.991       45.012        0.234      335.849        6.756      857.744
04/04/2014  08:20:00       75.216       87.139       32.586       67.820       39.335       51.436     4599.612     1547.226     2645.672        1.155        0.440      115.112       50.718        0.194      335.887        6.820      857.731
04/04/2014  08:21:00      161.477       94.987       -6.771       28.672       25.447       22.143      822.103      647.525      490.328        1.855        0.098      187.342       11.390        0.004      335.623        6.379      857.729
04/04/2014  08:22:00       90.011       69.149       -6.618       36.843       26.984       23.369     1357.373      728.142      546.133        0.778        0.132      113.506       20.938        0.034      335.687        6.487      857.720
04/04/2014  08:23:00       86.526       39.563      -10.757       38.600       24.102       22.672     1489.925      580.889      514.026        0.588        0.129       95.142        7.397        0.006      335.889        6.823      857.728
04/04/2014  08:24:00       82.161       65.483       54.279       39.805       49.178       41.801     1584.413     2418.479     1747.357        0.987        0.288      105.064       34.194        0.106      335.972        6.962      857.729
04/04/2014  08:25:00      131.064       80.070       28.090       53.744       42.311       42.967     2888.400     1790.258     1846.154        1.545        0.326      153.587       34.148        0.049      335.984        6.980      857.723
04/04/2014  08:26:00       92.023       78.452        2.860       79.388       54.494       34.334     6302.497     2969.649     1178.801        1.254        0.523      120.925       21.193        0.031      335.776        6.633      857.732
04/04/2014  08:27:00       47.266      141.378      -16.170       37.246       51.318       38.846     1387.236     2633.583     1508.986        1.401        0.276      149.070       33.900        0.052      335.737        6.570      857.734
04/04/2014  08:28:00       82.253       65.503       24.071       71.364       37.593       36.383     5092.824     1413.223     1323.687        0.973        0.391      105.148       31.446        0.089      335.891        6.827      857.725
04/04/2014  08:29:00       72.996      109.067        4.548       75.741       84.801       47.201     5736.744     7191.190     2227.966        1.620        0.758      131.241       41.307        0.099      335.893        6.829      857.732
04/04/2014  08:30:00       17.814      151.456      -14.649       54.236       70.924       40.757     2941.528     5030.176     1661.154        1.655        0.482      152.500       43.833        0.083      335.805        6.683      857.734
04/04/2014  08:31:00       48.750      141.268      -15.860       71.064       63.538       32.157     5050.123     4037.051     1034.041        1.635        0.506      149.443       25.989        0.030      335.834        6.732      857.731
04/04/2014  08:32:00       73.600       92.895       -3.245       52.778       49.353       39.339     2785.548     2435.699     1547.526        1.041        0.338      118.517       33.830        0.081      335.988        6.988      857.724
04/04/2014  08:33:00       74.128       92.813      -11.159       50.601       46.125       37.982     2560.454     2127.541     1442.602        1.018        0.307      118.782       29.089        0.060      335.854        6.765      857.727
04/04/2014  08:34:00       80.884       58.871       10.130       47.462       27.587       30.212     2252.679      761.047      912.780        0.702        0.196      100.040       15.840        0.025      335.845        6.749      857.729
04/04/2014  08:35:00      102.185       68.528       21.356       59.786       50.530       35.270     3574.330     2553.291     1243.951        1.148        0.369      123.036       19.059        0.024      335.993        6.997      857.717
04/04/2014  08:36:00        8.232       23.590       23.881       39.121       33.071       29.345     1530.479     1093.708      861.142        0.234        0.174       24.986       17.900        0.513      336.162        7.279      857.722
04/04/2014  08:37:00      103.211       80.716       26.226       47.816       48.175       43.843     2286.415     2320.812     1922.227        1.219        0.326      131.025       12.946        0.010      335.986        6.983      857.715
04/04/2014  08:38:00       73.006       73.790       36.033       37.543       28.490       29.589     1409.450      811.665      875.521        0.758        0.155      103.802       20.824        0.040      335.954        6.932      857.719
04/04/2014  08:39:00       69.188       67.661       47.206       54.785       38.212       34.629     3001.410     1460.122     1199.136        0.863        0.283       96.773       36.819        0.145      336.128        7.221      857.719
04/04/2014  08:40:00       15.190       28.715       28.013       50.169       40.836       26.671     2516.913     1667.572      711.335        0.337        0.245       32.485       29.429        0.821      336.336        7.570      857.708
04/04/2014  08:41:00       75.773       50.580       16.230       68.646       32.015       33.005     4712.330     1024.936     1089.323        0.769        0.341       91.104       33.238        0.133      336.126        7.218      857.703
04/04/2014  08:42:00       52.102       19.454       10.165       56.479       42.322       28.189     3189.838     1791.152      794.609        0.448        0.289       55.615       14.171        0.065      336.212        7.363      857.698
04/04/2014  08:43:00      132.267       86.131       10.098       31.642       27.003       27.687     1001.245      729.188      766.576        1.376        0.125      157.839       16.244        0.011      335.846        6.751      857.696
04/04/2014  08:44:00       87.745       70.755        0.721       38.263       38.093       37.222     1464.071     1451.044     1385.497        0.850        0.215      112.718       26.212        0.054      335.907        6.853      857.695
04/04/2014  08:45:00       29.222       30.150       35.112       38.925       29.433       22.847     1515.140      866.272      521.987        0.295        0.145       41.988       18.426        0.193      336.294        7.498      857.690
04/04/2014  08:46:00       32.603       38.617       62.102       41.326       44.307       36.485     1707.835     1963.093     1331.125        0.571        0.250       50.539       33.390        0.436      336.308        7.523      857.685
04/04/2014  08:47:00        4.799      112.074      128.771       33.160       57.877       34.427     1099.563     3349.747     1185.207        1.740        0.282      112.177       31.086        0.077      336.050        7.091      857.666
04/04/2014  08:48:00      105.924       86.886       89.311       51.712       61.585       53.697     2674.160     3792.721     2883.393        1.805        0.468      137.000       50.793        0.137      335.905        6.849      857.665
04/04/2014  08:49:00       87.806       17.713       50.483       41.457       64.780       37.366     1718.675     4196.506     1396.204        0.894        0.366       89.575       40.017        0.200      336.005        7.017      857.657
04/04/2014  08:50:00       24.960       39.581       53.143       48.449       30.348       20.899     2347.315      920.998      436.755        0.436        0.185       46.794       21.339        0.208      336.446        7.753      857.652
04/04/2014  08:51:00       51.396       61.189       86.394       40.085       46.163       28.555     1606.809     2131.038      815.403        0.920        0.228       79.910       22.381        0.078      336.273        7.462      857.635
04/04/2014  08:52:00       65.260       63.234       70.208       47.734       37.269       39.780     2278.576     1388.987     1582.460        0.922        0.263       90.870       32.306        0.126      336.035        7.066      857.631
04/04/2014  08:53:00       88.466       36.963       36.096       49.224       38.427       38.719     2422.964     1476.650     1499.153        0.795        0.270       95.878       30.722        0.103      336.066        7.119      857.610
04/04/2014  08:54:00       52.136        0.056       28.455       40.873       55.688       30.304     1670.578     3101.108      918.357        0.461        0.285       52.136       28.532        0.299      336.087        7.153      857.596
04/04/2014  08:55:00       91.578      100.641       98.874       40.451       37.066       26.897     1636.260     1373.891      723.474        1.601        0.187      136.070       16.807        0.015      336.075        7.134      857.577
04/04/2014  08:56:00       78.329       66.575       65.880       53.707       72.231       50.983     2884.480     5217.347     2599.252        1.280        0.535      102.799       55.691        0.293      336.121        7.211      857.585
04/04/2014  08:57:00       45.583       68.106       79.673       68.014       69.262       55.779     4625.847     4797.190     3111.253        1.280        0.627       81.952       54.961        0.450      336.363        7.615      857.591
04/04/2014  08:58:00      111.525       96.849       51.838       35.818       34.040       41.934     1282.921     1158.691     1758.500        1.435        0.210      147.707       30.231        0.042      336.038        7.071      857.597
04/04/2014  08:59:00      110.584       83.806       38.495       26.268       31.948       41.832      690.023     1020.677     1749.936        1.210        0.173      138.753       27.654        0.040      336.009        7.024      857.596
04/04/2014  09:00:00       67.735       52.507        8.280       19.020       12.519       20.789      361.747      156.728      432.190        0.418        0.048       85.703       11.819        0.019      335.962        6.944      857.591
04/04/2014  09:01:00       54.241       56.781       30.827       50.169       36.748       48.238     2516.930     1350.442     2326.897        0.665        0.310       78.525       40.952        0.272      336.434        7.734      857.582
04/04/2014  09:02:00       72.078       78.907       80.874       58.796       46.615       35.128     3456.951     2172.921     1233.964        1.241        0.343      106.872       36.574        0.117      336.323        7.547      857.594
04/04/2014  09:03:00       60.169       65.770       53.827       41.719       38.375       32.739     1740.453     1472.648     1071.862        0.756        0.214       89.140       18.901        0.045      336.484        7.817      857.591
04/04/2014  09:04:00       -7.700      -29.679       48.902       24.717       57.255       39.886      610.914     3278.184     1590.875        0.440        0.274       30.662       29.621        0.933      336.923        8.550      857.584
04/04/2014  09:05:00        7.923       53.053       59.522       30.173       42.157       20.391      910.386     1777.183      415.807        0.476        0.155       53.641       18.278        0.116      336.800        8.346      857.580
04/04/2014  09:06:00       84.617       51.001       15.079       59.566       40.543       41.197     3548.152     1643.742     1697.204        0.844        0.344       98.799       32.358        0.107      336.527        7.887      857.585
04/04/2014  09:07:00      105.710       74.686       -2.067       48.930       51.647       38.272     2394.187     2667.399     1464.743        1.164        0.326      129.431       28.439        0.048      336.371        7.628      857.585
04/04/2014  09:08:00        9.269       23.324       14.813       20.559       24.145       22.739      422.665      582.986      517.046        0.119        0.076       25.098       16.448        0.429      336.890        8.496      857.574
04/04/2014  09:09:00       45.984       34.950       24.539       25.386       26.018       22.115      644.470      676.922      489.055        0.287        0.091       57.758       11.826        0.042      336.508        7.858      857.567
04/04/2014  09:10:00       63.644       41.068       24.089       74.272       36.573       28.797     5516.401     1337.558      829.256        0.700        0.384       75.744       12.099        0.026      336.748        8.258      857.569
04/04/2014  09:11:00       61.884       81.599       64.084       66.089       63.878       51.986     4367.821     4080.360     2702.492        1.287        0.558      102.411       30.927        0.091      336.637        8.072      857.571
04/04/2014  09:12:00       51.925       33.859       52.193       49.782       43.853       30.893     2478.218     1923.089      954.351        0.596        0.268       61.989       13.648        0.048      336.477        7.805      857.570
04/04/2014  09:13:00       41.410       44.957       60.110       43.341       63.510       40.579     1878.463     4033.577     1646.655        0.745        0.378       61.122       40.885        0.447      336.627        8.056      857.556
04/04/2014  09:14:00       16.550      -19.022       47.591       31.901       66.641       31.705     1017.682     4440.960     1005.192        0.468        0.323       25.214       11.319        0.202      336.939        8.575      857.550
04/04/2014  09:15:00       84.391       63.900       21.909       61.375       38.923       36.132     3766.861     1515.006     1305.526        0.913        0.329      105.854       19.603        0.034      336.470        7.792      857.543
04/04/2014  09:16:00      136.347       61.786       30.562       63.150       43.345       46.433     3987.906     1878.812     2156.002        1.568        0.401      149.693       31.375        0.044      336.558        7.942      857.530
04/04/2014  09:17:00       67.238       98.019       48.548       97.052       45.154       51.698     9419.041     2038.848     2672.673        1.531        0.707      118.864       56.829        0.229      336.703        8.182      857.526
04/04/2014  09:18:00       95.964       76.770       -5.729       43.345       30.754       30.784     1878.804      945.789      947.641        0.945        0.189      122.893       17.930        0.021      336.310        7.526      857.544
04/04/2014  09:19:00       17.432       19.072        0.046       33.451       25.568       22.415     1118.978      653.727      502.414        0.147        0.114       25.838       23.668        0.839      336.545        7.919      857.532
04/04/2014  09:20:00      111.485       65.481        7.941       56.787       33.957       31.733     3224.731     1153.097     1007.012        1.108        0.269      129.293       24.505        0.036      336.282        7.479      857.530
04/04/2014  09:21:00       95.278      124.546      114.319       70.281       50.899       50.485     4939.451     2590.731     2548.761        2.387        0.504      156.811       50.275        0.103      336.368        7.622      857.521
04/04/2014  09:22:00       29.520       46.612       34.706       51.620       30.181       28.042     2664.643      910.907      786.351        0.430        0.218       55.174       31.446        0.325      336.557        7.939      857.529
04/04/2014  09:23:00        4.845       26.279       46.734       23.708       35.454       20.186      562.088     1256.967      407.470        0.256        0.111       26.721       17.150        0.412      336.889        8.493      857.512
04/04/2014  09:24:00       20.388       32.620       32.729       24.500       31.084       20.439      600.254      966.216      417.752        0.227        0.099       38.468       17.502        0.207      336.757        8.274      857.511
04/04/2014  09:25:00       58.275       54.532       45.897       56.324       41.550       41.968     3172.418     1726.426     1761.316        0.757        0.333       79.811       37.904        0.226      336.825        8.388      857.524
04/04/2014  09:26:00       74.886       69.162       24.974       70.044       49.687       49.277     4906.219     2468.755     2428.185        1.041        0.490      101.938       32.966        0.105      336.871        8.463      857.525
04/04/2014  09:27:00       76.488      112.455        2.490       57.914       59.952       55.289     3354.017     3594.286     3056.911        1.425        0.500      136.002       40.153        0.087      336.589        7.992      857.538
04/04/2014  09:28:00       72.710       39.293       -6.116       51.529       48.117       35.782     2655.234     2315.267     1280.360        0.656        0.313       82.648       26.002        0.099      336.355        7.601      857.555
04/04/2014  09:29:00       81.949       71.962       -3.420       26.734       45.589       25.543      714.726     2078.350      652.442        0.768        0.172      109.061       19.892        0.033      336.323        7.546      857.563
04/04/2014  09:30:00        0.235       59.116      -12.875       28.120       45.417       24.107      790.757     2062.693      581.162        0.355        0.172       59.117       17.404        0.087      336.424        7.717      857.573
04/04/2014  09:31:00       66.649       32.465        9.846       64.160       38.775       22.389     4116.478     1503.539      501.259        0.586        0.306       74.136       10.969        0.022      336.592        7.997      857.567
04/04/2014  09:32:00       72.928       65.027       11.945       52.508       44.112       43.212     2757.066     1945.848     1867.254        0.813        0.329       97.709       34.652        0.126      336.697        8.173      857.569
04/04/2014  09:33:00        6.491      117.832      -20.190       37.879       51.127       29.231     1434.790     2613.961      854.435        0.962        0.245      118.011       21.399        0.033      336.483        7.816      857.584
04/04/2014  09:34:00      -35.285       52.185        6.830       45.278       45.698       31.545     2050.065     2088.338      995.074        0.457        0.257       62.995       32.219        0.262      336.980        8.645      857.590
04/04/2014  09:35:00       22.233       36.194       24.094       35.898       34.984       27.545     1288.667     1223.893      758.750        0.283        0.164       42.477       23.359        0.302      337.429        9.396      857.606
04/04/2014  09:36:00      132.822       63.921       23.115       86.153       41.550       43.904     7422.423     1726.423     1927.552        1.667        0.554      147.402       25.849        0.031      336.635        8.068      857.614
04/04/2014  09:37:00      130.973       97.267       38.289       94.406       65.492       78.487     8912.449     4289.150     6160.167        2.372        0.968      163.140       58.852        0.130      336.542        7.912      857.610
04/04/2014  09:38:00       -0.015       95.460       13.253       46.845       67.164       43.095     2194.472     4511.034     1857.156        0.892        0.428       95.460       31.890        0.112      336.877        8.473      857.636
04/04/2014  09:39:00      -39.583      107.859      -14.470       20.138       34.388       24.941      405.523     1182.545      622.036        0.781        0.111      114.893       11.338        0.010      336.415        7.702      857.655
04/04/2014  09:40:00      -17.346       50.995       14.689       22.304       32.927       25.570      497.470     1084.161      653.833        0.268        0.112       53.864       21.946        0.166      337.263        9.119      857.651
04/04/2014  09:41:00        4.541       24.328        8.389       22.308       34.084       22.652      497.652     1161.747      513.102        0.143        0.109       24.748       22.777        0.847      337.237        9.075      857.646
04/04/2014  09:42:00       16.334        2.601       39.834       41.192       45.505       27.438     1696.751     2070.735      752.865        0.319        0.226       16.540       17.173        1.078      337.393        9.336      857.653
04/04/2014  09:43:00       27.789      -58.359       20.569       40.587       90.101       52.721     1647.317     8118.146     2779.523        0.857        0.627       64.637       41.687        0.416      336.992        8.667      857.656
04/04/2014  09:44:00      -51.752        9.838        8.969       39.874       33.459       20.208     1589.945     1119.536      408.358        0.299        0.156       52.679       25.756        0.239      336.664        8.117      857.659
04/04/2014  09:45:00      -65.892       13.575       -7.237       27.185       28.320       22.557      739.034      802.002      508.806        0.331        0.102       67.275       17.509        0.068      336.626        8.054      857.655
04/04/2014  09:46:00      -18.135      -16.459       21.171       40.071       30.612       25.971     1605.647      937.092      674.470        0.213        0.161       24.490       29.519        1.453      337.439        9.415      857.654
04/04/2014  09:47:00      -13.255      -34.781       15.043       26.846       38.047       22.814      720.697     1447.566      520.482        0.215        0.134       37.221       18.478        0.246      337.276        9.141      857.650
04/04/2014  09:48:00      -17.396      -22.976       13.151       17.917       31.029       22.961      321.018      962.827      527.192        0.141        0.091       28.819       17.023        0.349      337.260        9.115      857.652
04/04/2014  09:49:00      -96.754      -36.633       -8.228       48.953       41.693       24.802     2396.422     1738.266      615.146        0.776        0.237      103.456       10.635        0.011      336.833        8.400      857.657
04/04/2014  09:50:00     -147.818      -41.965       -4.817       51.769       32.911       24.029     2680.021     1083.165      577.415        1.399        0.217      153.659       20.884        0.018      336.521        7.879      857.650
04/04/2014  09:51:00        3.171      -75.448        4.240       58.155       69.974       37.933     3382.001     4896.404     1438.877        0.772        0.486       75.514       41.149        0.297      336.874        8.468      857.655
04/04/2014  09:52:00      -57.689      -75.369      -22.802       58.288       42.941       25.027     3397.519     1843.926      626.359        0.770        0.293       94.913       28.110        0.088      336.677        8.139      857.646
04/04/2014  09:53:00      -46.882        9.656       17.656       40.780       31.194       24.658     1663.023      973.086      607.996        0.292        0.162       47.866       20.526        0.184      337.228        9.061      857.633
04/04/2014  09:54:00       33.519      -46.707       18.862       52.453       42.154       31.348     2751.363     1776.971      982.726        0.458        0.276       57.489       24.521        0.182      337.089        8.829      857.634
04/04/2014  09:55:00      -33.322      -23.952       10.893       38.102       27.938       18.874     1451.796      780.559      356.220        0.220        0.129       41.037       19.865        0.234      336.976        8.639      857.634
04/04/2014  09:56:00      -33.554       17.944       16.006       19.575       20.242       18.346      383.189      409.721      336.584        0.142        0.056       38.051       13.503        0.126      337.185        8.989      857.636
04/04/2014  09:57:00        9.398       12.512       39.283       28.528       43.832       29.677      813.862     1921.223      880.722        0.270        0.181       15.649       18.260        1.362      337.922       10.224      857.632
04/04/2014  09:58:00       56.315      -17.004       59.122       65.160      104.424       59.009     4245.836    10904.466     3482.057        1.279        0.932       58.826       64.904        1.217      337.388        9.328      857.634
04/04/2014  09:59:00       56.418     -168.115      -26.825      119.004       92.562       54.362    14162.010     8567.697     2955.177        2.892        1.284      177.329       50.162        0.080      337.183        8.982      857.595
04/04/2014  10:00:00      136.001       93.465       42.670      105.750       74.851       67.080    11183.165     5602.718     4499.663        2.516        1.064      165.021       44.148        0.072      337.316        9.207      857.609
04/04/2014  10:01:00        8.967       73.106      -13.483       36.399       53.248       34.820     1324.913     2835.315     1212.446        0.549        0.269       73.654       18.935        0.066      337.404        9.356      857.628
04/04/2014  10:02:00       50.212       12.547       60.970       86.182       75.291       67.835     7427.300     5668.684     4601.609        1.204        0.885       51.756       57.109        1.218      337.711        9.869      857.624
04/04/2014  10:03:00      120.768       86.513       72.776       91.709       66.062       54.921     8410.482     4364.131     3016.344        2.158        0.790      148.558       55.341        0.139      336.809        8.359      857.621
04/04/2014  10:04:00       63.217       67.600       58.694       70.096       48.451       72.535     4913.455     2347.482     5261.358        1.226        0.626       92.554       66.184        0.511      336.908        8.524      857.607
04/04/2014  10:05:00       20.645       33.057       55.082       46.416       41.759       25.832     2154.402     1743.821      667.315        0.456        0.228       38.974       17.877        0.210      337.243        9.087      857.604
04/04/2014  10:06:00        9.011       23.384       34.089       39.212       35.521       37.543     1537.601     1261.773     1409.509        0.300        0.210       25.060       23.811        0.903      337.363        9.286      857.611
04/04/2014  10:07:00     -100.168      -47.562       -5.630      129.096       80.760       33.254    16665.782     6522.123     1105.855        1.831        1.215      110.887       28.240        0.065      336.950        8.594      857.618
04/04/2014  10:08:00     -129.696     -126.771       -3.762       96.001       53.158       46.962     9216.132     2825.767     2205.424        2.357        0.712      181.361       45.062        0.062      336.792        8.331      857.609
04/04/2014  10:09:00     -138.981      -95.158       11.595       99.356       65.852       40.885     9871.626     4336.508     1671.571        2.219        0.794      168.436       39.481        0.055      336.830        8.394      857.599
04/04/2014  10:10:00      -93.202      -65.415        7.078       87.938       52.657       39.198     7733.138     2772.765     1536.460        1.253        0.602      113.867       33.494        0.087      336.838        8.409      857.600
04/04/2014  10:11:00     -103.528      -86.085        6.519       62.008       55.586       32.399     3845.049     3089.769     1049.677        1.308        0.399      134.643       35.404        0.069      336.841        8.414      857.588
04/04/2014  10:12:00     -118.613     -138.953        0.687       53.961       58.416       32.102     2911.752     3412.455     1030.535        2.036        0.368      182.694       33.217        0.033      336.669        8.125      857.593
04/04/2014  10:13:00     -177.914     -102.348       -4.958       65.273       75.026       39.838     4260.530     5628.841     1587.062        2.681        0.574      205.252       44.822        0.048      336.550        7.924      857.590
04/04/2014  10:14:00     -112.824     -108.819       -1.981       69.102       60.270       36.178     4775.117     3632.417     1308.879        1.714        0.486      156.751       34.866        0.049      336.820        8.378      857.587
04/04/2014  10:15:00     -125.153     -103.760        9.454       68.634       59.838       38.570     4710.621     3580.588     1487.607        1.815        0.489      162.572       37.826        0.054      336.761        8.279      857.592
04/04/2014  10:16:00     -134.193      -79.912       -4.689       55.272       45.228       37.589     3054.987     2045.586     1412.957        1.546        0.326      156.185       29.843        0.037      336.688        8.157      857.599
04/04/2014  10:17:00      -47.322      -18.731      -20.647       22.012       14.656       11.511      484.511      214.809      132.509        0.192        0.042       50.894        8.654        0.029      336.655        8.102      857.606
04/04/2014  10:18:00      -54.382       -6.944      -11.648       11.356       26.440       12.321      128.954      699.070      151.814        0.206        0.049       54.824        8.132        0.022      336.735        8.238      857.606
04/04/2014  10:19:00      -66.042      -13.904       -4.379       30.629       28.125       16.527      938.164      791.003      273.131        0.329        0.100       67.489        8.565        0.016      336.869        8.459      857.607
04/04/2014  10:20:00      -53.083      -46.234       -4.832       40.831       25.539       22.239     1667.157      652.243      494.581        0.390        0.141       70.395       16.318        0.054      336.812        8.364      857.620
04/04/2014  10:21:00      -44.904      -18.636       -1.172       44.700       43.917       27.423     1998.058     1928.722      752.022        0.352        0.234       48.617       27.199        0.313      336.958        8.610      857.603
04/04/2014  10:22:00      -35.353      -20.802       -6.838       25.724       37.116       16.504      661.731     1377.599      272.366        0.202        0.116       41.019        9.746        0.056      336.952        8.598      857.598
04/04/2014  10:23:00      -26.675        0.416        5.851       31.389       22.843       23.564      985.290      521.797      555.272        0.140        0.103       26.679       17.181        0.415      337.627        9.728      857.599
04/04/2014  10:24:00       -1.813      -70.979        8.254       75.935       47.132       31.702     5766.069     2221.383     1005.010        0.705        0.450       71.002       22.607        0.101      337.329        9.229      857.596
04/04/2014  10:25:00     -146.450      -18.037       -3.190       66.129       61.932       34.184     4373.097     3835.560     1168.512        1.558        0.469      147.557       28.320        0.037      336.970        8.628      857.591
04/04/2014  10:26:00      -56.148       22.796        7.356       65.181       33.260       36.258     4248.621     1106.211     1314.656        0.520        0.333       60.599       37.934        0.392      337.306        9.192      857.577
04/04/2014  10:27:00      -64.911      -18.656        8.910       54.967       52.755       22.655     3021.414     2783.129      513.227        0.548        0.316       67.539       20.782        0.095      337.205        9.022      857.574
04/04/2014  10:28:00      -97.819      -26.236       -1.132       54.099       57.184       26.819     2926.708     3270.049      719.243        0.859        0.346      101.276       20.628        0.041      337.079        8.811      857.560
04/04/2014  10:29:00      -83.101      -41.847       11.186       60.242       31.328       26.683     3629.114      981.424      711.960        0.705        0.266       93.043       28.246        0.092      337.250        9.097      857.563
04/04/2014  10:30:00      -63.251      -23.731       -4.637       36.780       46.320       22.157     1352.766     2145.550      490.933        0.429        0.199       67.556       21.243        0.099      336.844        8.419      857.569
04/04/2014  10:31:00      -34.847       -1.421      -14.710       19.474       11.132       13.454      379.246      123.916      181.004        0.106        0.034       34.876        5.936        0.029      336.916        8.540      857.555
04/04/2014  10:32:00      -35.270       -2.326        4.155       32.092       20.378       24.870     1029.875      415.259      618.492        0.166        0.103       35.347       22.067        0.390      337.081        8.816      857.543
04/04/2014  10:33:00      -52.337       11.198       -0.520       30.002       19.470       19.993      900.107      379.065      399.704        0.227        0.084       53.522       19.765        0.136      337.184        8.988      857.518
04/04/2014  10:34:00      -25.577        7.876       40.903       29.028       30.242       44.295      842.623      914.583     1962.011        0.305        0.186       26.762       31.024        1.344      337.702        9.854      857.511
04/04/2014  10:35:00       35.866       79.878      109.337       59.320       74.760       49.866     3518.807     5589.098     2486.614        1.561        0.580       87.561       47.310        0.292      337.488        9.495      857.487
04/04/2014  10:36:00       84.023       92.089      120.948       91.928       86.620       56.556     8450.822     7503.048     3198.531        2.466        0.958      124.660       48.103        0.149      337.276        9.138      857.469
04/04/2014  10:37:00      185.249      122.358       69.199       82.096       66.661       60.361     6739.701     4443.659     3643.427        3.445        0.741      222.010       49.138        0.049      336.991        8.659      857.450
04/04/2014  10:38:00       77.326       44.770       58.971       98.133       58.620       59.154     9630.019     3436.358     3499.156        1.401        0.828       89.351       44.009        0.243      337.208        9.026      857.450
04/04/2014  10:39:00       34.800       58.856       13.649       67.077       63.675       40.068     4499.332     4054.470     1605.455        0.751        0.508       68.375       34.326        0.252      337.498        9.512      857.451
04/04/2014  10:40:00       54.773       76.561       -5.718       46.709       58.350       36.893     2181.711     3404.778     1361.124        0.792        0.347       94.136       26.197        0.077      337.291        9.166      857.435
04/04/2014  10:41:00       29.743      134.213      -20.443       30.062       49.664       30.633      903.723     2466.508      938.383        1.181        0.215      137.469       21.754        0.025      337.047        8.758      857.433
04/04/2014  10:42:00      -25.044      211.927      -13.162       43.017       87.530       42.146     1850.483     7661.500     1776.286        2.850        0.564      213.401       44.647        0.044      337.203        9.016      857.419
04/04/2014  10:43:00       -7.273      247.167      -29.652       29.474       33.609       17.755      868.736     1129.578      315.231        3.217        0.116      247.274        6.811        0.001      336.779        8.307      857.413
04/04/2014  10:44:00      -30.771       71.991       -1.684       33.092       77.915       27.706     1095.059     6070.803      767.631        0.703        0.397       78.291       29.007        0.137      337.278        9.146      857.425
04/04/2014  10:45:00      -32.991       71.795        3.738       46.103       83.854       35.133     2125.449     7031.490     1234.331        0.832        0.520       79.012       41.478        0.276      337.753        9.940      857.412
04/04/2014  10:46:00       -3.796      157.043       -8.815       45.646       58.971       34.799     2083.556     3477.578     1210.945        1.576        0.339      157.089       29.279        0.035      337.319        9.213      857.412
04/04/2014  10:47:00       34.876       17.101       11.285       58.827       50.888       29.898     3460.572     2589.597      893.878        0.429        0.347       38.843       24.363        0.393      337.561        9.619      857.406
04/04/2014  10:48:00      -23.027      113.369      -10.393       31.361       75.087       29.898      983.521     5637.987      893.862        1.050        0.376      115.684       32.222        0.078      337.472        9.469      857.390
04/04/2014  10:49:00      -31.499       33.043       37.450       68.287       58.410       40.334     4663.112     3411.719     1626.861        0.659        0.485       45.651       32.165        0.496      337.865       10.128      857.397
04/04/2014  10:50:00       -9.228      132.685      -16.968       48.581       46.645       30.202     2360.125     2175.748      912.170        1.171        0.272      133.006       24.339        0.033      337.400        9.349      857.398
04/04/2014  10:51:00       15.325       84.680       -6.878       27.551       51.463       36.866      759.071     2648.394     1359.098        0.611        0.238       86.055       29.611        0.118      337.504        9.522      857.392
04/04/2014  10:52:00       27.308      -22.802       -4.018       21.138       48.355       24.413      446.796     2338.191      595.996        0.233        0.169       35.576       14.614        0.169      337.213        9.035      857.394
04/04/2014  10:53:00       -1.363      -79.211      -13.616       24.345       25.129       22.089      592.675      631.481      487.930        0.409        0.086       79.222       11.132        0.020      337.073        8.801      857.373
04/04/2014  10:54:00       10.556     -111.176       16.593       51.792       45.913       35.552     2682.408     2107.982     1263.954        0.940        0.303      111.676       32.338        0.084      337.054        8.770      857.352
04/04/2014  10:55:00      -88.722       34.031       -2.705       80.889       55.214       29.891     6543.078     3048.544      893.496        0.976        0.524       95.025       37.084        0.152      337.655        9.774      857.339
04/04/2014  10:56:00      -30.905       48.522       10.709       49.509       75.844       38.397     2451.094     5752.337     1474.354        0.655        0.484       57.528       41.076        0.510      338.003       10.360      857.331
04/04/2014  10:57:00      -58.709       36.387        6.389       45.439       61.321       37.761     2064.741     3760.297     1425.870        0.603        0.363       69.071       15.496        0.050      337.952       10.274      857.313
04/04/2014  10:58:00      -55.234       13.909       -1.988       44.798       56.805       27.072     2006.844     3226.811      732.918        0.461        0.298       56.958       27.241        0.229      337.781        9.987      857.297
04/04/2014  10:59:00      -95.562      -11.484        1.889       48.263       45.897       35.552     2329.363     2106.494     1263.939        0.748        0.285       96.249       23.616        0.060      337.820       10.053      857.271
04/04/2014  11:00:00     -127.014       22.861      -16.262       64.818       62.960       34.142     4201.379     3963.967     1165.676        1.312        0.467      129.055       33.059        0.066      337.621        9.718      857.248
04/04/2014  11:01:00      -83.772       47.405      -20.283       80.573       66.226       43.959     6492.041     4385.819     1932.408        1.124        0.641       96.254       32.949        0.117      338.021       10.389      857.232
04/04/2014  11:02:00     -211.218       22.574      -26.587       79.474       71.162       36.310     6316.149     5063.993     1318.439        2.926        0.635      212.421       40.014        0.035      337.495        9.504      857.214
04/04/2014  11:03:00     -271.031       36.711      -42.144       58.442       42.725       25.773     3415.450     1825.463      664.236        4.124        0.295      273.506       22.658        0.007      337.068        8.788      857.208
04/04/2014  11:04:00     -179.025        6.628      -22.457       55.862       43.552       27.312     3120.579     1896.777      745.947        1.918        0.288      179.148       27.668        0.024      337.206        9.022      857.187
04/04/2014  11:05:00       -5.350      -63.366      -16.612       77.769       57.791       36.234     6048.056     3339.854     1312.888        0.751        0.535       63.592       28.377        0.199      337.721        9.887      857.159
04/04/2014  11:06:00      -51.336       -7.219        5.462       34.726       42.186       23.307     1205.883     1779.679      543.209        0.312        0.176       51.841       16.425        0.100      337.716        9.879      857.169
04/04/2014  11:07:00        7.412      -83.599      -25.890       54.900       60.315       37.387     3014.040     3637.879     1397.795        0.788        0.402       83.927       24.611        0.086      337.764        9.960      857.166
04/04/2014  11:08:00       34.492     -110.076      -11.855       62.086       77.690       46.152     3854.666     6035.781     2130.031        1.273        0.601      115.353       39.136        0.115      338.081       10.490      857.155
04/04/2014  11:09:00       46.104      -66.184        4.103       76.045       89.313       61.122     5782.793     7976.831     3735.957        1.201        0.875       80.659       53.196        0.435      338.376       10.985      857.135
04/04/2014  11:10:00      147.994     -211.303      -40.862       89.310       80.087       53.216     7976.236     6413.914     2831.974        4.272        0.861      257.975       48.324        0.035      337.665        9.790      857.113
04/04/2014  11:11:00       47.546      -69.091       25.280       63.221       94.310       75.582     3996.842     8894.388     5712.608        1.313        0.930       83.871       59.956        0.511      338.118       10.552      857.111
04/04/2014  11:12:00       52.751     -145.582      -25.927       75.120       69.109       51.499     5642.986     4776.066     2652.152        1.886        0.654      154.845       41.941        0.073      337.788        9.999      857.100
04/04/2014  11:13:00      105.985     -165.121      -27.550       93.635      110.593       70.141     8767.442    12230.892     4919.738        3.258        1.296      196.209       74.719        0.145      337.887       10.161      857.093
04/04/2014  11:14:00       75.600      -48.796       35.524       76.542      123.738       56.221     5858.701    15311.028     3160.765        1.684        1.217       89.980       76.792        0.728      337.713        9.873      857.090
04/04/2014  11:15:00       12.585      -31.682       25.395       50.347       72.123       56.724     2534.839     5201.717     3217.655        0.638        0.548       34.091       46.316        1.846      338.557       11.289      857.062
04/04/2014  11:16:00      -26.319      -49.098       26.000       73.471       57.414       44.471     5398.016     3296.377     1977.714        0.722        0.534       55.707       41.323        0.550      338.456       11.120      857.026
04/04/2014  11:17:00      -62.062      -65.803       10.798       74.930       57.509       36.246     5614.554     3307.270     1313.778        0.926        0.512       90.453       39.544        0.191      337.950       10.270      857.008
04/04/2014  11:18:00      -76.877      -82.566        0.888       48.955       54.205       31.283     2396.635     2938.141      978.648        0.952        0.316      112.815       19.516        0.030      337.717        9.880      857.009
04/04/2014  11:19:00     -146.572      -19.390       -2.602       49.082       39.060       24.335     2409.055     1525.683      592.211        1.320        0.226      147.849       22.964        0.024      337.696        9.843      857.009
04/04/2014  11:20:00     -162.531      -55.824      -13.887       75.690       45.253       31.165     5728.948     2047.845      971.268        1.924        0.437      171.851       24.962        0.021      337.684        9.824      857.002
04/04/2014  11:21:00       19.529       35.980        5.475       27.646       49.002       36.140      764.299     2401.223     1306.098        0.309        0.224       40.939       19.910        0.237      337.888       10.167      856.993
04/04/2014  11:22:00       10.859        7.435       -7.642       36.191       32.044       21.365     1309.755     1026.823      456.451        0.151        0.140       13.161       20.886        2.519      338.235       10.749      856.961
04/04/2014  11:23:00     -145.425        0.050       -8.040       99.469       69.513       38.117     9894.130     4832.056     1452.905        1.869        0.809      145.425       29.736        0.042      338.146       10.598      856.950
04/04/2014  11:24:00      -93.464       55.008        6.826       76.074       62.216       42.740     5787.268     3870.882     1826.684        1.164        0.574      108.450       40.710        0.141      338.434       11.082      856.936
04/04/2014  11:25:00     -110.223        1.534       11.966      101.386       49.706       53.800    10279.153     2470.695     2894.482        1.397        0.782      110.233       54.720        0.246      338.334       10.915      856.918
04/04/2014  11:26:00     -211.424      -71.966      -14.151       79.905       52.070       32.570     6384.772     2711.262     1060.810        3.012        0.508      223.337       27.619        0.015      337.736        9.909      856.912
04/04/2014  11:27:00     -148.630        6.072      -32.887      103.252       54.384       39.616    10660.910     2957.645     1569.392        1.920        0.759      148.754       25.581        0.030      337.608        9.695      856.903
04/04/2014  11:28:00       19.709       33.455       17.198       44.172       99.418       42.259     1951.131     9883.956     1785.802        0.771        0.681       38.829       27.494        0.501      338.118       10.554      856.880
04/04/2014  11:29:00      -14.786       34.760       17.170       61.033       43.817       47.414     3725.038     1919.917     2248.115        0.481        0.395       37.774       22.535        0.356      338.409       11.040      856.862
04/04/2014  11:30:00      -23.672      -99.442       -2.609       55.919       76.082       31.691     3126.935     5788.476     1004.340        1.019        0.496      102.220       25.730        0.063      337.902       10.190      856.850
04/04/2014  11:31:00     -176.594     -139.642       -5.992      117.782       94.338       51.741    13872.561     8899.583     2677.125        3.808        1.272      225.134       53.860        0.057      337.913       10.208      856.826
04/04/2014  11:32:00     -118.090     -100.342        9.242      111.684       87.355       53.524    12473.265     7630.820     2864.849        2.353        1.148      154.964       51.576        0.111      338.038       10.417      856.821
04/04/2014  11:33:00     -195.741     -121.083       -3.668      109.078       76.310       41.579    11897.931     5823.275     1728.849        3.622        0.973      230.164       43.108        0.035      337.829       10.064      856.810
04/04/2014  11:34:00     -207.133     -147.724       -8.911      112.467       89.795       53.790    12648.900     8063.176     2893.391        4.420        1.180      254.414       56.575        0.049      337.769        9.963      856.781
04/04/2014  11:35:00     -124.158     -148.010       -3.873       75.500       77.291       37.267     5700.233     5973.967     1388.794        2.520        0.653      193.189       32.571        0.028      337.657        9.776      856.784
04/04/2014  11:36:00      -44.464      -58.226       16.387       84.412       60.977       41.822     7125.399     3718.200     1749.089        0.911        0.630       73.262       47.261        0.416      338.447       11.106      856.769
04/04/2014  11:37:00     -164.600      -37.770       -3.301      109.220       59.306       37.846    11928.938     3517.159     1432.308        2.270        0.844      168.878       37.981        0.051      337.873       10.139      856.746
04/04/2014  11:38:00     -103.041       52.140        8.100       80.245       70.470       36.999     6439.227     4965.967     1368.921        1.309        0.639      115.482       39.469        0.117      338.398       11.021      856.717
04/04/2014  11:39:00      -35.590       50.312       22.492       69.559       62.062       41.112     4838.436     3851.658     1690.201        0.734        0.519       61.628       36.333        0.348      338.792       11.685      856.691
04/04/2014  11:40:00      -71.737       87.319       -2.314       77.168       90.891       47.597     5954.840     8261.109     2265.438        1.463        0.824      113.008       57.494        0.259      338.663       11.467      856.661
04/04/2014  11:41:00     -122.587       79.167       -6.466       58.269       59.412       50.476     3395.314     3529.743     2547.870        1.540        0.474      145.928       37.474        0.066      338.235       10.748      856.662
04/04/2014  11:42:00      -90.120       27.421        2.813       87.726       66.613       33.412     7695.850     4437.344     1116.388        1.106        0.662       94.199       45.143        0.230      338.164       10.628      856.690
04/04/2014  11:43:00     -180.542      -86.503      -27.567       98.925       54.340       34.112     9786.117     2952.878     1163.648        2.737        0.695      200.195       33.327        0.028      338.164       10.627      856.670
04/04/2014  11:44:00       -7.626      -77.106      -11.241      116.699       72.763       44.463    13618.628     5294.489     1976.976        1.351        1.045       77.483       36.070        0.217      338.658       11.458      856.638
04/04/2014  11:45:00      -15.711     -136.641       -2.180       78.331      100.036       50.830     6135.730    10007.155     2583.737        1.882        0.936      137.542       41.729        0.092      338.825       11.739      856.633
04/04/2014  11:46:00      -42.475     -243.669      -16.449       63.200      118.903       47.321     3994.228    14137.873     2239.252        4.091        1.019      247.344       42.277        0.029      337.952       10.273      856.654
04/04/2014  11:47:00      -43.170      -27.289       -4.528       34.851       43.581       32.319     1214.617     1899.297     1044.499        0.339        0.208       51.072       10.724        0.044      338.099       10.521      856.650
04/04/2014  11:48:00      -51.231      -66.563        6.834       51.263       39.285       35.046     2627.941     1543.327     1228.241        0.625        0.270       83.995       18.259        0.047      338.429       11.075      856.649
04/04/2014  11:49:00      -64.883      -25.897       -8.293       56.163       36.536       25.329     3154.314     1334.867      641.554        0.504        0.257       69.860       24.334        0.121      338.026       10.399      856.625
04/04/2014  11:50:00     -131.550      -44.927      -13.782       72.934       57.562       33.196     5319.325     3313.429     1101.963        1.462        0.487      139.011       31.429        0.051      338.029       10.403      856.612
04/04/2014  11:51:00      -84.756       18.543      -24.057       62.931       32.388       22.007     3960.252     1048.978      484.310        0.680        0.275       86.761       20.467        0.056      337.906       10.196      856.604
04/04/2014  11:52:00       25.407       56.129        1.256       51.387       71.420       28.517     2640.673     5100.818      813.230        0.617        0.428       61.611       18.103        0.086      338.384       10.999      856.588
04/04/2014  11:53:00       34.372       48.259       35.013       46.236       54.471       47.955     2137.769     2967.143     2299.692        0.607        0.370       59.249       30.745        0.269      338.829       11.746      856.579
04/04/2014  11:54:00      158.189      -25.589       63.390      134.831      109.847       73.967    18179.390    12066.290     5471.081        3.270        1.786      160.245       74.393        0.216      338.510       11.209      856.568
04/04/2014  11:55:00       46.720       29.114      111.588       84.017      133.251       87.255     7058.875    17755.898     7613.411        2.395        1.621       55.049       89.884        2.666      338.691       11.513      856.546
04/04/2014  11:56:00      109.825       49.856       45.576       77.252      138.929       68.514     5967.860    19301.263     4694.113        2.329        1.498      120.612       76.601        0.403      338.146       10.598      856.571
04/04/2014  11:57:00     -123.640       31.356      -28.149       68.406       46.024       36.960     4679.327     2118.231     1366.015        1.261        0.408      127.555       29.145        0.052      337.935       10.244      856.543
04/04/2014  11:58:00      -62.585       45.506      -25.498       53.551       50.824       28.791     2867.760     2583.124      828.942        0.646        0.314       77.381        3.746        0.002      337.996       10.349      856.499
04/04/2014  11:59:00      -17.119      -20.812        4.924       51.622       37.333       27.440     2664.811     1393.773      752.971        0.278        0.241       26.949       24.809        0.848      338.291       10.843      856.487
04/04/2014  12:00:00       -0.728      -47.188       14.618       51.861       37.534       28.236     2689.513     1408.796      797.278        0.367        0.245       47.194       20.757        0.193      338.615       11.386      856.473
04/04/2014  12:01:00      -14.547      -53.711       -2.285       45.477       47.804       32.810     2068.142     2285.191     1076.504        0.426        0.271       55.646       25.763        0.214      338.590       11.345      856.452
04/04/2014  12:02:00      -34.087      -28.962       -2.136       41.535       27.674       23.788     1725.143      765.852      565.869        0.253        0.153       44.730       22.632        0.256      338.703       11.534      856.433
04/04/2014  12:03:00       56.359      -96.765       -0.095      102.941      106.969       46.026    10596.861    11442.315     2118.353        1.834        1.208      111.981       49.297        0.194      339.009       12.048      856.403
04/04/2014  12:04:00       25.439      -85.907       12.128       71.777       53.729       42.355     5151.909     2886.806     1793.948        0.900        0.492       89.594       30.560        0.116      339.014       12.059      856.380
04/04/2014  12:05:00       45.394      -77.266       20.097       74.684       84.845       56.562     5577.761     7198.714     3199.269        1.220        0.799       89.614       49.499        0.305      339.237       12.433      856.395
04/04/2014  12:06:00      172.790     -200.892      -25.566      133.806      216.037       91.250    17904.119    46672.193     8326.648        7.187        3.645      264.980      123.275        0.216      338.786       11.672      856.404
04/04/2014  12:07:00      142.565     -151.313      -14.411      123.676      173.772       89.668    15295.832    30196.545     8040.268        4.847        2.677      207.895      121.446        0.341      338.398       11.021      856.423
04/04/2014  12:08:00       54.716       59.574       71.302       71.280       83.169       93.056     5080.856     6917.065     8659.361        1.614        1.033       80.888       52.777        0.426      338.201       10.691      856.456
04/04/2014  12:09:00      -24.579      -25.769       10.501       47.132       63.203       32.826     2221.450     3994.568     1077.537        0.433        0.365       35.611       20.324        0.326      338.519       11.224      856.436
04/04/2014  12:10:00      -12.976       36.420       53.085       30.573       42.926       53.537      934.717     1842.633     2866.194        0.498        0.282       38.663       40.179        1.080      338.738       11.594      856.437
04/04/2014  12:11:00       -4.779       90.554      121.736       59.763       98.284       77.563     3571.625     9659.755     6016.071        2.114        0.962       90.680       75.990        0.702      338.477       11.155      856.422
04/04/2014  12:12:00       -6.964      -51.386        0.855       43.820       45.216       31.442     1920.206     2044.498      988.620        0.382        0.248       51.856       34.252        0.436      338.190       10.673      856.420
04/04/2014  12:13:00        6.118     -126.275       -1.359       66.207       60.409       39.632     4383.426     3649.292     1570.723        1.279        0.480      126.423       33.372        0.070      338.615       11.387      856.404
04/04/2014  12:14:00       62.029     -155.528      -12.608       56.360       60.397       38.814     3176.484     3647.775     1506.509        1.826        0.417      167.441       24.388        0.021      338.580       11.328      856.401
04/04/2014  12:15:00        0.906      -25.544       47.174       29.211       69.868       45.390      853.259     4881.575     2060.293        0.534        0.390       25.560       37.518        2.155      339.058       12.131      856.407
04/04/2014  12:16:00      121.196       97.078       60.190      107.171       70.917       46.531    11485.639     5029.214     2165.104        2.320        0.934      155.282       46.622        0.090      338.674       11.484      856.382
04/04/2014  12:17:00      203.054      104.298       56.968       91.036       84.032       69.765     8287.511     7061.322     4867.121        3.778        1.011      228.274       50.162        0.048      338.550       11.274      856.354
04/04/2014  12:18:00       74.481       21.178       51.232       97.436      116.294       82.714     9493.807    13524.382     6841.624        1.923        1.493       77.433       67.496        0.760      338.660       11.461      856.336
04/04/2014  12:19:00       74.665     -107.007       19.460       98.328      115.886       92.273     9668.335    13429.609     8514.262        2.450        1.581      130.481       80.166        0.377      338.483       11.164      856.332
04/04/2014  12:20:00       23.613      -20.012       84.342       55.372       93.767       62.517     3066.043     8792.269     3908.437        1.192        0.788       30.953       40.630        1.723      338.745       11.607      856.320
04/04/2014  12:21:00      -35.941       46.848       83.444       62.458       85.054       82.896     3900.965     7234.143     6871.746        1.422        0.900       59.046       62.200        1.110      338.774       11.653      856.325
04/04/2014  12:22:00       58.737      -23.318       74.804       70.556       84.289       59.426     4978.177     7104.708     3531.501        1.260        0.781       63.197       51.990        0.677      338.622       11.400      856.320
04/04/2014  12:23:00       80.561     -112.977        9.009       52.193       70.823       46.009     2724.159     5015.827     2116.828        1.459        0.493      138.758       39.771        0.082      338.128       10.569      856.330
04/04/2014  12:24:00       -0.519      -11.960       13.173       65.174       42.016       23.306     4247.625     1765.335      543.148        0.344        0.328       11.971       30.318        6.414      338.470       11.143      856.324
04/04/2014  12:25:00       21.726       62.403       41.539       48.825       33.609       33.633     2383.906     1129.563     1131.147        0.537        0.232       66.077       25.425        0.148      338.588       11.341      856.318
04/04/2014  12:26:00        6.699       32.417       60.225       26.509       28.739       21.491      702.751      825.924      461.863        0.336        0.100       33.102       15.235        0.212      338.867       11.810      856.291
04/04/2014  12:27:00      -46.723       11.593       34.988       58.741       40.622       37.146     3450.564     1650.108     1379.841        0.501        0.324       48.139       41.619        0.747      338.916       11.893      856.281
04/04/2014  12:28:00     -165.075       22.092      -22.406       81.146       60.774       36.148     6584.733     3693.499     1306.707        1.991        0.579      166.547       19.042        0.013      338.410       11.042      856.288
04/04/2014  12:29:00     -100.381       29.597      -22.520       36.069       49.991       32.999     1300.974     2499.067     1088.930        0.817        0.244      104.653       20.892        0.040      337.915       10.211      856.256
04/04/2014  12:30:00     -219.993      -26.106      -22.547       64.119       51.186       34.136     4111.281     2620.049     1165.297        2.874        0.395      221.536       29.362        0.018      338.071       10.469      856.227
04/04/2014  12:31:00      -91.359       27.566       -4.587       62.032      103.682       36.791     3848.021    10749.986     1353.542        1.254        0.798       95.427       33.781        0.125      338.349       10.940      856.213
04/04/2014  12:32:00       -3.282       42.080        5.100       30.581       55.207       29.406      935.178     3047.841      864.704        0.333        0.242       42.207       24.022        0.324      338.746       11.607      856.198
04/04/2014  12:33:00       34.557       50.446        3.974       71.399       37.207       26.557     5097.772     1384.386      705.286        0.547        0.359       61.147       17.913        0.086      338.459       11.125      856.176
04/04/2014  12:34:00     -136.009       49.288        8.632      123.404      140.660       64.323    15228.569    19785.276     4137.491        3.007        1.958      144.664       46.161        0.102      338.526       11.236      856.194
04/04/2014  12:35:00     -379.591     -117.834      -22.815      111.151      121.050       54.732    12354.491    14652.983     2995.545        9.424        1.500      397.459       49.742        0.016      338.249       10.769      856.166
04/04/2014  12:36:00     -108.294      -30.524       -8.770       94.683       90.919       46.419     8964.792     8266.271     2154.678        1.606        0.969      112.513       38.757        0.119      338.344       10.930      856.194
04/04/2014  12:37:00       -0.867      -61.555       10.248       39.510       56.974       37.988     1561.042     3246.047     1443.100        0.507        0.313       61.561       32.544        0.279      338.775       11.656      856.166
04/04/2014  12:38:00       41.524        5.736       37.889       29.515       37.891       27.761      871.158     1435.757      770.688        0.313        0.154       41.919       19.837        0.224      338.879       11.832      856.169
04/04/2014  12:39:00       18.457       -1.654       32.901       32.413       29.267       25.218     1050.632      856.570      635.945        0.198        0.127       18.531       17.717        0.914      339.203       12.376      856.166
04/04/2014  12:40:00       47.027       81.734       45.646       52.876       42.026       38.879     2795.837     1766.161     1511.553        0.852        0.304       94.297       29.846        0.100      338.986       12.010      856.155
04/04/2014  12:41:00      -17.640       18.910       24.584       44.080       23.696       30.465     1943.052      561.524      928.142        0.235        0.172       25.860       15.535        0.361      339.238       12.434      856.156
04/04/2014  12:42:00       20.563      -26.174       26.008       26.105       19.342       14.715      681.456      374.110      216.538        0.153        0.064       33.285        9.744        0.086      339.528       12.922      856.158
04/04/2014  12:43:00       47.587      -81.007       14.108       52.993       92.590       43.068     2808.259     8572.824     1854.814        1.113        0.662       93.950       54.281        0.334      339.146       12.280      856.161
04/04/2014  12:44:00      161.991      123.171       47.975       92.590       68.848       62.077     8572.895     4740.021     3853.584        3.044        0.858      203.500       64.005        0.099      338.420       11.057      856.148
04/04/2014  12:45:00      104.703       74.023       16.411       55.139       44.952       37.744     3040.259     2020.691     1424.602        1.160        0.324      128.227       25.198        0.039      338.281       10.827      856.161
04/04/2014  12:46:00       32.410       70.686        4.540       34.997       47.676       38.603     1224.757     2273.004     1490.160        0.553        0.249       77.762       32.132        0.171      338.378       10.989      856.162
04/04/2014  12:47:00       39.263       34.482       13.839       37.662       34.431       25.603     1418.433     1185.505      655.513        0.309        0.163       52.255       18.243        0.122      338.531       11.247      856.165
04/04/2014  12:48:00       -0.387      -29.443       13.298       15.450       26.843       14.958      238.717      720.549      223.728        0.111        0.059       29.446       12.979        0.194      339.169       12.319      856.155
04/04/2014  12:49:00      -46.070      -60.363       -8.749       34.500       42.737       24.793     1190.258     1826.440      614.696        0.474        0.182       75.935       13.899        0.034      338.814       11.721      856.126
04/04/2014  12:50:00      -12.664       27.296       51.436       47.709       51.583       53.641     2276.141     2660.790     2877.375        0.568        0.391       30.091       42.624        2.007      338.806       11.709      856.106
04/04/2014  12:51:00       53.325       23.319       34.959       39.992       55.215       29.611     1599.368     3048.642      876.802        0.507        0.276       58.200       32.382        0.310      338.433       11.080      856.110
04/04/2014  12:52:00       52.073      -48.401        8.036       45.566       37.355       37.218     2076.275     1395.366     1385.165        0.499        0.243       71.093       14.582        0.042      338.376       10.985      856.116
04/04/2014  12:53:00     -127.743      -59.452       -2.654      110.304       56.065       36.715    12166.944     3143.299     1347.957        1.826        0.833      140.900       15.581        0.012      338.516       11.219      856.064
04/04/2014  12:54:00     -125.385      -62.378       -3.000       78.482       61.773       31.655     6159.386     3815.906     1002.064        1.530        0.549      140.044       26.689        0.036      338.454       11.114      856.068
04/04/2014  12:55:00      -18.627       21.548        5.717       45.625       66.389       29.488     2081.617     4407.558      869.569        0.410        0.368       28.483       27.995        0.966      338.597       11.357      856.055
04/04/2014  12:56:00      -18.269      169.764      -18.499       50.607       49.743       33.129     2561.115     2474.409     1097.534        1.781        0.307      170.744       22.084        0.017      338.378       10.988      856.036
04/04/2014  12:57:00       15.703      138.257      -15.379       59.687       77.685       37.450     3562.512     6035.019     1402.475        1.530        0.550      139.146       40.278        0.084      338.527       11.239      856.020
04/04/2014  12:58:00      -30.741      192.914        4.382       57.814      116.175       59.464     3342.438    13496.558     3535.949        2.927        1.019      195.348       71.982        0.136      338.442       11.093      856.018
04/04/2014  12:59:00      -19.582      237.618      -28.091       74.233       89.917       40.840     5510.587     8085.075     1667.905        3.645        0.763      238.424       48.600        0.042      338.441       11.091      855.996
04/04/2014  13:00:00      138.453      150.712       -3.242      111.455       98.563       80.517    12422.266     9714.701     6482.972        3.525        1.431      204.654       69.206        0.114      338.454       11.114      855.997
04/04/2014  13:01:00      -44.950      148.995      -14.547       80.744       87.303       42.522     6519.533     7621.792     1808.130        2.019        0.797      155.628       45.713        0.086      338.356       10.950      855.961
04/04/2014  13:02:00       -3.923      155.111       -9.931       32.552       86.680       40.059     1059.657     7513.473     1604.760        1.717        0.509      155.161       52.224        0.113      338.452       11.112      855.949
04/04/2014  13:03:00       12.883      129.941        1.746       61.237      131.504       49.826     3749.962    17293.336     2482.674        2.029        1.176      130.578       62.861        0.232      338.648       11.441      855.927
04/04/2014  13:04:00       86.038      132.166       -8.375       92.760       73.112       58.552     8604.496     5345.426     3428.307        2.116        0.869      157.704       48.621        0.095      338.496       11.185      855.922
04/04/2014  13:05:00      157.556      119.168        7.510       59.991       47.303       41.388     3598.869     2237.577     1712.980        2.331        0.377      197.547       29.969        0.023      338.188       10.668      855.911
04/04/2014  13:06:00       82.464       68.605       -3.961       48.341       57.125       36.861     2336.885     3263.279     1358.704        0.924        0.348      107.270       34.730        0.105      338.254       10.781      855.898
04/04/2014  13:07:00        1.476       13.778       18.163       30.957       21.657       19.149      958.321      469.021      366.685        0.116        0.090       13.857       15.142        1.194      338.723       11.568      855.888
04/04/2014  13:08:00      108.279       81.283       24.164       67.352       61.479       45.488     4536.266     3779.672     2069.164        1.465        0.519      135.393       29.799        0.048      338.561       11.295      855.888
04/04/2014  13:09:00      195.605      132.646       23.037       75.829       54.634       50.951     5750.003     2984.925     2596.025        3.386        0.567      236.339       26.039        0.012      338.393       11.011      855.890
04/04/2014  13:10:00       99.894       83.420       27.245       55.872       56.904       40.663     3121.703     3238.082     1653.461        1.285        0.401      130.145       32.755        0.063      338.286       10.834      855.877
04/04/2014  13:11:00      126.076      113.106       97.034      123.638       89.230       73.279    15286.251     7962.001     5369.772        3.336        1.431      169.375       66.421        0.154      338.390       11.007      855.859
04/04/2014  13:12:00       77.735       78.226       77.960       95.424       71.415       75.544     9105.832     5100.137     5706.856        1.907        0.996      110.282       63.856        0.335      338.442       11.093      855.850
04/04/2014  13:13:00       -5.648      114.489       10.100       36.000       68.085       49.970     1295.998     4635.554     2496.988        1.083        0.421      114.628       42.704        0.139      338.526       11.237      855.865
04/04/2014  13:14:00       46.753      100.953      -17.065       53.534       67.141       30.238     2865.892     4507.860      914.335        1.048        0.414      111.253       36.449        0.107      338.255       10.782      855.876
04/04/2014  13:15:00      -29.252       79.532      -17.548       47.046       62.725       28.792     2213.358     3934.398      828.982        0.723        0.349       84.741       32.074        0.143      338.349       10.940      855.881
04/04/2014  13:16:00     -156.365       68.526      -37.971       34.844       62.519       23.084     1214.117     3908.590      532.891        1.812        0.283      170.721       28.005        0.027      338.117       10.550      855.875
04/04/2014  13:17:00     -131.645        8.537      -22.591       33.678       34.070       17.242     1134.227     1160.766      297.274        1.025        0.130      131.922       14.437        0.012      338.193       10.678      855.870
04/04/2014  13:18:00      -98.941      128.169      -34.621       63.653       58.766       28.166     4051.699     3453.481      793.299        1.786        0.415      161.915       21.945        0.018      338.200       10.690      855.865
04/04/2014  13:19:00     -100.147       67.184      -30.439       46.720       68.000       31.899     2182.713     4623.957     1017.535        1.165        0.391      120.595       32.256        0.072      338.241       10.761      855.859
04/04/2014  13:20:00      -34.725      125.499       -9.790       20.141       54.974       24.417      405.649     3022.147      596.173        1.054        0.201      130.214       16.649        0.016      338.270       10.806      855.852
04/04/2014  13:21:00      -42.467       18.337       11.026       38.258       16.421       21.287     1463.657      269.663      453.139        0.222        0.109       46.257       20.526        0.197      338.702       11.532      855.835
04/04/2014  13:22:00        8.090       -0.958       15.238       14.479       21.498       13.003      209.638      462.169      169.086        0.057        0.042        8.146        6.949        0.728      338.853       11.786      855.824
04/04/2014  13:23:00      -25.962       11.743        7.103       26.510       15.709       22.020      702.767      246.787      484.879        0.115        0.072       28.494        7.643        0.072      338.589       11.343      855.824
04/04/2014  13:24:00      -30.489       -3.742        7.093       15.407       17.033       17.997      237.390      290.110      323.885        0.092        0.043       30.718       11.859        0.149      338.596       11.353      855.837
04/04/2014  13:25:00        2.829       17.365       53.132       24.574       52.828       31.431      603.873     2790.773      987.892        0.376        0.219       17.594       29.478        2.807      338.787       11.676      855.833
04/04/2014  13:26:00       29.308      -40.302       23.471       43.720       35.225       25.709     1911.442     1240.821      660.936        0.342        0.191       49.832       24.739        0.246      338.826       11.741      855.830
04/04/2014  13:27:00      -60.205        0.687       12.860       39.867       36.383       22.747     1589.378     1323.720      517.414        0.361        0.172       60.209       23.585        0.153      338.792       11.684      855.835
04/04/2014  13:28:00      -51.954      -60.620        2.596       23.828       28.364       23.476      567.782      804.498      551.144        0.415        0.096       79.837       18.959        0.056      338.663       11.467      855.841
04/04/2014  13:29:00      -70.572      -50.790        0.690       46.724       59.191       23.964     2183.168     3503.521      574.287        0.691        0.313       86.949       16.997        0.038      338.695       11.521      855.849
04/04/2014  13:30:00     -111.866       -7.835        9.185       82.090       28.776       29.178     6738.815      828.067      851.337        1.054        0.421      112.141       39.887        0.127      338.797       11.691      855.847
04/04/2014  13:31:00     -106.858      -19.281       -7.182       35.494       54.570       25.183     1259.850     2977.893      634.195        0.836        0.244      108.584       21.012        0.037      338.685       11.506      855.851
04/04/2014  13:32:00      -87.745       18.793        3.360       40.737       62.067       35.254     1659.529     3852.270     1242.848        0.741        0.338       89.735       24.787        0.076      338.994       12.024      855.842
04/04/2014  13:33:00      -11.265       36.070       19.529       36.637       54.405       28.764     1342.269     2959.918      827.391        0.347        0.256       37.789       32.338        0.732      339.162       12.305      855.841
04/04/2014  13:34:00        4.309       38.497       11.329       30.288       49.776       33.948      917.372     2477.651     1152.441        0.309        0.227       38.738       33.022        0.727      339.142       12.273      855.829
04/04/2014  13:35:00      -96.919       -9.996        0.323       72.247       38.938       26.237     5219.600     1516.204      688.372        0.846        0.371       97.433       25.023        0.066      339.113       12.223      855.802
04/04/2014  13:36:00     -122.903      -13.065      -29.008       94.832       74.333       35.309     8993.185     5525.344     1246.749        1.594        0.788      123.596       43.184        0.122      338.563       11.298      855.782
04/04/2014  13:37:00     -161.183       -9.759       -6.759       75.194       53.681       33.462     5654.191     2881.626     1119.678        1.789        0.483      161.478       35.912        0.049      338.935       11.924      855.773
04/04/2014  13:38:00     -160.006      -95.053       13.651      117.961      107.662       55.467    13914.694    11591.036     3076.638        3.170        1.429      186.110       57.210        0.094      338.787       11.675      855.760
04/04/2014  13:39:00     -124.171      -32.148        6.928      108.370       47.994       45.338    11744.039     2303.446     2055.540        1.630        0.805      128.265       59.072        0.212      339.005       12.041      855.757
04/04/2014  13:40:00     -290.909     -232.423        4.973      155.098      120.924       66.096    24055.307    14622.582     4368.700        9.085        2.152      372.355       67.142        0.033      338.599       11.357      855.762
04/04/2014  13:41:00     -271.779     -185.451       -9.201      170.943      101.801       55.178    29221.444    10363.462     3044.663        7.548        2.131      329.023       67.166        0.042      338.453       11.109      855.759
04/04/2014  13:42:00     -187.851     -156.816        0.310      106.607       80.966       46.043    11365.049     6555.435     2119.968        3.996        1.002      244.702       44.131        0.033      338.460       11.124      855.771
04/04/2014  13:43:00     -140.455      -36.423      -18.330       71.280       45.843       29.941     5080.886     2101.560      896.490        1.473        0.404      145.101       31.997        0.049      338.379       10.990      855.756
04/04/2014  13:44:00     -188.950       48.477      -17.112      107.010       80.842       39.908    11451.221     6535.376     1592.619        2.896        0.979      195.070       34.294        0.031      338.765       11.637      855.730
04/04/2014  13:45:00     -216.758       -9.530      -17.831       96.624       54.416       37.866     9336.107     2961.054     1433.842        3.056        0.687      216.967       32.651        0.023      338.607       11.371      855.712
04/04/2014  13:46:00     -307.419     -115.266       -9.075      128.832       90.564       54.496    16597.781     8201.806     2969.844        6.782        1.388      328.318       56.712        0.030      338.682       11.497      855.696
04/04/2014  13:47:00      -64.325     -107.935       20.319       88.169      118.846       61.698     7773.720    14124.367     3806.678        2.095        1.285      125.649       58.768        0.219      338.851       11.781      855.699
04/04/2014  13:48:00     -211.790     -102.954       -4.673      157.377      148.296       59.544    24767.596    21991.598     3545.438        5.288        2.515      235.488       52.492        0.050      338.965       11.973      855.719
04/04/2014  13:49:00     -181.981     -158.711       -0.513      197.276       93.751       54.247    38917.724     8789.233     2942.756        5.447        2.532      241.467       60.813        0.063      338.446       11.101      855.749
04/04/2014  13:50:00     -108.693     -121.615       -4.143       84.384       80.423       43.241     7120.704     6467.871     1869.743        2.104        0.773      163.109       48.704        0.089      338.643       11.432      855.705
04/04/2014  13:51:00     -206.654     -132.745       14.871      147.086      120.371       67.613    21634.398    14489.200     4571.453        5.061        2.035      245.616       63.153        0.066      338.808       11.709      855.680
04/04/2014  13:52:00      -92.710     -182.600        6.173       99.003      123.233       61.985     9801.543    15186.454     3842.106        3.540        1.442      204.787       54.816        0.072      338.999       12.031      855.682
04/04/2014  13:53:00     -244.419     -140.287        5.793      168.087      184.478       76.516    28253.218    34032.023     5854.714        7.378        3.407      281.817       89.661        0.101      338.977       11.992      855.676
04/04/2014  13:54:00     -346.218     -131.355       -2.887      134.892      120.366       62.025    18195.968    14488.026     3847.136        8.682        1.827      370.298       63.811        0.030      338.530       11.240      855.698
04/04/2014  13:55:00     -313.701     -100.980      -28.436       76.260       76.053       41.028     5815.656     5784.025     1683.301        6.135        0.664      329.553       26.771        0.007      338.328       10.901      855.735
04/04/2014  13:56:00     -149.895     -108.705       -4.643       71.532       72.327       34.524     5116.846     5231.245     1191.908        2.292        0.577      185.163       27.377        0.022      338.490       11.175      855.747
04/04/2014  13:57:00     -154.477     -129.523        2.452      100.152       80.697       45.201    10030.386     6512.068     2043.136        2.961        0.929      201.593       34.792        0.030      338.515       11.216      855.738
04/04/2014  13:58:00     -104.138      -84.041        0.171       83.195       58.843       38.081     6921.477     3462.481     1450.186        1.487        0.592      133.819       42.674        0.102      338.556       11.286      855.745
04/04/2014  13:59:00     -135.547      -86.010       -8.098       50.904       49.453       32.672     2591.174     2445.608     1067.464        1.597        0.305      160.532       25.646        0.026      338.419       11.058      855.743
04/04/2014  14:00:00     -121.860      -65.383      -11.827       21.851       35.155       17.190      477.461     1235.885      295.491        1.064        0.100      138.293        3.935        0.001      338.241       10.758      855.730
04/04/2014  14:01:00      -98.234      -75.765      -16.222       32.721       34.328       16.079     1070.680     1178.407      258.537        0.908        0.125      124.057       11.142        0.008      338.269       10.806      855.714
04/04/2014  14:02:00      -35.302        9.021       -7.160       16.040       21.975       11.275      257.297      482.894      127.124        0.112        0.043       36.436        7.977        0.048      338.385       11.000      855.696
04/04/2014  14:03:00       23.680        1.774       28.587       51.101       35.806       31.918     2611.264     1282.036     1018.756        0.315        0.246       23.747       24.144        1.034      338.752       11.616      855.685
04/04/2014  14:04:00       38.661      -22.078        4.014       29.455       27.868       27.351      867.571      776.627      748.086        0.219        0.120       44.521       21.605        0.235      338.521       11.230      855.674
04/04/2014  14:05:00       18.376       17.508       33.505       40.320       25.598       31.899     1625.697      655.262     1017.549        0.253        0.165       25.381       28.242        1.238      338.821       11.733      855.642
04/04/2014  14:06:00      118.639       96.115       88.333      112.626       95.324       87.630    12684.666     9086.759     7678.931        3.028        1.473      152.687       84.440        0.306      338.567       11.304      855.637
04/04/2014  14:07:00      133.000      152.904      109.184      101.984      103.837       90.624    10400.729    10782.146     8212.765        4.119        1.470      202.653       79.491        0.154      338.565       11.302      855.622
04/04/2014  14:08:00      115.234      150.060      127.335      143.981      106.302       94.782    20730.540    11300.136     8983.631        4.650        2.051      189.200       78.630        0.173      338.664       11.467      855.600
04/04/2014  14:09:00      171.837      126.498      114.103      129.330      116.213       98.574    16726.266    13505.466     9716.792        4.924        1.997      213.377       81.922        0.147      338.574       11.316      855.590
04/04/2014  14:10:00       65.110       26.162       87.813       70.593      144.189       74.879     4983.417    20790.461     5606.854        2.200        1.569       70.170       90.492        1.663      338.651       11.446      855.593
04/04/2014  14:11:00       65.704       99.049      125.241      107.265       91.052       72.219    11505.788     8290.469     5215.627        2.741        1.251      118.860       53.698        0.204      338.759       11.626      855.572
04/04/2014  14:12:00      123.169       43.088      112.250      151.184      106.614       73.343    22856.726    11366.508     5379.188        3.461        1.980      130.488       86.896        0.443      338.643       11.433      855.575
04/04/2014  14:13:00      112.070      118.537      129.055      122.114      101.765       82.666    14911.718    10356.056     6833.740        3.768        1.605      163.128       69.106        0.179      338.865       11.805      855.547
04/04/2014  14:14:00      105.444       88.190      161.820      162.886      140.404      107.967    26531.869    19713.174    11656.929        5.148        2.895      137.463      104.625        0.579      338.893       11.853      855.520
04/04/2014  14:15:00      234.204      177.792      150.396      165.781      160.213      136.378    27483.318    25668.098    18598.931        9.040        3.588      294.044      114.084        0.151      338.544       11.264      855.492
04/04/2014  14:16:00      316.658      159.414      104.232      151.812      136.266      117.872    23046.743    18568.500    13893.693        9.602        2.775      354.521       89.235        0.063      338.528       11.237      855.489
04/04/2014  14:17:00      160.530      154.092      178.104      133.848      107.410       90.525    17915.156    11536.977     8194.865        5.943        1.882      222.518       68.168        0.094      338.599       11.355      855.503
04/04/2014  14:18:00      101.400      114.879       96.075      123.736       85.302       70.257    15310.702     7276.487     4936.017        3.011        1.376      153.229       50.500        0.109      338.865       11.805      855.512
04/04/2014  14:19:00      153.082       53.804       79.414      139.511      143.445       78.205    19463.305    20576.489     6115.985        3.939        2.308      162.262       68.740        0.179      338.736       11.589      855.501
04/04/2014  14:20:00      180.913      226.802      204.460      156.798      129.651      123.316    24585.678    16809.354    15206.952        9.128        2.830      290.118      117.719        0.165      338.533       11.245      855.499
04/04/2014  14:21:00      246.257      143.443       94.144      131.201       92.152       77.497    17213.623     8491.945     6005.834        6.089        1.586      284.988       69.149        0.059      338.447       11.101      855.535
04/04/2014  14:22:00      288.614      131.641       74.620      155.579      143.332       92.443    24204.917    20544.042     8545.706        7.973        2.665      317.218       75.200        0.056      338.434       11.080      855.507
04/04/2014  14:23:00      187.625      142.127      103.375      163.839       94.710       90.750    26843.282     8969.952     8235.515        5.506        2.202      235.379       81.542        0.120      338.699       11.525      855.476
04/04/2014  14:24:00      205.042      167.794      136.396      161.197      115.105      106.258    25984.354    13249.213    11290.678        6.965        2.526      264.947       95.470        0.130      338.621       11.394      855.484
04/04/2014  14:25:00      226.047      125.194      101.321      196.036      133.141      119.230    38430.233    17726.595    14215.787        7.369        3.519      258.400      127.482        0.243      338.447       11.103      855.457
04/04/2014  14:26:00      153.094      104.238       97.455      114.707      125.478      112.846    13157.612    15744.773    12734.230        4.271        2.082      185.212       92.148        0.248      338.632       11.412      855.461
04/04/2014  14:27:00       50.638       77.965       82.875       81.577       73.697       92.050     6654.750     5431.184     8473.126        1.803        1.028       92.966       72.336        0.605      338.835       11.756      855.472
04/04/2014  14:28:00      119.235      -62.512       62.531      118.104      198.156       97.003    13948.651    39265.653     9409.548        4.232        3.131      134.628      127.383        0.895      338.833       11.752      855.450
04/04/2014  14:29:00      161.893        8.993       82.173      122.179      141.492       86.120    14927.666    20019.930     7416.730        3.770        2.118      162.143       89.475        0.305      338.702       11.531      855.445
04/04/2014  14:30:00       81.123       67.378      103.611       93.330      125.144       73.776     8710.545    15660.907     5442.860        2.583        1.491      105.455       77.386        0.539      338.964       11.971      855.454
04/04/2014  14:31:00      205.008     -146.693        4.425      121.514      170.521      132.197    14765.539    29077.502    17475.944        6.243        3.066      252.085      130.617        0.268      338.668       11.471      855.423
04/04/2014  14:32:00      136.549      -81.640       87.735      153.816      234.369      133.920    23659.217    54928.795    17934.437        6.475        4.826      159.094      163.294        1.054      339.036       12.093      855.418
04/04/2014  14:33:00      233.313     -233.027      -61.972      125.663      140.296       77.914    15791.073    19682.975     6070.667        7.705        2.077      329.752       82.650        0.063      338.473       11.144      855.431
04/04/2014  14:34:00      102.968     -104.066       49.079       96.399      145.763       80.410     9292.805    21246.966     6465.757        3.042        1.850      146.397       89.010        0.370      338.915       11.889      855.461
04/04/2014  14:35:00       35.413      -60.140       59.630       84.361      149.048       84.016     7116.696    22215.390     7058.637        2.240        1.820       69.792       95.922        1.889      339.249       12.451      855.466
04/04/2014  14:36:00      143.619     -131.185       21.155      119.252      104.929       86.407    14221.149    11010.106     7466.087        3.548        1.635      194.514       76.257        0.154      339.039       12.099      855.472
04/04/2014  14:37:00      135.014     -155.749       27.258      106.938      148.210       95.641    11435.821    21966.278     9147.168        4.288        2.127      206.123      109.217        0.281      339.001       12.035      855.484
04/04/2014  14:38:00       78.620     -145.626       -6.603       93.170      113.219       64.882     8680.638    12818.441     4209.736        2.657        1.285      165.494       64.865        0.154      339.127       12.246      855.495
04/04/2014  14:39:00      -59.633      -98.569       -7.432      143.040       96.444       46.559    20460.328     9301.436     2167.704        2.262        1.596      115.204       51.564        0.200      339.216       12.395      855.519
04/04/2014  14:40:00     -147.191     -112.732        7.691      110.671       65.742       47.147    12248.169     4322.049     2222.878        2.661        0.940      185.401       46.217        0.062      338.951       11.949      855.488
04/04/2014  14:41:00     -253.891      -42.874      -24.382      111.445       86.403       58.717    12420.092     7465.506     3447.673        4.511        1.167      257.486       59.008        0.053      338.516       11.217      855.486
04/04/2014  14:42:00     -152.126       37.069        8.160      123.286       68.224       52.605    15199.449     4654.533     2767.296        2.360        1.131      156.577       64.450        0.169      338.594       11.352      855.485
04/04/2014  14:43:00       17.430       16.003       56.870       64.593       50.114       40.932     4172.298     2511.387     1675.430        0.607        0.418       23.662       33.990        2.064      339.136       12.263      855.458
04/04/2014  14:44:00       37.712      -33.769       29.237       51.008       44.603       30.002     2601.830     1989.393      900.109        0.445        0.275       50.622       28.337        0.313      338.951       11.950      855.456
04/04/2014  14:45:00        2.358      -14.544       10.361       20.019       28.235       21.151      400.745      797.216      447.344        0.098        0.082       14.733       10.514        0.509      339.253       12.461      855.455
04/04/2014  14:46:00       -0.843      -51.829       20.659       51.475       53.778       28.550     2649.707     2892.072      815.081        0.473        0.318       51.836       25.429        0.241      339.126       12.247      855.453
04/04/2014  14:47:00       69.875      -55.793       25.488       76.868       84.442       48.811     5908.668     7130.531     2382.470        1.203        0.771       89.416       39.610        0.196      339.133       12.258      855.438
04/04/2014  14:48:00       94.092      -67.659       53.505      118.485      161.369       71.257    14038.629    26039.921     5077.495        3.072        2.258      115.892       94.500        0.665      339.081       12.169      855.414
04/04/2014  14:49:00      137.759      -80.442       46.300      113.897      133.601       80.433    12972.633    17849.205     6469.436        3.243        1.865      159.526       80.542        0.255      338.961       11.967      855.403
04/04/2014  14:50:00      113.914      -10.488       61.735      104.672      118.389       78.605    10956.257    14016.021     6178.777        2.402        1.558      114.396       81.942        0.513      338.864       11.804      855.390
04/04/2014  14:51:00       59.270       43.737       95.598      100.393      122.590       75.595    10078.717    15028.366     5714.640        2.269        1.541       73.661       74.921        1.034      339.067       12.146      855.352
04/04/2014  14:52:00      123.805       82.025      150.219      121.755      127.222       94.293    14824.318    16185.460     8891.249        4.225        1.995      148.512       89.839        0.366      339.268       12.482      855.340
04/04/2014  14:53:00      102.810      -12.055       72.491      100.500      111.023       97.941    10100.270    12326.184     9592.447        2.399        1.601      103.514       91.032        0.773      339.223       12.407      855.352
04/04/2014  14:54:00       59.149      -59.940       33.688       49.624       87.922       73.758     2462.495     7730.193     5440.228        1.193        0.782       84.210       71.652        0.724      338.890       11.850      855.364
04/04/2014  14:55:00       67.065      -68.928       30.493       55.052      102.809       44.733     3030.728    10569.598     2001.081        1.289        0.780       96.170       55.298        0.331      339.293       12.527      855.324
04/04/2014  14:56:00      117.089       99.458       64.432       80.825       64.998       73.657     6532.741     4224.740     5425.417        2.196        0.809      153.629       45.327        0.087      338.941       11.933      855.329
04/04/2014  14:57:00      153.889      102.293       50.570       87.181       64.022       52.008     7600.565     4098.791     2704.839        2.555        0.720      184.785       41.151        0.050      338.677       11.490      855.339
04/04/2014  14:58:00      129.776      100.291        8.131      101.339       70.794       58.321    10269.564     5011.817     3401.311        2.282        0.934      164.013       46.244        0.079      338.880       11.832      855.341
04/04/2014  14:59:00      213.828      113.230       10.287      104.027      100.179       54.888    10821.519    10035.903     3012.721        4.126        1.194      241.958       35.551        0.022      338.544       11.265      855.358
04/04/2014  15:00:00       67.091       49.971       26.202       47.404       40.487       40.215     2247.126     1639.206     1617.221        0.659        0.275       83.656       28.033        0.112      338.863       11.802      855.355
04/04/2014  15:01:00       49.504       83.616       14.530       53.957       53.585       50.677     2911.403     2871.394     2568.185        0.900        0.418       97.171       33.524        0.119      338.831       11.749      855.388
04/04/2014  15:02:00       43.152       65.687       -7.967       31.070       38.802       28.995      965.354     1505.585      840.735        0.478        0.166       78.593       23.175        0.087      338.654       11.453      855.409
04/04/2014  15:03:00      -45.290      148.525      -11.486       53.876      110.520       42.344     2902.642    12214.560     1793.009        2.057        0.846      155.276       44.640        0.083      338.914       11.888      855.420
04/04/2014  15:04:00       17.835      275.250      -47.478       65.038       64.010       41.750     4229.953     4097.319     1743.052        4.420        0.504      275.827       32.455        0.014      338.690       11.508      855.420
04/04/2014  15:05:00      -76.775       24.014       -7.327       83.406       82.079       32.135     6956.502     6736.952     1032.635        1.062        0.736       80.443       19.435        0.058      339.057       12.129      855.470
04/04/2014  15:06:00     -140.519       -3.596       -0.273       94.477      136.172       62.106     8925.867    18542.888     3857.112        2.554        1.566      140.565       36.966        0.069      338.842       11.767      855.450
04/04/2014  15:07:00     -122.658      108.089      -31.610       45.450       70.900       33.894     2065.738     5026.864     1148.826        1.798        0.412      163.488       20.658        0.016      338.613       11.382      855.416
04/04/2014  15:08:00     -192.342      106.798      -29.056      117.005      105.247       55.225    13690.286    11077.004     3049.834        3.853        1.391      220.003       63.324        0.083      338.859       11.795      855.418
04/04/2014  15:09:00     -152.053      159.867      -14.358      101.824      117.802       73.196    10368.202    13877.208     5357.716        3.924        1.480      220.630       62.602        0.081      338.805       11.703      855.432
04/04/2014  15:10:00     -193.146       93.717      -26.615      144.080      139.819       67.736    20758.957    19549.409     4588.172        4.584        2.245      214.682       67.230        0.098      338.861       11.797      855.404
04/04/2014  15:11:00     -235.428      130.857      -51.831      125.061      134.225       76.034    15640.166    18016.386     5781.143        5.733        1.972      269.351       75.793        0.079      338.762       11.631      855.406
04/04/2014  15:12:00     -278.634       45.411      -24.630      106.798      120.560       50.026    11405.873    14534.823     2502.615        5.437        1.422      282.310       39.439        0.020      338.767       11.638      855.410
04/04/2014  15:13:00     -311.029       35.232      -37.698      149.303      143.694       77.014    22291.436    20647.856     5931.136        7.413        2.444      313.018       81.481        0.068      338.661       11.461      855.414
04/04/2014  15:14:00     -309.277       31.793      -24.226      101.588      122.506       80.734    10320.199    15007.780     6517.901        6.454        1.592      310.907       38.373        0.015      338.521       11.224      855.446
04/04/2014  15:15:00     -262.462      -25.179      -45.359      130.216      141.735       64.271    16956.082    20088.728     4130.789        5.637        2.059      263.667       54.473        0.043      338.535       11.249      855.474
04/04/2014  15:16:00     -122.695       48.943      -15.759       83.477      145.108       54.333     6968.435    21056.339     2952.031        2.433        1.549      132.096       29.538        0.050      338.600       11.360      855.489
04/04/2014  15:17:00      -15.490       90.758       22.626       54.472       72.822       45.167     2967.223     5303.096     2040.048        0.965        0.516       92.070       42.378        0.212      338.890       11.849      855.471
04/04/2014  15:18:00     -174.643       67.306      -23.790      130.926       97.556       46.963    17141.674     9517.159     2205.503        3.222        1.443      187.164       51.884        0.077      338.731       11.580      855.451
04/04/2014  15:19:00     -124.431       61.514      -10.297       91.082       63.364       42.496     8295.984     4015.047     1805.875        1.674        0.706      138.806       35.806        0.067      338.747       11.607      855.435
04/04/2014  15:20:00     -178.254      262.104      -34.113       99.589      102.255       63.899     9918.065    10456.163     4083.038        6.304        1.223      316.975       68.125        0.046      338.585       11.333      855.455
04/04/2014  15:21:00     -101.146      233.859      -21.900       76.613       88.771       56.765     5869.531     7880.261     3222.258        4.118        0.849      254.795       50.561        0.039      338.480       11.156      855.475
04/04/2014  15:22:00     -126.665       58.530      -15.661       67.676       71.971       37.542     4580.011     5179.849     1409.431        1.544        0.558      139.534       34.099        0.060      338.581       11.330      855.470
04/04/2014  15:23:00     -157.559       57.537      -17.438       89.326       91.664       43.379     7979.083     8402.285     1881.740        2.335        0.913      167.736       28.892        0.030      338.669       11.476      855.474
04/04/2014  15:24:00     -248.159       44.703      -27.474      106.403       88.654       48.280    11321.565     7859.487     2330.953        4.292        1.076      252.153       51.470        0.042      338.519       11.223      855.514
04/04/2014  15:25:00     -212.083       -7.132      -17.356      157.661       87.354       59.316    24856.898     7630.740     3518.427        4.066        1.800      212.203       71.305        0.113      338.513       11.214      855.526
04/04/2014  15:26:00       35.921       44.800       26.208       54.585       36.546       43.058     2979.509     1335.581     1854.003        0.508        0.308       57.423       26.345        0.210      338.588       11.341      855.504
04/04/2014  15:27:00      167.363      114.098        2.443      107.981       61.833       55.517    11659.907     3823.318     3082.187        2.980        0.928      202.556       31.537        0.024      338.378       10.985      855.431
04/04/2014  15:28:00      -18.656      122.769      -18.931       33.399       87.371       28.591     1115.485     7633.764      817.454        1.267        0.478      124.178       32.481        0.068      338.313       10.879      855.398
04/04/2014  15:29:00      -87.280       33.760      -14.180       36.787       35.831       14.423     1353.291     1283.844      208.020        0.590        0.142       93.582        9.844        0.011      338.357       10.955      855.406
04/04/2014  15:30:00     -136.747     -109.115        3.546      128.895       95.154       54.029    16613.838     9054.240     2919.125        2.960        1.429      174.945       53.901        0.095      338.458       11.123      855.416
04/04/2014  15:31:00     -220.957       -9.274      -26.640      132.797       76.482       42.794    17635.131     5849.546     1831.291        3.746        1.266      221.152       52.788        0.057      338.525       11.233      855.420
04/04/2014  15:32:00     -245.085     -189.421        7.224      147.204      114.506       69.795    21668.984    13111.615     4871.283        6.782        1.983      309.753       79.619        0.066      338.350       10.939      855.411
04/04/2014  15:33:00     -337.326     -112.391        0.320      200.117      161.244       91.086    40046.698    25999.524     8296.742       10.037        3.717      355.557      112.514        0.100      338.470       11.139      855.363
04/04/2014  15:34:00     -375.636      -21.892      -37.811      136.718      162.018       66.498    18691.892    26249.894     4422.009        9.618        2.468      376.274       62.308        0.027      338.484       11.162      855.395
04/04/2014  15:35:00     -433.758     -115.203      -27.696      148.565      135.568       63.732    22071.707    18378.622     4061.828       12.334        2.226      448.796       74.071        0.027      338.331       10.907      855.361
04/04/2014  15:36:00     -192.946       -6.745        6.299      153.883      101.040       74.298    23679.980    10209.110     5520.186        3.835        1.970      193.064       78.417        0.165      338.555       11.283      855.358
04/04/2014  15:37:00      -97.121      -73.617        8.866       93.828       63.752       52.181     8803.709     4064.329     2722.858        1.526        0.780      121.868       50.233        0.170      338.577       11.322      855.405
04/04/2014  15:38:00     -148.022     -108.820       14.454      143.197       62.473       57.629    20505.426     3902.917     3321.152        3.084        1.386      183.718       77.725        0.179      338.466       11.135      855.392
04/04/2014  15:39:00     -205.380      -60.672       -6.919       85.578       62.077       46.786     7323.516     3853.603     2188.920        2.964        0.668      214.155       51.050        0.057      338.394       11.014      855.367
04/04/2014  15:40:00      -96.602      -37.631       15.291       80.036       45.982       31.716     6405.785     2114.323     1005.925        1.025        0.476      103.673       32.364        0.097      338.675       11.488      855.383
04/04/2014  15:41:00      -96.088      -32.249        9.066       77.397       78.743       47.732     5990.328     6200.447     2278.298        1.241        0.723      101.355       38.472        0.144      338.803       11.703      855.382
04/04/2014  15:42:00     -305.222     -166.635       -4.205      146.762      130.976       61.825    21539.165    17154.744     3822.342        8.172        2.126      347.747       69.503        0.040      338.307       10.867      855.368
04/04/2014  15:43:00     -245.676     -127.567       -2.412      121.457      112.225       52.613    14751.880    12594.508     2768.171        5.337        1.506      276.821       49.306        0.032      338.257       10.782      855.386
04/04/2014  15:44:00     -222.561     -181.799       -2.569      118.207       98.346       62.215    13972.824     9671.933     3870.706        5.505        1.376      287.375       63.405        0.049      338.399       11.020      855.409
04/04/2014  15:45:00     -166.383      -99.865        8.960      128.217       87.663       61.860    16439.720     7684.807     3826.704        3.284        1.398      194.052       68.571        0.125      338.650       11.443      855.426
04/04/2014  15:46:00      -82.638       15.956        0.694       96.993       53.305       38.324     9407.644     2841.472     1468.710        1.040        0.686       84.164       49.391        0.344      338.738       11.592      855.439
04/04/2014  15:47:00     -139.762       -1.819      -10.855       51.217       37.584       24.418     2623.175     1412.535      596.221        1.214        0.232      139.774       25.421        0.033      338.512       11.215      855.458
04/04/2014  15:48:00     -315.434      -83.355      -17.755      152.669       96.780       56.731    23307.855     9366.346     3218.403        7.132        1.795      326.262       60.423        0.034      338.612       11.379      855.478
04/04/2014  15:49:00     -339.587      -82.103      -21.363      162.339      133.254       76.007    26353.996    17756.632     5776.995        8.619        2.494      349.371       74.336        0.045      338.307       10.868      855.472
04/04/2014  15:50:00     -197.428       18.029      -14.068      182.276      122.547       75.375    33224.562    15017.738     5681.450        4.670        2.696      198.249       88.457        0.199      338.335       10.916      855.411
04/04/2014  15:51:00     -253.994       39.746      -42.080      188.600      109.727       72.334    35569.791    12040.110     5232.257        6.034        2.642      257.085       81.947        0.102      338.377       10.985      855.420
04/04/2014  15:52:00     -352.956      -17.300      -24.714      189.996      144.738       96.753    36098.602    20949.002     9361.212        9.594        3.320      353.380       98.679        0.078      338.276       10.814      855.439
04/04/2014  15:53:00     -262.741      184.901      -41.730      145.716      230.104       85.645    21233.068    52947.681     7335.133        9.322        4.076      321.281       75.998        0.056      338.119       10.550      855.468
04/04/2014  15:54:00     -163.657      645.132      -70.151      131.764      258.775       89.719    17361.726    66964.377     8049.461       27.012        4.619      665.567      109.234        0.027      337.692        9.835      855.507
04/04/2014  15:55:00     -348.434      322.045      -61.333      160.812      154.662       85.053    25860.482    23920.476     7233.933       14.294        2.851      474.467       86.060        0.033      337.637        9.743      855.589
04/04/2014  15:56:00     -236.004      389.416      -48.162      132.418      147.665       81.408    17534.525    21804.907     6627.190       12.781        2.298      455.349       71.159        0.024      337.374        9.302      855.660
04/04/2014  15:57:00      -15.513      441.481      -55.505       96.825      165.590       53.744     9375.041    27420.136     2888.450       11.895        1.984      441.753       68.978        0.024      337.360        9.277      855.605
04/04/2014  15:58:00      -10.185      273.237      -24.068      104.918      142.095       65.674    11007.854    20190.996     4313.086        5.542        1.776      273.427       77.431        0.080      337.418        9.376      855.537
04/04/2014  15:59:00      -73.018      186.900      -29.631       95.040      103.344       49.385     9032.691    10679.930     2438.837        3.164        1.108      200.657       54.562        0.074      337.588        9.661      855.490
04/04/2014  16:00:00       18.607      214.972       -9.951       90.082       92.098       54.209     8114.835     8481.999     2938.626        3.309        0.977      215.776       51.708        0.057      337.688        9.828      855.470
04/04/2014  16:01:00      -25.826      308.616      -42.990       86.390       84.174       42.859     7463.175     7085.293     1836.907        5.707        0.819      309.694       48.341        0.024      337.564        9.620      855.438
04/04/2014  16:02:00     -108.040      294.319      -32.338       80.347       82.091       38.594     6455.699     6738.993     1489.535        5.701        0.734      313.522       31.636        0.010      337.825       10.057      855.427
04/04/2014  16:03:00     -102.298      220.648      -36.767       74.540       87.318       41.156     5556.265     7624.439     1693.839        3.769        0.744      243.208       34.090        0.020      337.786        9.991      855.426
04/04/2014  16:04:00     -158.155      174.365      -33.178       70.566       72.077       41.296     4979.569     5195.105     1705.353        3.420        0.594      235.406       40.517        0.030      337.979       10.316      855.429
04/04/2014  16:05:00     -144.381      147.059      -22.298       57.603       77.054       44.530     3318.080     5937.323     1982.948        2.710        0.562      206.088       37.683        0.033      338.065       10.462      855.421
04/04/2014  16:06:00      -88.478       79.234        4.771       70.766       90.915       48.238     5007.795     8265.464     2326.909        1.486        0.780      118.770       49.010        0.170      338.226       10.733      855.416
04/04/2014  16:07:00     -171.860      -37.057      -31.238       92.849      140.052       49.750     8620.916    19614.427     2475.051        3.129        1.536      175.810       13.499        0.006      338.294       10.845      855.399
04/04/2014  16:08:00     -115.110       -2.485       -5.149      137.245       61.430       51.030    18836.272     3773.702     2604.081        1.924        1.261      115.137       68.412        0.353      338.243       10.761      855.406
04/04/2014  16:09:00     -240.187       52.048      -16.404      161.925      142.557       75.696    26219.660    20322.450     5729.900        5.646        2.614      245.761       72.774        0.088      338.009       10.367      855.426
04/04/2014  16:10:00     -237.451       76.080      -25.360      157.131      149.364       72.703    24690.078    22309.637     5285.786        5.754        2.614      249.342       75.294        0.091      337.991       10.336      855.371
04/04/2014  16:11:00     -210.012      149.679      -40.946      132.192      159.686       60.324    17474.627    25499.760     3639.021        5.739        2.331      257.892       38.459        0.022      337.968       10.297      855.376
04/04/2014  16:12:00     -186.888      181.422      -30.079      111.623      124.871       64.293    12459.715    15592.765     4133.625        5.046        1.609      260.463       64.047        0.060      337.945       10.259      855.417
04/04/2014  16:13:00     -198.233      121.995      -26.855      135.446      134.161       77.696    18345.701    17999.228     6036.700        4.863        2.119      232.764       83.978        0.130      337.864       10.123      855.387
04/04/2014  16:14:00     -284.037       60.182      -47.389      113.479      180.586       74.544    12877.505    32611.261     5556.840        6.879        2.552      290.343       60.067        0.043      337.843       10.086      855.355
04/04/2014  16:15:00     -259.044       59.221      -29.449      115.065      114.928       63.429    13239.918    13208.334     4023.272        5.097        1.524      265.727       39.316        0.022      337.768        9.962      855.365
04/04/2014  16:16:00     -291.029      281.087      -69.619      123.223      127.612       76.895    15183.905    16284.809     5912.839       10.296        1.869      404.608       72.646        0.032      337.832       10.069      855.429
04/04/2014  16:17:00     -275.137      343.071      -71.731      149.869      206.880       78.331    22460.752    42799.253     6135.746       13.496        3.570      439.770       74.637        0.029      337.644        9.755      855.458
04/04/2014  16:18:00     -284.008      350.276      -69.903      101.693      118.135       66.307    10341.550    13955.947     4396.605       11.846        1.435      450.948       67.595        0.022      337.564        9.619      855.465
04/04/2014  16:19:00     -247.745      218.939      -46.038       76.417       97.719       57.719     5839.515     9548.975     3331.438        6.507        0.936      330.623       52.927        0.026      337.599        9.678      855.459
04/04/2014  16:20:00     -235.627      235.350      -48.867       77.689      110.308       55.852     6035.531    12167.963     3119.493        6.731        1.066      333.031       43.158        0.017      337.635        9.738      855.469
04/04/2014  16:21:00     -147.194      125.746      -20.713       83.840      152.015       67.700     7029.199    23108.709     4583.225        3.631        1.736      193.592       55.154        0.081      337.724        9.889      855.473
04/04/2014  16:22:00     -244.786      352.897      -57.721      121.275      171.302       80.799    14707.532    29344.255     6528.531       11.917        2.529      429.484       75.592        0.031      337.599        9.678      855.473
04/04/2014  16:23:00     -217.501      357.117      -48.448      112.056      214.872       67.137    12556.503    46169.958     4507.422       12.020        3.162      418.138       85.335        0.042      337.608        9.693      855.459
04/04/2014  16:24:00     -253.566       45.873        4.401      197.957      159.955       91.277    39186.988    25585.718     8331.579        6.975        3.655      257.682       79.742        0.096      337.796       10.010      855.431
04/04/2014  16:25:00     -261.198       -6.440      -49.875      110.838      106.842       77.061    12285.129    11415.305     5938.332        5.019        1.482      261.277       38.656        0.022      337.783        9.987      855.455
04/04/2014  16:26:00     -183.515       50.568        0.675      106.968      110.357       74.089    11442.217    12178.563     5489.202        3.267        1.455      190.354       62.098        0.106      337.863       10.121      855.495
04/04/2014  16:27:00     -303.316      106.946      -50.233      132.953      157.793       78.190    17676.454    24898.620     6113.702        7.732        2.434      321.618       80.646        0.063      337.664        9.786      855.500
04/04/2014  16:28:00     -326.429      173.308      -48.211      153.926      210.522       84.015    23693.131    44319.624     7058.597       10.698        3.754      369.583       89.056        0.058      337.599        9.679      855.479
04/04/2014  16:29:00     -204.025       75.646      -30.621      113.434      141.831       67.735    12867.175    20115.943     4588.055        4.292        1.879      217.598       53.804        0.061      337.613        9.703      855.498
04/04/2014  16:30:00     -256.603       83.299      -37.437      126.139      103.011       72.241    15911.001    10611.174     5218.758        5.296        1.587      269.785       58.574        0.047      337.591        9.665      855.505
04/04/2014  16:31:00     -306.432      -70.956      -23.887      144.182      167.482       67.435    20788.480    28050.137     4547.438        7.644        2.669      314.540       56.017        0.032      337.617        9.708      855.508
04/04/2014  16:32:00     -432.597     -131.494      -39.298      164.808      117.694       82.826    27161.838    13851.856     6860.199       12.692        2.394      452.140       60.364        0.018      337.511        9.531      855.540
04/04/2014  16:33:00     -308.490      -64.872      -17.412      186.433      118.733       67.710    34757.298    14097.556     4584.662        7.655        2.672      315.238       56.539        0.032      337.535        9.572      855.571
04/04/2014  16:34:00     -317.206      -41.315      -26.854      200.068      149.375       89.624    40027.259    22312.891     8032.512        8.670        3.519      319.885       84.296        0.069      337.447        9.424      855.609
04/04/2014  16:35:00     -313.311      -79.941      -34.065      142.971      114.586       75.584    20440.621    13130.009     5712.931        7.249        1.964      323.349       50.857        0.025      337.286        9.157      855.657
04/04/2014  16:36:00     -265.526      -24.273      -33.396      114.238       95.741       66.601    13050.360     9166.377     4435.747        4.943        1.333      266.633       39.666        0.022      337.217        9.040      855.696
04/04/2014  16:37:00     -294.256      -53.855      -39.324      140.715      138.314       73.864    19800.792    19130.736     5455.950        6.770        2.219      299.144       42.199        0.020      337.075        8.801      855.738
04/04/2014  16:38:00     -581.107     -191.899      -60.414      193.239      150.019       85.784    37341.465    22505.714     7358.935       22.267        3.360      611.972       54.131        0.008      336.756        8.270      855.782
04/04/2014  16:39:00     -463.225     -159.380      -43.611      126.388      105.514       70.120    15973.903    11133.291     4916.791       13.695        1.601      489.877       55.963        0.013      336.547        7.919      855.854
04/04/2014  16:40:00     -310.607      -59.726      -25.411      136.530      156.712       73.462    18640.517    24558.800     5396.683        7.463        2.430      316.297       56.447        0.032      336.337        7.568      855.909
04/04/2014  16:41:00     -188.777      132.956      -29.605      130.023      124.991       76.610    16905.962    15622.842     5869.084        4.629        1.920      230.898       77.104        0.112      336.243        7.412      855.876
04/04/2014  16:42:00     -253.817      181.920      -30.260      138.229      134.020       76.816    19107.138    17961.350     5900.621        7.069        2.148      312.279       70.118        0.050      336.424        7.714      855.858
04/04/2014  16:43:00     -161.727      343.184      -47.321       89.516      106.795       58.429     8013.202    11405.246     3413.990        8.450        1.142      379.383       50.162        0.017      336.718        8.206      855.808
04/04/2014  16:44:00     -166.594      273.536      -38.075       87.859      107.505       57.900     7719.243    11557.270     3352.355        6.332        1.131      320.274       49.390        0.024      336.809        8.356      855.809
04/04/2014  16:45:00     -205.521      221.609      -30.906      112.947      175.870       66.477    12756.940    30930.416     4419.166        7.020        2.405      302.241       57.765        0.037      336.669        8.123      855.825
04/04/2014  16:46:00     -230.459      146.624      -32.952      101.506      119.501       62.129    10303.553    14280.479     3860.044        5.206        1.422      273.148       57.185        0.044      336.427        7.718      855.853
04/04/2014  16:47:00     -219.551      109.199      -12.045      128.899       98.536       79.110    16615.065     9709.416     6258.322        4.642        1.629      245.208       66.672        0.074      336.363        7.612      855.866
04/04/2014  16:48:00     -152.196      217.598      -25.278      105.526      125.152       68.050    11135.678    15663.035     4630.740        5.128        1.571      265.542       59.871        0.051      336.363        7.612      855.857
04/04/2014  16:49:00     -192.060      183.908      -16.683       84.460      101.176       68.765     7133.502    10236.662     4728.589        4.654        1.105      265.912       53.262        0.040      336.401        7.673      855.841
04/04/2014  16:50:00     -177.008      216.200      -48.870       90.464       83.695       58.038     8183.741     7004.864     3368.381        4.951        0.928      279.418       36.023        0.017      336.380        7.638      855.853
04/04/2014  16:51:00     -187.604      165.042      -28.100       95.214       98.733       58.449     9065.757     9748.178     3416.313        4.272        1.112      249.868       56.268        0.051      336.333        7.560      855.883
04/04/2014  16:52:00     -324.654       51.622      -59.031      148.793      133.389       72.497    22139.466    17792.698     5255.843        7.836        2.259      328.733       73.523        0.050      336.137        7.233      855.919
04/04/2014  16:53:00     -302.041       -1.303      -26.113      157.752      167.343       86.201    24885.653    28003.704     7430.631        7.610        3.016      302.044       87.345        0.084      336.219        7.372      855.935
04/04/2014  16:54:00     -179.487       24.974      -27.974       78.531      101.381       66.166     6167.094    10278.188     4378.004        2.722        1.041      181.216       47.693        0.069      336.258        7.436      855.959
04/04/2014  16:55:00     -231.927       64.399      -20.843      152.509      110.262       76.537    23259.010    12157.652     5857.978        4.981        2.064      240.702       83.611        0.121      336.215        7.364      855.955
04/04/2014  16:56:00     -308.758       98.973      -48.350      113.633      152.083       69.124    12912.546    23129.097     4778.183        7.413        2.041      324.233       56.524        0.030      336.207        7.349      855.955
04/04/2014  16:57:00     -328.448      115.398      -33.764      165.398      118.263       83.595    27356.501    13986.142     6988.177        8.532        2.417      348.130       77.659        0.050      336.241        7.407      855.964
04/04/2014  16:58:00     -280.129      104.592      -35.473      132.133      115.418       61.357    17459.256    13321.233     3764.666        6.260        1.727      299.018       49.528        0.027      336.229        7.388      855.950
04/04/2014  16:59:00     -334.184       92.483      -34.388      128.117      117.188       74.613    16413.933    13732.998     5567.132        7.856        1.786      346.745       57.553        0.028      336.177        7.299      855.977
04/04/2014  17:00:00     -179.618       46.421      -28.448       93.001       83.790       57.897     8649.151     7020.767     3352.056        2.712        0.951      185.520       47.922        0.067      336.252        7.427      855.996
04/04/2014  17:01:00     -180.120       75.654      -22.107      150.454      155.061       80.076    22636.451    24043.973     6412.118        4.586        2.655      195.363       69.719        0.127      336.277        7.467      856.016
04/04/2014  17:02:00     -293.192       77.243      -43.139      143.345      136.581       73.187    20547.827    18654.480     5356.346        6.917        2.228      303.197       77.495        0.065      336.228        7.385      856.001
04/04/2014  17:03:00     -245.145       -8.316      -22.717      113.889      103.666       50.911    12970.610    10746.730     2591.948        4.349        1.315      245.286       39.836        0.026      336.231        7.390      855.962
04/04/2014  17:04:00     -256.488      111.231      -48.094      179.142      112.123       74.908    32091.893    12571.493     5611.137        6.536        2.514      279.568      100.041        0.128      336.269        7.454      855.930
04/04/2014  17:05:00     -191.640      107.516      -16.018      165.757      202.050       91.255    27475.219    40824.160     8327.425        6.257        3.831      219.740       84.704        0.149      336.374        7.628      855.929
04/04/2014  17:06:00     -352.058      144.274      -34.401      147.556      109.898       80.351    21772.722    12077.467     6456.327        9.312        2.015      380.473       62.621        0.027      336.412        7.693      855.917
04/04/2014  17:07:00     -234.180      308.263      -50.714       97.568      123.954       65.968     9519.537    15364.593     4351.817        9.083        1.462      387.126       53.448        0.019      336.413        7.694      855.905
04/04/2014  17:08:00     -234.448      291.428      -52.495      103.707      127.125       62.990    10755.063    16160.644     3967.718        8.676        1.544      374.027       61.976        0.027      336.444        7.746      855.939
04/04/2014  17:09:00     -215.909      167.631      -43.315      102.238       95.766       54.479    10452.707     9171.221     2968.011        4.959        1.130      273.344       56.141        0.042      336.466        7.782      855.990
04/04/2014  17:10:00     -212.454       21.138      -27.362      109.321       93.725       54.892    11951.171     8784.345     3013.112        3.504        1.187      213.503       40.379        0.036      336.431        7.724      855.989
04/04/2014  17:11:00      -76.549       85.135       -4.326       81.503      113.249       56.676     6642.674    12825.332     3212.209        1.790        1.134      114.489       38.939        0.116      336.455        7.767      855.969
04/04/2014  17:12:00     -106.962      131.456       -3.116      105.238      167.251       66.618    11075.099    27973.022     4437.901        3.610        2.174      169.474       66.000        0.152      336.429        7.724      855.942
04/04/2014  17:13:00     -278.951      229.806      -34.979      188.130      151.482       86.267    35393.054    22946.757     7441.925        9.880        3.289      361.420       82.181        0.052      336.357        7.601      855.924
04/04/2014  17:14:00     -297.729      255.587      -50.219      205.784      192.828       91.398    42347.111    37182.828     8353.527       12.217        4.394      392.387      106.281        0.073      336.268        7.452      855.980
04/04/2014  17:15:00     -343.644      470.893      -96.322      143.487      204.497       89.161    20588.446    41818.989     7949.742       20.972        3.518      582.950       88.845        0.023      336.103        7.176      855.999
04/04/2014  17:16:00     -238.529      316.369      -63.382      113.344      136.183       65.076    12846.859    18545.869     4234.931        9.831        1.781      396.213       66.078        0.028      336.123        7.210      855.998
04/04/2014  17:17:00     -284.609      565.017      -76.105      145.325      201.815       98.554    21119.335    40729.250     9712.905       23.879        3.578      632.651       98.198        0.024      335.904        6.845      856.007
04/04/2014  17:18:00     -289.015      429.819      -67.553      137.070      214.117       87.749    18788.161    45845.897     7699.961       17.257        3.617      517.952       86.578        0.028      335.899        6.839      856.038
04/04/2014  17:19:00     -271.274      399.842      -62.577      134.417      153.281       93.331    18068.058    23494.970     8710.602       14.382        2.514      483.181       82.815        0.029      335.827        6.715      856.059
04/04/2014  17:20:00     -244.149      326.756      -49.870      163.495      151.233       80.331    26730.468    22871.280     6453.046       11.245        2.803      407.895       80.752        0.039      335.840        6.738      856.059
04/04/2014  17:21:00     -258.086      350.400      -57.081      130.563      172.973       86.482    17046.720    29919.557     7479.106       12.354        2.722      435.188       85.977        0.039      335.827        6.715      856.060
04/04/2014  17:22:00     -234.849      202.063      -33.218      139.934      119.257       73.771    19581.553    14222.145     5442.226        6.816        1.962      309.812       70.287        0.051      335.865        6.780      856.134
04/04/2014  17:23:00     -328.934      391.442      -70.552      155.388      193.400       90.901    24145.513    37403.637     8263.027       16.809        3.491      511.297       85.774        0.028      335.754        6.596      856.240
04/04/2014  17:24:00     -254.539      345.820      -49.197      166.239      196.614       86.764    27635.557    38656.975     7528.072       13.030        3.691      429.397       98.900        0.053      335.677        6.466      856.235
04/04/2014  17:25:00     -168.414      428.792      -33.478      220.261      257.468      108.461    48514.933    66289.627    11763.761       16.993        6.328      460.680      138.147        0.090      335.752        6.591      856.109
04/04/2014  17:26:00     -159.234      488.589      -56.485      155.201      150.924       81.057    24087.283    22777.990     6570.291       16.034        2.672      513.882       89.095        0.030      335.652        6.425      856.205
04/04/2014  17:27:00      -77.108      385.497      -50.593      118.379      133.631       69.702    14013.497    17857.215     4858.357        9.691        1.836      393.133       69.162        0.031      335.663        6.445      856.128
04/04/2014  17:28:00     -261.073      339.535      -54.203      139.405      167.157       87.324    19433.734    27941.418     7625.507       12.068        2.750      428.303       89.426        0.044      335.792        6.656      856.204
04/04/2014  17:29:00     -260.049      448.593      -66.600      180.515      192.176       98.869    32585.549    36931.549     9775.080       17.628        3.965      518.518      118.246        0.052      335.720        6.538      856.132
04/04/2014  17:30:00     -159.912      353.284      -30.448      108.910      174.688       86.469    11861.439    30515.933     7476.957       10.057        2.493      387.790       78.240        0.041      335.736        6.564      856.073
04/04/2014  17:31:00     -165.111      497.819      -60.777      117.862      164.751       69.222    13891.454    27142.728     4791.754       16.229        2.291      524.486       61.241        0.014      335.815        6.697      856.011
04/04/2014  17:32:00     -192.845      353.147      -26.105      121.902      183.389       83.072    14859.976    33631.444     6900.924       10.898        2.770      402.370       80.247        0.040      335.930        6.889      856.049
04/04/2014  17:33:00     -253.620      417.348      -73.860      141.110      168.729       86.378    19911.957    28469.406     7461.175       14.989        2.792      488.368       86.236        0.031      335.866        6.782      856.060
04/04/2014  17:34:00     -259.401      194.952      -26.625      127.086      141.707       67.702    16150.959    20080.893     4583.619        7.340        2.041      324.492       51.953        0.026      335.897        6.833      856.039
04/04/2014  17:35:00     -226.569      251.693      -37.796       96.455      166.726       75.135     9303.531    27797.428     5645.308        7.942        2.137      338.649       70.374        0.043      335.960        6.939      856.034
04/04/2014  17:36:00     -280.364      155.343      -47.831      165.593      110.749       80.527    27421.115    12265.408     6484.663        7.559        2.309      320.524       87.928        0.075      335.990        6.989      856.104
04/04/2014  17:37:00     -137.747       34.617       -8.561       98.546       84.855       55.779     9711.273     7200.313     3111.272        2.013        1.001      142.030       46.113        0.105      336.038        7.069      856.134
04/04/2014  17:38:00     -223.269       11.949      -36.917      106.680      166.993       73.453    11380.701    27886.523     5395.320        4.800        2.233      223.589       59.963        0.072      335.871        6.791      856.163
04/04/2014  17:39:00     -278.122      -49.720      -18.586      126.076      130.552       66.530    15895.237    17043.787     4426.283        5.876        1.868      282.532       64.440        0.052      335.796        6.666      856.141
04/04/2014  17:40:00     -174.155       96.710       -9.671      140.841      170.510       73.032    19836.122    29073.609     5333.694        4.700        2.712      199.206       71.939        0.130      335.889        6.820      856.161
04/04/2014  17:41:00     -273.469      280.309      -65.930      113.829      119.320       70.551    12957.033    14237.302     4977.450        9.493        1.609      391.610       64.170        0.027      336.012        7.026      856.152
04/04/2014  17:42:00     -240.523      291.869      -53.743      136.420      112.608       76.018    18610.462    12680.489     5778.719        9.149        1.853      378.205       77.907        0.042      336.000        7.004      856.142
04/04/2014  17:43:00     -311.979      357.391      -65.520      190.394      204.550       87.042    36249.907    41840.615     7576.234       15.749        4.283      474.404      102.707        0.047      335.820        6.705      856.182
04/04/2014  17:44:00     -233.817      356.781      -59.350      108.285      146.327       69.397    11725.743    21411.584     4815.966       11.171        1.898      426.572       66.319        0.024      335.808        6.685      856.206
04/04/2014  17:45:00     -155.530      265.865      -40.432       97.671      134.597       73.958     9539.623    18116.299     5469.733        6.481        1.656      308.016       68.080        0.049      335.803        6.676      856.224
04/04/2014  17:46:00     -149.530      286.368      -34.542       93.098      130.477       65.909     8667.223    17024.338     4344.041        6.779        1.502      323.057       69.762        0.047      335.790        6.656      856.250
04/04/2014  17:47:00     -137.259      211.730      -26.243      102.689      150.172       63.495    10544.960    22551.530     4031.627        5.074        1.856      252.329       70.251        0.078      335.844        6.746      856.295
04/04/2014  17:48:00     -128.710      156.702      -16.131       62.759      112.478       46.330     3938.671    12651.365     2146.461        3.006        0.937      202.784       31.859        0.025      335.934        6.897      856.316
04/04/2014  17:49:00     -227.213      280.677      -66.192       89.566      113.556       61.474     8021.983    12895.056     3779.018        7.974        1.235      361.116       50.042        0.019      335.822        6.708      856.371
04/04/2014  17:50:00     -137.914      209.084      -38.348       95.047      110.934       61.656     9033.851    12306.326     3801.407        4.467        1.257      250.473       68.825        0.076      335.827        6.718      856.390
04/04/2014  17:51:00     -115.576      240.914      -35.605       89.565      125.678       56.996     8021.914    15794.844     3248.508        4.986        1.353      267.203       55.598        0.043      335.848        6.750      856.413
04/04/2014  17:52:00     -211.528      254.779      -39.215       94.502      102.044       57.948     8930.668    10413.028     3357.924        6.694        1.135      331.144       44.505        0.018      335.741        6.572      856.449
04/04/2014  17:53:00     -153.833      314.828      -47.790      104.068      133.637       63.289    10830.172    17858.836     4005.517        7.887        1.635      350.402       70.175        0.040      335.631        6.389      856.451
04/04/2014  17:54:00     -148.827      300.342      -41.221      106.841      146.565       56.175    11415.103    21481.168     3155.591        7.505        1.803      335.194       47.480        0.020      335.565        6.280      856.418
04/04/2014  17:55:00     -225.320      465.712      -77.533      130.726      152.047       70.840    17089.400    23118.246     5018.302       15.944        2.261      517.355       67.515        0.017      335.411        6.025      856.422
04/04/2014  17:56:00     -211.801      427.168      -60.506      135.937      140.057       69.902    18478.900    19615.954     4886.291       13.698        2.149      476.793       67.752        0.020      335.404        6.012      856.413
04/04/2014  17:57:00     -112.318      435.762      -64.045      124.472      107.695       65.023    15493.403    11598.134     4227.992       11.896        1.566      450.004       54.690        0.015      335.402        6.007      856.400
04/04/2014  17:58:00      -66.903      417.556      -52.704      120.027      172.690       78.894    14406.413    29821.967     6224.230       11.602        2.523      422.882       85.806        0.041      335.516        6.197      856.372
04/04/2014  17:59:00      -50.609      548.536      -68.651      113.590      130.445       63.504    12902.770    17015.885     4032.768       17.105        1.698      550.866       52.481        0.009      335.360        5.939      856.383
04/04/2014  18:00:00     -161.732      296.153      -54.539      143.792      144.521       85.402    20676.235    20886.200     7293.544        8.284        2.443      337.437       89.463        0.070      335.387        5.983      856.374
04/04/2014  18:01:00      -44.172      505.802      -58.810       96.255      245.520       73.208     9265.069    60280.009     5359.431       16.806        3.745      507.727      103.596        0.042      335.367        5.950      856.406
04/04/2014  18:02:00     -113.667      491.845      -50.981      116.699      166.795       75.333    13618.670    27820.510     5675.052       15.226        2.356      504.808       83.515        0.027      335.327        5.884      856.362
04/04/2014  18:03:00     -148.739      472.617      -43.444      115.433      211.238       80.225    13324.768    44621.598     6436.112       15.587        3.219      495.470       85.189        0.030      335.510        6.188      856.306
04/04/2014  18:04:00      -88.914      450.110      -49.293      109.298      192.265       97.467    11945.986    36965.654     9499.886       13.566        2.921      458.808      111.411        0.059      335.688        6.486      856.353
04/04/2014  18:05:00     -179.580      335.142      -27.456      131.305      139.129       76.025    17241.045    19356.923     5779.732        9.384        2.119      380.222       67.023        0.031      335.811        6.690      856.391
04/04/2014  18:06:00     -143.088      340.721      -40.282       78.263      127.789       54.773     6125.081    16330.155     3000.039        8.182        1.273      369.547       56.311        0.023      335.668        6.452      856.389
04/04/2014  18:07:00      -90.165      333.683      -25.151       66.151       98.842       62.564     4375.970     9769.740     3914.208        6.908        0.903      345.650       49.542        0.021      335.711        6.524      856.408
04/04/2014  18:08:00     -156.025      347.304      -39.505      103.820      135.500       67.785    10778.607    18360.218     4594.867        9.012        1.687      380.741       73.354        0.037      335.788        6.651      856.429
04/04/2014  18:09:00     -101.277      345.309      -31.176      106.613      134.870       58.799    11366.272    18189.852     3457.287        8.173        1.651      359.855       53.748        0.022      335.820        6.705      856.432
04/04/2014  18:10:00     -140.306      364.863      -33.571      103.942      152.195       75.945    10803.970    23163.418     5767.708        9.683        1.987      390.910       71.735        0.034      335.963        6.943      856.468
04/04/2014  18:11:00     -135.640      230.140      -25.924       89.287      121.689       62.115     7972.133    14808.327     3858.214        4.933        1.332      267.138       60.726        0.052      336.097        7.167      856.474
04/04/2014  18:12:00     -116.941      352.903      -36.735      105.940      143.783       81.749    11223.192    20673.656     6682.958        8.906        1.929      371.774       78.276        0.044      336.105        7.179      856.509
04/04/2014  18:13:00     -225.451      334.441      -53.050      109.923      142.361       69.519    12083.125    20266.571     4832.895       10.133        1.859      403.334       63.482        0.025      336.186        7.315      856.551
04/04/2014  18:14:00     -143.862      357.992      -42.594       88.280      141.215       60.938     7793.394    19941.565     3713.406        9.105        1.572      385.817       66.618        0.030      336.235        7.396      856.548
04/04/2014  18:15:00     -199.635      312.631      -13.542      167.490      176.310       87.976    28052.765    31085.354     7739.837       10.231        3.344      370.934       87.298        0.055      336.323        7.545      856.553
04/04/2014  18:16:00     -234.655      268.664      -72.068      122.007      157.076       65.101    14885.778    24673.024     4238.078        8.811        2.190      356.712       68.547        0.037      336.376        7.632      856.605
04/04/2014  18:17:00     -205.961      132.980      -27.807      121.910      120.733       58.276    14862.022    14576.556     3396.095        4.685        1.642      245.160       60.933        0.062      336.371        7.624      856.610
04/04/2014  18:18:00     -101.246       19.781      -17.993       73.059       56.214       41.058     5337.611     3160.062     1685.752        1.057        0.509      103.161       39.350        0.145      336.415        7.700      856.597
04/04/2014  18:19:00     -136.730      -23.494      -11.425       63.405       74.924       43.417     4020.246     5613.566     1885.064        1.545        0.576      138.734       30.021        0.047      336.408        7.687      856.588
04/04/2014  18:20:00      -85.505       79.565       12.238       88.043       90.065       46.991     7751.645     8111.711     2208.159        1.593        0.904      116.798       29.281        0.063      336.456        7.768      856.612
04/04/2014  18:21:00     -134.657      150.473      -16.374       80.965       91.111       49.370     6555.310     8301.242     2437.370        2.917        0.865      201.928       48.878        0.059      336.364        7.614      856.655
04/04/2014  18:22:00     -224.154      222.368      -40.871       86.151      115.745       62.772     7421.956    13397.019     3940.369        6.306        1.238      315.741       60.132        0.036      336.348        7.584      856.694
04/04/2014  18:23:00     -171.709      -18.718      -27.062       85.358      110.732       61.100     7286.023    12261.565     3733.198        2.692        1.164      172.726       47.350        0.075      336.403        7.678      856.660
04/04/2014  18:24:00     -275.816       79.186      -28.576      127.751      120.455       61.525    16320.368    14509.359     3785.342        5.888        1.731      286.957       29.375        0.010      336.384        7.646      856.660
04/04/2014  18:25:00     -267.254       67.784      -37.536      129.781      100.664       62.092    16843.152    10133.292     3855.465        5.412        1.542      275.717       63.542        0.053      336.345        7.581      856.667
04/04/2014  18:26:00     -101.792       90.999      -14.139       68.808      113.074       50.700     4734.559    12785.655     2570.521        1.946        1.005      136.537       52.164        0.146      336.416        7.702      856.643
04/04/2014  18:27:00     -157.071      207.031      -20.539      100.790      110.288       69.648    10158.659    12163.358     4850.886        4.756        1.359      259.871       69.005        0.071      336.434        7.730      856.651
04/04/2014  18:28:00     -263.523      115.786      -34.599      124.683      105.413       61.449    15545.805    11111.881     3775.964        5.723        1.522      287.838       59.875        0.043      336.441        7.741      856.710
04/04/2014  18:29:00     -182.173       82.996      -33.807       68.347      129.367       49.119     4671.354    16735.765     2412.631        3.251        1.191      200.188       39.608        0.039      336.467        7.785      856.732
04/04/2014  18:30:00     -240.147       41.672      -35.663       79.913       92.210       41.774     6386.148     8502.639     1745.040        3.865        0.832      243.736       41.952        0.030      336.391        7.657      856.730
04/04/2014  18:31:00     -228.642        9.579      -14.342       85.451      109.636       48.548     7301.885    12019.953     2356.941        3.712        1.084      228.843       36.143        0.025      336.379        7.637      856.767
04/04/2014  18:32:00     -158.160       71.791      -15.052      112.193      128.612       62.512    12587.199    16541.100     3907.742        3.171        1.652      173.691       68.625        0.156      336.414        7.699      856.803
04/04/2014  18:33:00     -290.682      -53.226      -26.647      135.612      131.857       69.968    18390.683    17386.301     4895.543        6.435        2.034      295.515       70.520        0.057      336.446        7.750      856.787
04/04/2014  18:34:00     -241.980       66.577      -38.704       88.588      129.189       53.973     7847.909    16689.875     2913.131        4.596        1.373      250.972       50.601        0.041      336.407        7.684      856.815
04/04/2014  18:35:00     -251.394       75.527      -30.267      107.901       99.905       64.967    11642.667     9980.928     4220.742        4.783        1.292      262.495       39.417        0.023      336.425        7.712      856.821
04/04/2014  18:36:00     -127.446       80.563       -5.909      124.359       75.894       62.462    15465.132     5759.879     3901.465        2.394        1.256      150.774       75.739        0.252      336.470        7.791      856.815
04/04/2014  18:37:00     -232.516       47.865      -23.121      112.932      122.650       60.064    12753.580    15042.941     3607.652        4.414        1.570      237.392       49.212        0.043      336.407        7.684      856.845
04/04/2014  18:38:00     -175.858      -40.224       10.012      111.963      103.811       56.765    12535.715    10776.807     3222.256        2.958        1.327      180.399       61.399        0.116      336.431        7.724      856.851
04/04/2014  18:39:00     -196.342        5.209      -31.089      139.111      121.861       56.817    19351.809    14850.078     3228.179        3.848        1.872      196.411       54.015        0.076      336.409        7.690      856.860
04/04/2014  18:40:00     -117.052       24.615       -1.711       82.160       67.099       43.724     6750.254     4502.236     1911.826        1.373        0.658      119.613       34.965        0.085      336.395        7.668      856.851
04/04/2014  18:41:00     -138.833      151.224      -20.437       74.474      105.189       49.601     5546.390    11064.829     2460.279        3.081        0.954      205.288       41.916        0.042      336.413        7.695      856.836
04/04/2014  18:42:00     -134.592       16.892      -27.089       64.246       79.571       45.793     4127.588     6331.605     2096.967        1.584        0.628      135.648       27.714        0.042      336.399        7.673      856.821
04/04/2014  18:43:00     -229.476       90.386      -29.956      115.336       88.566       50.845    13302.285     7843.933     2585.230        4.272        1.187      246.635       46.924        0.036      336.288        7.484      856.830
04/04/2014  18:44:00     -172.275       62.428      -25.710       78.405      104.056       51.128     6147.283    10827.548     2614.046        2.691        0.979      183.237       39.873        0.047      336.264        7.447      856.830
04/04/2014  18:45:00     -263.801       98.053      -42.732      112.460      123.351       62.130    12647.212    15215.553     3860.080        5.637        1.586      281.435       66.422        0.056      336.217        7.367      856.854
04/04/2014  18:46:00     -333.936       77.964      -34.010      100.143      104.003       49.231    10028.711    10816.538     2423.697        7.100        1.163      342.917       32.658        0.009      336.186        7.314      856.843
04/04/2014  18:47:00     -152.895        4.706      -17.871       81.747       75.109       45.307     6682.597     5641.390     2052.738        1.904        0.719      152.967       35.345        0.053      336.169        7.289      856.816
04/04/2014  18:48:00     -133.675      -16.089      -30.201       73.301       85.628       40.195     5373.022     7332.101     1615.610        1.668        0.716      134.640       31.175        0.054      336.214        7.364      856.812
04/04/2014  18:49:00     -225.710      126.824      -37.632      102.410       93.429       51.335    10487.854     8729.036     2635.279        4.514        1.093      258.901       44.777        0.030      336.187        7.318      856.842
04/04/2014  18:50:00     -182.520      108.776      -35.674       83.749       48.783       39.141     7013.924     2379.771     1532.046        2.867        0.546      212.476       40.632        0.037      336.213        7.363      856.817
04/04/2014  18:51:00      -76.239      109.233      -12.384       76.331       71.326       35.680     5826.497     5087.437     1273.027        1.504        0.609      133.207       33.331        0.063      336.319        7.538      856.823
04/04/2014  18:52:00     -113.292      138.051      -20.493       64.023       68.106       40.896     4098.937     4638.399     1672.457        2.136        0.520      178.586       37.728        0.045      336.252        7.427      856.829
04/04/2014  18:53:00      -86.837      125.769      -24.248       74.284       58.219       39.822     5518.054     3389.472     1585.822        1.722        0.525      152.835       45.040        0.087      336.240        7.408      856.822
04/04/2014  18:54:00      -56.809      181.410       -8.505       61.381      103.764       43.867     3767.580    10766.899     1924.339        2.633        0.823      190.097       24.529        0.017      336.302        7.510      856.844
04/04/2014  18:55:00     -171.769      139.303      -40.443       99.517       77.046       51.796     9903.720     5936.107     2682.816        3.453        0.926      221.156       55.079        0.062      336.228        7.386      856.856
04/04/2014  18:56:00     -135.665      191.392      -29.299      103.146       93.574       55.576    10639.193     8756.164     3088.730        3.918        1.124      234.598       49.983        0.045      336.194        7.331      856.877
04/04/2014  18:57:00     -162.003      -12.548       -7.548       89.404      121.229       50.697     7993.065    14696.581     2570.152        2.585        1.263      162.488       48.367        0.089      336.231        7.391      856.880
04/04/2014  18:58:00     -196.349      -62.098      -10.153      130.275       85.632       58.639    16971.514     7332.791     3438.477        3.512        1.387      205.935       46.257        0.050      336.244        7.413      856.913
04/04/2014  18:59:00     -138.340      -27.657       16.385      112.994      104.571       55.157    12767.563    10935.011     3042.282        2.345        1.337      141.078       39.124        0.077      336.175        7.299      856.925
04/04/2014  19:00:00     -305.542      -51.400      -16.392      128.877      119.786       52.085    16609.268    14348.792     2712.853        6.496        1.684      309.835       40.716        0.017      336.147        7.249      856.953
04/04/2014  19:01:00     -196.386      -18.095      -26.561       71.975       91.252       57.242     5180.395     8326.947     3276.648        2.819        0.839      197.218       30.374        0.024      336.128        7.219      856.982
04/04/2014  19:02:00     -118.275       -7.746       -6.124       77.130       90.436       46.408     5948.981     8178.645     2153.669        1.518        0.814      118.528       38.028        0.103      336.123        7.212      856.989
04/04/2014  19:03:00      -77.571       95.018      -16.607       55.536       66.811       30.433     3084.225     4463.697      926.157        1.190        0.424      122.661       28.207        0.053      336.132        7.229      857.002
04/04/2014  19:04:00     -109.669      115.911      -31.821       50.957       85.647       42.105     2596.649     7335.445     1772.849        1.909        0.585      159.570       28.965        0.033      336.143        7.247      857.035
04/04/2014  19:05:00     -175.441      130.968      -22.403      110.304       74.907       55.127    12167.010     5611.119     3038.947        3.462        1.041      218.934       54.837        0.063      336.113        7.193      857.048
04/04/2014  19:06:00     -185.525       94.956      -23.514       83.855       78.204       47.484     7031.726     6115.885     2254.686        2.969        0.770      208.413       36.351        0.030      336.095        7.163      857.047
04/04/2014  19:07:00     -118.688      128.901      -24.001       56.801       68.820       34.905     3226.403     4736.179     1218.374        2.023        0.459      175.221       24.641        0.020      336.100        7.172      857.065
04/04/2014  19:08:00     -190.980       78.997      -22.065       82.308      101.433       44.909     6774.663    10288.688     2016.793        3.114        0.954      206.674       41.381        0.040      336.146        7.250      857.086
04/04/2014  19:09:00     -130.539      -13.822       -4.630      138.107       64.706       50.462    19073.540     4186.898     2546.416        2.152        1.290      131.269       67.693        0.266      336.164        7.280      857.115
04/04/2014  19:10:00      -59.845       44.717      -20.881       72.999      110.719       45.756     5328.812    12258.752     2093.636        1.285        0.984       74.707       39.656        0.282      336.146        7.251      857.121
04/04/2014  19:11:00      -39.657       23.457       17.016       55.119       46.615       29.670     3038.091     2172.954      880.304        0.425        0.305       46.075       26.534        0.332      336.198        7.337      857.125
04/04/2014  19:12:00     -146.351       48.216      -16.166       67.373      106.880       44.482     4539.058    11423.379     1978.672        2.097        0.897      154.089       53.293        0.120      336.145        7.250      857.137
04/04/2014  19:13:00     -113.614       58.986      -17.455       57.199       61.038       43.898     3271.701     3725.625     1927.038        1.281        0.446      128.014       40.861        0.102      336.131        7.227      857.174
04/04/2014  19:14:00     -123.971      121.175      -34.838       83.019      156.495       58.811     6892.130    24490.825     3458.721        3.305        1.742      173.355       56.523        0.106      336.071        7.124      857.194
04/04/2014  19:15:00     -113.873       38.217      -10.569       59.754       87.302       48.637     3570.519     7621.713     2365.558        1.405        0.678      120.115       32.890        0.075      336.104        7.182      857.199
04/04/2014  19:16:00     -245.953      -40.222      -23.747       69.083       61.570       38.347     4772.443     3790.803     1470.459        3.635        0.502      249.220       30.114        0.015      336.046        7.082      857.214
04/04/2014  19:17:00     -247.785      -43.919      -15.774       71.211       63.818       46.948     5071.032     4072.764     2204.152        3.746        0.567      251.647       39.766        0.025      336.026        7.048      857.244
04/04/2014  19:18:00     -167.493      -29.439       -4.240       80.104       81.098       45.223     6416.643     6576.870     2045.146        2.199        0.752      170.061       34.897        0.042      335.975        6.964      857.258
04/04/2014  19:19:00     -165.102        4.052        7.766       88.484       71.885       38.464     7829.464     5167.467     1479.507        2.090        0.724      165.152       38.722        0.055      335.954        6.929      857.266
04/04/2014  19:20:00     -249.162      -12.630      -19.197      102.263       65.728       48.932    10457.750     4320.125     2394.390        3.989        0.859      249.482       39.326        0.025      335.923        6.877      857.283
04/04/2014  19:21:00     -200.735      -19.901       -2.051      146.115       61.919       55.413    21349.739     3833.958     3070.557        3.447        1.413      201.719       69.263        0.118      335.946        6.915      857.304
04/04/2014  19:22:00     -171.600      -26.368      -11.707       77.808       47.392       31.135     6054.008     2246.028      969.398        1.977        0.463      173.614       33.619        0.037      335.972        6.959      857.308
04/04/2014  19:23:00     -138.842      -16.369      -22.059       64.664       70.815       33.015     4181.479     5014.742     1090.008        1.516        0.514      139.804       13.667        0.010      335.943        6.912      857.301
04/04/2014  19:24:00     -102.007        9.781      -14.298       58.712       92.372       46.306     3447.089     8532.633     2144.267        1.241        0.706      102.475       39.481        0.148      335.952        6.927      857.301
04/04/2014  19:25:00     -139.952       63.115      -10.067       95.167      117.590       51.923     9056.730    13827.302     2695.959        2.462        1.279      153.525       52.504        0.117      336.007        7.016      857.315
04/04/2014  19:26:00      -66.551       -3.759       -2.062       54.233       76.978       43.686     2941.255     5925.566     1908.499        0.761        0.539       66.657       31.080        0.217      336.030        7.058      857.326
04/04/2014  19:27:00     -133.661       26.731      -16.594       88.016       79.670       49.793     7746.805     6347.239     2479.389        1.771        0.829      136.308       33.073        0.059      336.018        7.037      857.320
04/04/2014  19:28:00     -136.067       73.897      -10.649       86.371       84.529       47.540     7459.885     7145.173     2260.009        2.047        0.843      154.839       40.853        0.070      336.049        7.089      857.312
04/04/2014  19:29:00      -96.626       67.231      -14.731       67.582      112.287       45.208     4567.316    12608.295     2043.749        1.664        0.961      117.714       34.781        0.087      336.026        7.049      857.304
04/04/2014  19:30:00      -99.341      146.290      -16.434       90.433      121.040       52.552     8178.191    14650.780     2761.703        2.856        1.280      176.832       66.178        0.140      336.011        7.026      857.310
04/04/2014  19:31:00     -157.744      215.893      -32.359       73.269       94.481       53.721     5368.312     8926.574     2885.904        4.486        0.859      267.382       54.392        0.041      335.981        6.972      857.314
04/04/2014  19:32:00     -116.981      147.281      -11.701       59.478       94.578       45.478     3537.606     8945.058     2068.250        2.503        0.728      188.085       37.909        0.041      336.008        7.019      857.323
04/04/2014  19:33:00      -87.808       40.029       -8.483       81.759       63.680       35.815     6684.541     4055.132     1282.739        1.070        0.601       96.502       20.450        0.045      336.027        7.053      857.329
04/04/2014  19:34:00     -138.334       36.624      -25.309       83.707       98.394       39.388     7006.917     9681.313     1551.423        1.968        0.912      143.100       43.305        0.092      335.972        6.959      857.314
04/04/2014  19:35:00     -117.670      211.893      -34.967       84.729       77.454       47.213     7178.936     5999.167     2229.090        3.768        0.770      242.374       47.517        0.038      335.953        6.926      857.318
04/04/2014  19:36:00     -157.818      193.454      -43.206       79.984       60.918       41.851     6397.385     3711.000     1751.522        3.803        0.593      249.662       40.707        0.027      335.946        6.915      857.320
04/04/2014  19:37:00     -173.785       92.907      -19.604       82.202       86.657       47.093     6757.184     7509.393     2217.707        2.785        0.824      197.060       46.567        0.056      335.928        6.886      857.316
04/04/2014  19:38:00     -147.395       36.236       -6.307       87.205       41.433       31.858     7604.654     1716.706     1014.946        1.671        0.517      151.783       19.426        0.016      335.942        6.911      857.317
04/04/2014  19:39:00      -91.873      120.288      -12.365       78.593      104.740       45.002     6176.805    10970.513     2025.205        2.111        0.959      151.360       51.637        0.116      335.915        6.865      857.315
04/04/2014  19:40:00     -116.525      101.325      -15.569       53.402       79.470       36.079     2851.722     6315.526     1301.668        1.728        0.523      154.417       28.653        0.034      335.916        6.868      857.315
04/04/2014  19:41:00     -163.271      179.315      -41.505       54.970       76.198       43.084     3021.708     5806.194     1856.274        3.561        0.534      242.510       34.424        0.020      335.904        6.845      857.333
04/04/2014  19:42:00     -159.436      202.017      -31.917       65.819      111.189       45.057     4332.078    12363.019     2030.117        4.298        0.936      257.354       37.712        0.021      335.895        6.831      857.340
04/04/2014  19:43:00     -223.829      226.320      -50.598       80.532      147.234       62.544     6485.406    21677.966     3911.765        6.797        1.604      318.308       48.358        0.023      335.876        6.796      857.324
04/04/2014  19:44:00     -128.067      199.437      -20.708       82.544      122.505       61.856     6813.504    15007.533     3826.112        4.112        1.282      237.016       68.783        0.084      335.886        6.814      857.334
04/04/2014  19:45:00     -158.812       66.281      -28.956       91.703       97.539       50.422     8409.441     9513.855     2542.350        2.546        1.023      172.088       42.791        0.062      335.914        6.863      857.328
04/04/2014  19:46:00     -252.898       91.006      -34.105      115.871      114.528       51.229    13426.060    13116.587     2624.404        5.128        1.458      268.774       40.478        0.023      335.851        6.756      857.345
04/04/2014  19:47:00     -324.232      106.604      -39.083      134.461      104.173       66.102    18079.719    10852.032     4369.429        7.565        1.665      341.307       68.275        0.040      335.858        6.767      857.364
04/04/2014  19:48:00     -190.131      104.738      -19.877      144.930      137.427       75.918    21004.705    18886.224     5763.508        4.658        2.283      217.071       87.265        0.162      335.873        6.795      857.370
04/04/2014  19:49:00     -140.603      189.731      -34.471       75.465      108.394       48.977     5694.948    11749.261     2398.719        3.840        0.992      236.151       40.467        0.029      335.883        6.810      857.375
04/04/2014  19:50:00     -183.493       70.956      -35.109       81.231       79.602       48.534     6598.508     6336.459     2355.597        2.761        0.765      196.735       35.393        0.032      335.874        6.797      857.393
04/04/2014  19:51:00     -134.429       82.159       -9.662       83.025       99.757       54.395     6893.156     9951.477     2958.860        2.236        0.990      157.547       34.220        0.047      335.861        6.774      857.391
04/04/2014  19:52:00     -262.731      106.448      -36.904      135.856      131.050       68.621    18456.808    17174.075     4708.802        6.102        2.017      283.476       67.428        0.057      335.858        6.768      857.425
04/04/2014  19:53:00     -178.046       96.557      -40.780      141.679      104.871       65.136    20072.819    10997.917     4242.681        3.899        1.766      202.543       72.879        0.129      335.857        6.769      857.426
04/04/2014  19:54:00     -273.168       52.648      -32.547      131.997      135.867       72.346    17423.329    18459.779     5234.006        5.978        2.056      278.195       73.487        0.070      335.848        6.750      857.427
04/04/2014  19:55:00     -164.290       34.032      -15.822      100.015       63.533       53.518    10002.936     4036.431     2864.132        2.265        0.845      167.778       43.754        0.068      335.822        6.711      857.447
04/04/2014  19:56:00     -211.337      -20.873      -36.150      101.694      104.689       49.267    10341.738    10959.851     2427.249        3.506        1.186      212.365       46.224        0.047      335.824        6.714      857.466
04/04/2014  19:57:00      -93.210       16.537       -7.217       91.858       76.878       47.310     8437.930     5910.243     2238.253        1.280        0.829       94.666       19.576        0.043      335.815        6.701      857.478
04/04/2014  19:58:00      -52.573      -37.709       -6.653       62.272       56.658       43.474     3877.787     3210.183     1889.993        0.660        0.449       64.699       21.519        0.111      335.813        6.697      857.483
04/04/2014  19:59:00      -60.030       16.399       -2.009       61.320       53.110       32.746     3760.164     2820.707     1072.276        0.576        0.383       62.230       30.581        0.241      335.804        6.681      857.484
04/04/2014  20:00:00     -143.785       21.624       -2.095      113.800      117.068       51.859    12950.477    13704.894     2689.407        2.524        1.467      145.402       52.118        0.128      335.777        6.635      857.488
04/04/2014  20:01:00     -115.969       44.980      -12.002       95.161      112.144       61.465     9055.565    12576.356     3777.994        2.051        1.270      124.386       60.713        0.238      335.764        6.615      857.487
04/04/2014  20:02:00     -219.635      -35.110      -23.471      125.299      120.223       58.459    15699.961    14453.541     3417.493        4.179        1.679      222.424       23.484        0.011      335.785        6.648      857.492
04/04/2014  20:03:00     -189.888      -31.839      -14.066      110.197      116.633       59.404    12143.347    13603.146     3528.807        3.327        1.464      192.539       33.511        0.030      335.732        6.559      857.509
04/04/2014  20:04:00     -291.568     -142.263      -15.129      115.692      108.043       71.045    13384.671    11673.333     5047.364        6.779        1.505      324.423       65.579        0.041      335.688        6.486      857.504
04/04/2014  20:05:00     -220.478      -33.396       -8.218      112.649       93.176       57.850    12689.864     8681.680     3346.612        3.725        1.236      222.993       61.990        0.077      335.669        6.453      857.498
04/04/2014  20:06:00     -168.610       45.944      -33.851       90.919      109.860       64.437     8266.334    12069.117     4152.089        2.808        1.224      174.757       55.142        0.100      335.719        6.538      857.495
04/04/2014  20:07:00     -260.941        8.750      -23.869      138.004      137.588       67.376    19044.974    18930.343     4539.471        5.562        2.126      261.087       82.198        0.099      335.708        6.519      857.500
04/04/2014  20:08:00     -159.982       13.333      -13.731      143.175      134.843       69.091    20499.110    18182.635     4773.540        3.470        2.173      160.536       79.604        0.246      335.751        6.592      857.505
04/04/2014  20:09:00     -122.526      -20.539        0.428       99.590       94.839       52.177     9918.173     8994.450     2722.416        1.853        1.082      124.235       49.027        0.156      335.796        6.666      857.530
04/04/2014  20:10:00     -184.215       59.369      -35.251      156.618      129.019       70.987    24529.245    16645.871     5039.216        4.245        2.311      193.546       83.265        0.185      335.825        6.716      857.544
04/04/2014  20:11:00      -90.220       62.182       -6.387       56.711       60.316       40.791     3216.086     3638.038     1663.890        1.028        0.426      109.573       33.169        0.092      335.871        6.793      857.554
04/04/2014  20:12:00     -104.513       38.911       -8.947       85.522       46.857       40.395     7313.951     2195.547     1631.741        1.183        0.557      111.521       46.400        0.173      335.888        6.822      857.584
04/04/2014  20:13:00      -80.931      103.588       -2.452      113.226      129.532       57.738    12820.094    16778.472     3333.692        2.510        1.647      131.455       55.786        0.180      335.870        6.791      857.615
04/04/2014  20:14:00     -165.816      -21.648      -14.332       96.765       94.127       43.972     9363.499     8859.861     1933.573        2.416        1.008      167.223       40.662        0.059      335.820        6.706      857.630
04/04/2014  20:15:00     -244.362      -90.165      -15.510      106.390       75.799       53.141    11318.745     5745.459     2824.008        4.398        0.994      260.466       55.902        0.046      335.752        6.593      857.659
04/04/2014  20:16:00     -231.156       31.495      -11.844       93.888      114.255       60.046     8814.901    13054.137     3605.514        4.001        1.274      233.292       51.252        0.048      335.706        6.514      857.699
04/04/2014  20:17:00     -240.225      100.968      -35.573       85.927       90.522       48.011     7383.375     8194.168     2305.011        4.352        0.894      260.581       34.770        0.018      335.709        6.520      857.730
04/04/2014  20:18:00     -259.618      147.079      -55.854       83.832      112.396       56.553     7027.739    12632.895     3198.262        5.750        1.143      298.386       34.418        0.013      335.707        6.517      857.730
04/04/2014  20:19:00     -293.054      113.221      -39.271      122.876      133.507       78.343    15098.462    17824.038     6137.615        6.964        1.953      314.165       68.409        0.047      335.760        6.605      857.749
04/04/2014  20:20:00     -203.623       88.787      -24.210       92.955      126.852       63.904     8640.626    16091.531     4083.763        3.937        1.441      222.138       56.441        0.065      335.753        6.594      857.749
04/04/2014  20:21:00     -164.004      134.633      -35.215       67.055       92.141       39.630     4496.381     8489.929     1570.519        3.041        0.728      212.187       25.402        0.014      335.795        6.664      857.754
04/04/2014  20:22:00      -76.079      105.775       -3.396       64.335      106.510       49.421     4138.950    11344.275     2442.429        1.745        0.896      130.293       32.610        0.063      335.826        6.717      857.742
04/04/2014  20:23:00      -68.262       95.364      -21.856       38.416       77.869       29.739     1475.803     6063.546      884.413        1.133        0.421      117.277       19.651        0.028      335.888        6.820      857.750
04/04/2014  20:24:00     -184.086      128.900      -27.897       81.648       74.985       47.911     6666.454     5622.702     2295.499        3.293        0.729      224.728       51.663        0.053      335.815        6.696      857.773
04/04/2014  20:25:00     -114.560       88.531      -21.082       42.000       66.287       28.988     1764.038     4394.023      840.330        1.420        0.350      144.781       25.695        0.031      335.784        6.648      857.789
04/04/2014  20:26:00     -127.760       54.854      -11.077       61.727       60.801       36.739     3810.161     3696.788     1349.784        1.415        0.443      139.038       20.934        0.023      335.776        6.634      857.807
04/04/2014  20:27:00     -197.424      -54.573      -13.629       68.192       79.596       37.951     4650.094     6335.500     1440.267        2.728        0.621      204.828       25.691        0.016      335.739        6.571      857.834
04/04/2014  20:28:00     -248.058      -77.199      -20.052       87.953       57.312       46.122     7735.692     3284.688     2127.271        4.052        0.657      259.793       43.843        0.028      335.656        6.431      857.846
04/04/2014  20:29:00     -240.369      -81.023      -21.830       82.687       50.654       34.445     6837.176     2565.813     1186.459        3.770        0.529      253.657       12.654        0.002      335.670        6.456      857.860
04/04/2014  20:30:00     -204.606      -64.213       -3.028      103.218       49.592       41.081    10653.892     2459.381     1687.654        3.040        0.740      214.445       40.178        0.035      335.646        6.416      857.871
04/04/2014  20:31:00      -41.785      -42.317        6.423       83.772       52.381       33.409     7017.804     2743.815     1116.142        0.723        0.544       59.470       25.069        0.178      335.726        6.552      857.888
04/04/2014  20:32:00     -154.217      -53.909       -8.176       97.598       45.570       38.432     9525.407     2076.588     1477.004        1.991        0.654      163.368       49.001        0.090      335.639        6.406      857.902
04/04/2014  20:33:00      -22.775       23.706      -12.339       34.612       53.515       22.493     1197.982     2863.850      505.922        0.290        0.228       32.874       13.520        0.169      335.717        6.537      857.913
04/04/2014  20:34:00     -101.104       94.647      -21.461       56.074       88.550       39.304     3144.270     7841.131     1544.788        1.608        0.627      138.492       41.952        0.092      335.688        6.488      857.936
04/04/2014  20:35:00     -120.089      100.651      -26.715       57.868       83.338       39.348     3348.726     6945.141     1548.231        1.855        0.592      156.690       42.186        0.072      335.642        6.410      857.941
04/04/2014  20:36:00      -60.792      -28.621       -8.857       49.391       41.355       35.637     2439.498     1710.216     1269.997        0.501        0.271       67.192       18.770        0.078      335.682        6.480      857.955
04/04/2014  20:37:00       -9.968      -56.256        3.211       45.139       28.277       29.376     2037.564      799.579      862.920        0.349        0.185       57.132       25.879        0.205      335.663        6.448      857.975
04/04/2014  20:38:00      -38.265      -34.748        8.391       33.990       41.178       26.793     1155.345     1695.626      717.876        0.315        0.178       51.688       20.417        0.156      335.522        6.212      857.989
04/04/2014  20:39:00      -84.409       75.205      -14.670       46.775       71.071       33.192     2187.938     5051.131     1101.690        1.067        0.417      113.052       34.406        0.093      335.599        6.342      858.015
04/04/2014  20:40:00      -37.802       84.422       -8.464       43.043       51.488       28.310     1852.658     2651.062      801.458        0.697        0.265       92.498       22.680        0.060      335.749        6.590      858.029
04/04/2014  20:41:00      -58.513       22.277        0.223       72.891       67.392       36.389     5313.055     4541.745     1324.168        0.755        0.559       62.610       35.722        0.326      335.855        6.766      858.025
04/04/2014  20:42:00     -112.075      -13.864       -2.484       44.188       55.189       23.020     1952.545     3045.859      529.920        0.914        0.276      112.929       19.819        0.031      335.781        6.643      858.039
04/04/2014  20:43:00      -50.754        3.002       15.568       74.912       45.253       29.235     5611.808     2047.870      854.691        0.567        0.426       50.843       36.460        0.514      335.711        6.526      858.091
04/04/2014  20:44:00      -97.002      -37.479        5.711       77.899       47.393       32.481     6068.224     2246.121     1054.988        1.011        0.468      103.991       38.713        0.139      335.628        6.390      858.117
04/04/2014  20:45:00     -123.907        1.606       -3.406       41.706       48.045       25.431     1739.402     2308.348      646.736        1.003        0.235      123.917       25.335        0.042      335.593        6.329      858.124
04/04/2014  20:46:00      -90.875       20.072      -10.116       36.924       32.957       29.158     1363.388     1086.167      850.188        0.603        0.165       93.065       23.328        0.063      335.624        6.383      858.121
04/04/2014  20:47:00      -72.487      -13.284       -2.207       31.281       24.524       18.940      978.513      601.437      358.711        0.369        0.097       73.694       16.241        0.049      335.595        6.333      858.124
04/04/2014  20:48:00      -76.914       32.851      -10.941       39.430       36.098       24.783     1554.742     1303.054      614.201        0.529        0.174       83.635       31.582        0.143      335.572        6.295      858.134
04/04/2014  20:49:00     -104.417       15.476       -7.007       56.107       33.226       23.461     3148.037     1103.975      550.405        0.800        0.240      105.558       27.109        0.066      335.593        6.331      858.139
04/04/2014  20:50:00     -157.185       -9.110      -18.229       28.396       28.240       20.433      806.326      797.513      417.521        1.357        0.101      157.448       12.036        0.006      335.623        6.379      858.147
04/04/2014  20:51:00     -148.911      -90.657       -6.455       39.760       37.569       21.714     1580.889     1411.454      471.499        1.695        0.173      174.336        7.854        0.002      335.651        6.428      858.158
04/04/2014  20:52:00     -115.164      -35.632        7.454       51.556       45.019       27.590     2658.059     2026.735      761.185        1.002        0.272      120.550       25.607        0.045      335.541        6.243      858.167
04/04/2014  20:53:00     -165.999      -33.047       -1.680       63.687       38.118       31.669     4056.006     1452.991     1002.952        1.758        0.326      169.257       35.241        0.043      335.552        6.261      858.170
04/04/2014  20:54:00     -129.696      -48.898       -2.021       44.125       41.300       27.621     1946.995     1705.674      762.928        1.181        0.221      138.608       23.254        0.028      335.565        6.283      858.177
04/04/2014  20:55:00     -163.386      -38.079      -15.497       34.016       56.241       27.300     1157.058     3163.065      745.289        1.672        0.253      167.764       21.847        0.017      335.560        6.275      858.191
04/04/2014  20:56:00     -164.580      -48.761      -16.004       43.319       41.871       25.995     1876.501     1753.220      675.715        1.701        0.215      171.652       24.436        0.020      335.480        6.142      858.196
04/04/2014  20:57:00     -153.493       -4.310      -11.772       38.736       48.849       27.175     1500.491     2386.177      738.491        1.417        0.231      153.553       23.418        0.023      335.426        6.051      858.199
04/04/2014  20:58:00     -139.796       11.346      -19.196       24.355       22.072       16.897      593.183      487.158      285.496        1.070        0.068      140.255        9.009        0.004      335.403        6.014      858.188
04/04/2014  20:59:00      -84.523        3.537       -9.273       31.922       39.042       16.984     1018.987     1524.313      288.447        0.504        0.142       84.597       11.400        0.018      335.416        6.033      858.195
04/04/2014  21:00:00     -105.410       37.496      -12.255       33.783       36.679       25.302     1141.263     1345.349      640.174        0.790        0.156      111.880       24.229        0.047      335.355        5.932      858.203
04/04/2014  21:01:00     -120.510       20.057      -10.338       72.741       32.630       22.797     5291.304     1064.724      519.693        1.095        0.344      122.168       28.307        0.054      335.270        5.791      858.202
04/04/2014  21:02:00      -85.201       90.296      -11.424       35.189       56.814       29.483     1238.286     3227.858      869.244        1.044        0.267      124.148       27.337        0.048      335.282        5.811      858.203
04/04/2014  21:03:00      -80.194       80.364      -15.771       30.608       46.192       23.800      936.822     2133.687      566.447        0.839        0.182      113.532       18.784        0.027      335.301        5.843      858.215
04/04/2014  21:04:00     -120.039      145.567      -23.707       67.460       67.492       35.899     4550.852     4555.179     1288.705        2.328        0.520      188.677       41.345        0.048      335.368        5.952      858.224
04/04/2014  21:05:00     -135.650      191.769      -32.778       58.712       62.403       35.556     3447.098     3894.121     1264.263        3.243        0.430      234.897       34.803        0.022      335.279        5.804      858.247
04/04/2014  21:06:00     -108.696      141.398      -20.007       46.113       74.243       34.980     2126.446     5512.053     1223.612        2.053        0.443      178.348       29.272        0.027      335.263        5.778      858.276
04/04/2014  21:07:00     -202.963       84.964      -36.413       89.389       89.211       41.455     7990.360     7958.656     1718.483        3.370        0.883      220.030       36.392        0.027      335.269        5.788      858.300
04/04/2014  21:08:00     -133.164      -17.745        0.405      114.173       52.034       41.600    13035.499     2707.513     1730.528        1.776        0.874      134.341       48.874        0.132      335.235        5.731      858.306
04/04/2014  21:09:00      -63.086       35.622       -6.980       44.824       73.561       29.214     2009.229     5411.185      853.452        0.678        0.414       72.448       23.450        0.105      335.223        5.714      858.324
04/04/2014  21:10:00      -71.926      102.663      -18.725       47.181       77.484       37.015     2226.082     6003.711     1370.133        1.283        0.480      125.352       18.353        0.021      335.314        5.865      858.345
04/04/2014  21:11:00     -143.384        2.025       -7.054       70.500       85.883       42.615     4970.199     7375.938     1816.011        1.738        0.708      143.398       31.288        0.048      335.295        5.831      858.379
04/04/2014  21:12:00      -80.512      135.898      -22.649       49.088       90.640       38.493     2409.672     8215.671     1481.698        1.878        0.605      157.957       29.687        0.035      335.223        5.712      858.398
04/04/2014  21:13:00     -149.381       86.605      -15.034       73.306       64.856       35.330     5373.824     4206.348     1248.204        2.043        0.541      172.671       31.540        0.033      335.197        5.669      858.421
04/04/2014  21:14:00     -150.925      195.624      -36.557       63.946       70.713       51.914     4089.045     5000.288     2695.025        3.708        0.589      247.077       41.298        0.028      335.217        5.700      858.439
04/04/2014  21:15:00     -190.767       64.597      -21.215       76.608       67.273       34.558     5868.717     4525.650     1194.271        2.630        0.579      201.407       18.718        0.009      335.196        5.666      858.436
04/04/2014  21:16:00     -148.617        4.615      -22.871       45.506       52.826       28.214     2070.784     2790.552      796.052        1.414        0.283      148.689       16.436        0.012      335.197        5.670      858.435
04/04/2014  21:17:00     -124.329       50.276      -21.292       49.593       92.794       33.389     2459.482     8610.639     1114.841        1.531        0.609      134.110       39.712        0.088      335.202        5.679      858.440
04/04/2014  21:18:00      -96.471       52.917      -17.099       45.093       80.387       31.236     2033.392     6461.997      975.687        1.093        0.474      110.031       36.320        0.109      335.210        5.692      858.446
04/04/2014  21:19:00     -129.754       46.743      -33.947       59.681       30.758       35.713     3561.863      946.041     1275.446        1.298        0.289      137.917       20.584        0.022      335.179        5.641      858.449
04/04/2014  21:20:00      -88.374       82.809      -13.678       57.127       60.286       32.807     3263.533     3634.418     1076.298        1.141        0.399      121.109       28.832        0.057      335.211        5.692      858.469
04/04/2014  21:21:00      -76.541       48.516      -17.328       32.650       55.347       19.174     1066.040     3063.306      367.638        0.650        0.225       90.622       17.393        0.037      335.168        5.621      858.475
04/04/2014  21:22:00      -60.452        2.188       -5.507       34.314       38.869       23.278     1177.426     1510.792      541.868        0.346        0.162       60.491       21.081        0.121      335.132        5.564      858.469
04/04/2014  21:23:00      -52.130       88.765       -2.380       49.532       56.527       26.828     2453.372     3195.358      719.768        0.848        0.318      102.941       18.511        0.032      335.172        5.630      858.465
04/04/2014  21:24:00     -102.826      128.398      -13.429       47.620       67.545       36.202     2267.673     4562.291     1310.598        1.769        0.407      164.497       26.649        0.026      335.130        5.559      858.479
04/04/2014  21:25:00      -99.651      135.018      -14.450       51.680       65.829       38.082     2670.837     4333.430     1450.255        1.841        0.423      167.810       31.990        0.036      335.137        5.570      858.492
04/04/2014  21:26:00     -150.600       30.852      -16.733       56.252       75.478       29.782     3164.316     5697.001      886.969        1.683        0.487      153.727       28.907        0.035      335.134        5.564      858.491
04/04/2014  21:27:00      -65.931       47.445       -8.108       36.309       37.130       22.431     1318.318     1378.660      503.158        0.493        0.160       81.227       14.967        0.034      335.084        5.484      858.491
04/04/2014  21:28:00      -56.534       75.024      -12.668       34.901       35.515       19.354     1218.048     1261.340      374.561        0.592        0.143       93.940       17.392        0.034      335.157        5.604      858.493
04/04/2014  21:29:00      -87.757       47.267       -9.216       31.283       42.868       20.360      978.602     1837.683      414.518        0.662        0.162       99.677       11.406        0.013      335.135        5.570      858.502
04/04/2014  21:30:00     -129.783       45.260      -22.039       41.743       49.819       28.245     1742.475     2481.913      797.785        1.220        0.251      137.449       26.525        0.037      335.090        5.495      858.513
04/04/2014  21:31:00      -92.230       32.712      -14.116       40.572       49.963       20.926     1646.062     2496.278      437.896        0.718        0.229       97.859       24.275        0.062      335.101        5.512      858.517
04/04/2014  21:32:00      -82.997       97.698      -12.804       46.728       51.697       37.255     2183.502     2672.600     1387.935        1.142        0.312      128.193       36.701        0.082      335.157        5.605      858.525
04/04/2014  21:33:00     -114.838       -5.740      -10.985       52.374       58.098       29.511     2743.035     3375.323      870.888        1.016        0.349      114.981       20.538        0.032      335.097        5.505      858.525
04/04/2014  21:34:00     -135.230       51.843      -11.174       56.926       51.686       29.762     3240.515     2671.448      885.798        1.395        0.340      144.827       21.083        0.021      335.072        5.465      858.525
04/04/2014  21:35:00     -132.401       56.169      -23.765       70.373       66.525       38.136     4952.365     4425.607     1454.330        1.604        0.542      143.823       38.307        0.071      335.098        5.507      858.533
04/04/2014  21:36:00     -184.715       49.278      -23.589       42.959       47.884       27.053     1845.449     2292.872      731.848        2.099        0.244      191.175       18.872        0.010      335.027        5.386      858.547
04/04/2014  21:37:00     -153.266       20.674      -19.353       47.709       50.785       36.656     2276.144     2579.082     1343.627        1.524        0.310      154.654       28.193        0.033      335.043        5.415      858.547
04/04/2014  21:38:00     -156.636      -39.654      -16.397       88.048       73.082       38.509     7752.364     5341.050     1482.956        2.047        0.729      161.578       44.664        0.076      335.021        5.379      858.546
04/04/2014  21:39:00     -163.012      -61.775      -23.817       50.152       51.694       38.224     2515.262     2672.309     1461.109        1.880        0.332      174.324       16.880        0.009      335.051        5.429      858.544
04/04/2014  21:40:00      -62.302       13.564        4.019       47.371       60.454       42.156     2244.003     3654.690     1777.133        0.588        0.384       63.761       37.557        0.347      334.980        5.310      858.543
04/04/2014  21:41:00     -118.230       28.170      -26.270       41.807       45.138       29.961     1747.794     2037.455      897.645        1.007        0.234      121.539       24.209        0.040      335.028        5.390      858.557
04/04/2014  21:42:00     -124.239       25.316      -26.941       53.774       54.198       25.584     2891.642     2937.407      654.516        1.164        0.324      126.792       37.376        0.087      334.985        5.317      858.563
04/04/2014  21:43:00      -88.158       20.527      -11.368       31.493       29.115       18.480      991.818      847.678      341.497        0.525        0.109       90.516       12.604        0.019      334.990        5.329      858.563
04/04/2014  21:44:00     -136.650       77.654      -21.923       46.686       82.118       35.103     2179.542     6743.320     1232.236        1.767        0.508      157.173       34.587        0.048      334.998        5.340      858.566
04/04/2014  21:45:00     -215.140       32.034      -25.351      139.540       60.361       44.153    19471.419     3643.393     1949.460        3.650        1.253      217.512       66.229        0.093      335.079        5.474      858.560
04/04/2014  21:46:00     -141.859      -35.754       -8.681       58.064       64.494       39.995     3371.411     4159.444     1599.585        1.530        0.457      146.296       25.560        0.031      335.039        5.408      858.555
04/04/2014  21:47:00     -138.011      -82.889       -9.159       96.335       83.817       39.652     9280.452     7025.216     1572.262        2.194        0.894      160.990       34.359        0.046      334.990        5.326      858.569
04/04/2014  21:48:00     -216.251      -47.186       -6.387       53.823       57.079       32.714     2896.893     3257.966     1070.222        2.813        0.361      221.339       24.046        0.012      334.853        5.096      858.593
04/04/2014  21:49:00     -128.819       -6.173        0.616       58.335       50.593       30.343     3403.012     2559.698      920.681        1.176        0.344      128.967       21.576        0.028      334.832        5.066      858.600
04/04/2014  21:50:00     -222.144      -44.119      -28.098       38.700       49.091       28.907     1497.706     2409.935      835.618        2.841        0.237      226.483       20.852        0.008      334.920        5.209      858.605
04/04/2014  21:51:00     -273.046        1.332      -33.064       80.883       52.317       36.557     6542.121     2737.029     1336.429        4.313        0.531      273.049       28.382        0.011      334.911        5.192      858.608
04/04/2014  21:52:00     -137.005      -55.752       -8.715       79.721       61.226       37.001     6355.394     3748.638     1369.063        1.671        0.574      147.914       36.131        0.060      334.936        5.238      858.619
04/04/2014  21:53:00     -121.083      -37.527      -13.139       58.465       58.385       40.324     3418.167     3408.770     1626.012        1.235        0.423      126.765       27.089        0.046      334.904        5.184      858.630
04/04/2014  21:54:00      -50.640       38.957       11.637       31.250       35.593       26.945      976.575     1266.849      726.025        0.359        0.148       63.891       17.323        0.074      334.906        5.188      858.632
04/04/2014  21:55:00     -102.253      -64.132      -15.359       50.483       55.158       31.167     2548.512     3042.391      971.378        1.068        0.328      120.701       22.679        0.035      334.936        5.237      858.638
04/04/2014  21:56:00     -144.517      -44.533       -9.013       62.270       59.180       28.724     3877.584     3502.290      825.039        1.558        0.410      151.223       27.212        0.032      334.891        5.160      858.635
04/04/2014  21:57:00     -179.563      -28.500      -25.501       45.713       46.114       33.527     2089.673     2126.502     1124.093        1.952        0.267      181.811       22.595        0.015      334.878        5.141      858.638
04/04/2014  21:58:00     -124.524        5.776       -6.984       66.229       43.788       24.383     4386.318     1917.369      594.515        1.124        0.345      124.658       32.116        0.066      334.887        5.155      858.630
04/04/2014  21:59:00     -100.969       -2.295       -8.407       31.677       48.957       23.817     1003.449     2396.775      567.240        0.712        0.198      100.995       12.790        0.016      334.885        5.152      858.621
04/04/2014  22:00:00      -69.322       23.392      -21.051       38.059       43.212       17.814     1448.485     1867.304      317.330        0.471        0.182       73.162       18.718        0.065      334.884        5.152      858.604
04/04/2014  22:01:00     -119.069       26.940      -24.847       33.329       25.651       16.367     1110.815      657.956      267.881        0.878        0.102      122.079       13.528        0.012      334.873        5.132      858.594
04/04/2014  22:02:00      -87.522       32.151       -9.779       26.567       28.620       22.250      705.825      819.121      495.044        0.540        0.101       93.240       15.013        0.026      334.878        5.140      858.588
04/04/2014  22:03:00      -80.309       91.043      -16.222       34.074       43.338       28.223     1161.038     1878.151      796.520        0.942        0.192      121.402       17.566        0.021      334.987        5.323      858.585
04/04/2014  22:04:00     -101.720       96.971      -22.023       33.403       37.057       24.389     1115.773     1373.223      594.829        1.166        0.154      140.536       21.104        0.023      334.932        5.229      858.581
04/04/2014  22:05:00      -96.869       69.240      -19.228       25.348       36.198       20.664      642.532     1310.325      427.013        0.846        0.119      119.071       16.010        0.018      334.947        5.254      858.581
04/04/2014  22:06:00     -118.792       62.801      -23.847       31.370       38.661       18.842      984.097     1494.670      355.012        1.073        0.142      134.371       16.109        0.014      334.943        5.248      858.576
04/04/2014  22:07:00      -71.972       42.635      -10.112       56.151       48.798       24.523     3152.904     2381.262      601.390        0.662        0.307       83.652       20.293        0.059      334.907        5.189      858.572
04/04/2014  22:08:00      -63.487       27.504       -7.190       21.953       48.660       21.290      481.937     2367.820      453.258        0.407        0.165       69.189       15.914        0.053      334.969        5.293      858.570
04/04/2014  22:09:00     -116.128       57.206      -26.248       41.089       44.160       33.558     1688.300     1950.075     1126.124        1.110        0.238      129.454       25.667        0.039      334.952        5.263      858.592
04/04/2014  22:10:00      -70.899        3.453       -8.153       48.648       46.329       24.506     2366.642     2146.393      600.537        0.511        0.256       70.983       20.145        0.081      334.941        5.246      858.602
04/04/2014  22:11:00      -95.839       50.005       -8.599       63.985       53.220       34.085     4094.138     2832.334     1161.817        0.992        0.404      108.100       34.100        0.100      334.929        5.226      858.597
04/04/2014  22:12:00      -92.590       21.785      -13.872       56.222       24.865       22.447     3160.881      618.253      503.864        0.676        0.214       95.118       24.614        0.067      334.922        5.216      858.601
04/04/2014  22:13:00     -103.431       62.043      -24.166       35.138       47.316       23.295     1234.711     2238.767      542.653        0.957        0.201      120.612       18.863        0.024      334.939        5.242      858.592
04/04/2014  22:14:00      -63.649       87.007      -14.485       29.046       40.182       21.581      843.642     1614.602      465.743        0.738        0.146      107.803       13.807        0.016      334.957        5.273      858.585
04/04/2014  22:15:00      -49.873       65.838      -21.804       22.962       34.505       17.729      527.276     1190.601      314.302        0.466        0.102       82.595       15.294        0.034      334.875        5.138      858.571
04/04/2014  22:16:00      -40.988       25.660      -11.266       23.481       30.370       13.229      551.353      922.318      175.011        0.206        0.082       48.357       10.179        0.044      334.948        5.258      858.559
04/04/2014  22:17:00      -75.464       93.792      -15.381       29.893       42.809       29.984      893.571     1832.606      899.058        0.918        0.181      120.381       27.190        0.051      334.959        5.277      858.568
04/04/2014  22:18:00      -90.505       63.889      -17.864       33.914       27.752       18.170     1150.145      770.164      330.159        0.742        0.113      110.783       19.675        0.032      334.921        5.211      858.579
04/04/2014  22:19:00      -66.882       19.763       -7.202       16.816       18.555       11.988      282.767      344.298      143.713        0.284        0.039       69.741        8.990        0.017      334.883        5.150      858.587
04/04/2014  22:20:00      -56.282      113.940      -18.004       36.375       51.981       21.006     1323.163     2701.996      441.257        1.047        0.223      127.083       17.070        0.018      334.886        5.154      858.596
04/04/2014  22:21:00       -7.317      204.774      -15.700       53.885       81.726       39.701     2903.553     6679.205     1576.148        2.669        0.558      204.904       41.662        0.041      334.907        5.187      858.579
04/04/2014  22:22:00       35.862      170.581      -31.545       64.823       60.753       34.004     4202.008     3690.938     1156.274        2.021        0.452      174.310       32.029        0.034      334.882        5.146      858.539
04/04/2014  22:23:00       58.634      174.206      -32.662       46.830       50.774       34.257     2193.015     2578.045     1173.563        2.040        0.297      183.809       25.867        0.020      335.083        5.481      858.525
04/04/2014  22:24:00       -5.986       34.886      -16.745       64.314       55.203       25.674     4136.308     3047.426      659.151        0.469        0.392       35.395       22.010        0.387      335.090        5.493      858.536
04/04/2014  22:25:00     -168.550      -66.360       -5.027       89.949       79.440       35.284     8090.820     6310.792     1244.942        2.424        0.782      181.143       22.965        0.016      334.864        5.116      858.560
04/04/2014  22:26:00      -89.531       18.317      -20.458       39.588       36.346       22.661     1567.203     1321.034      513.504        0.609        0.170       91.386       19.763        0.047      334.865        5.119      858.572
04/04/2014  22:27:00      -99.178        3.681      -19.324       38.187       64.568       17.837     1458.220     4169.044      318.171        0.808        0.297       99.246       23.523        0.056      334.879        5.142      858.558
04/04/2014  22:28:00      -26.679      -38.915        0.553       40.807       30.956       24.051     1665.244      958.290      578.464        0.271        0.160       47.182       20.117        0.182      334.863        5.116      858.541
04/04/2014  22:29:00       24.306        8.076       -7.336       15.207       33.144       20.641      231.248     1098.492      426.040        0.123        0.088       25.612       14.097        0.303      335.075        5.469      858.509
04/04/2014  22:30:00     -116.876       70.087      -10.818       94.768       57.700       24.696     8981.018     3329.245      609.893        1.580        0.646      136.280       28.243        0.043      335.138        5.573      858.510
04/04/2014  22:31:00     -150.983       85.444      -23.093       59.740       32.209       29.373     3568.919     1037.447      862.750        1.805        0.273      173.484       27.117        0.024      335.163        5.612      858.515
04/04/2014  22:32:00     -176.071       28.319      -20.172       33.505       29.831       18.808     1122.576      889.916      353.744        1.729        0.118      178.334       15.376        0.007      335.127        5.555      858.511
04/04/2014  22:33:00     -138.993       37.945      -23.399       53.620       50.756       26.617     2875.065     2576.166      708.466        1.373        0.308      144.079       24.866        0.030      334.999        5.341      858.536
04/04/2014  22:34:00      -46.931      116.398      -10.455       54.562       53.372       38.027     2977.019     2848.617     1446.031        1.156        0.364      125.503       38.795        0.096      335.044        5.418      858.528
04/04/2014  22:35:00      -83.650       43.288       -4.950       24.992       45.519       19.850      624.597     2071.944      394.006        0.599        0.155       94.187       12.003        0.016      335.010        5.361      858.538
04/04/2014  22:36:00     -109.772      -18.143      -17.415       31.067       34.732       18.066      965.135     1206.313      326.379        0.759        0.125      111.261       11.981        0.012      334.928        5.225      858.545
04/04/2014  22:37:00      -85.593      -40.981      -10.393       79.339       34.791       27.278     6294.622     1210.424      744.090        0.868        0.412       94.898       27.482        0.084      334.892        5.164      858.541
04/04/2014  22:38:00     -140.009      -43.829      -27.524       48.000       34.238       22.988     2304.047     1172.241      528.450        1.314        0.200      146.709       10.338        0.005      334.831        5.063      858.559
04/04/2014  22:39:00      -36.871       -9.954        8.533       55.681       35.595       29.021     3100.350     1266.991      842.199        0.337        0.260       38.191       23.872        0.391      334.781        4.979      858.563
04/04/2014  22:40:00      -56.492       -1.901        0.933       39.038       20.142       20.458     1523.941      405.717      418.519        0.277        0.117       56.524       23.185        0.168      334.798        5.009      858.551
04/04/2014  22:41:00     -129.225       29.712      -24.431       60.670       68.061       24.903     3680.853     4632.240      620.154        1.355        0.447      132.597       23.078        0.030      334.956        5.271      858.555
04/04/2014  22:42:00     -138.268       17.565       -8.249       59.782       66.025       37.153     3573.925     4359.254     1380.353        1.440        0.466      139.379       38.523        0.076      334.995        5.335      858.562
04/04/2014  22:43:00     -191.222      -60.060       -9.872       58.782       58.925       27.579     3455.368     3472.209      760.589        2.398        0.384      200.432       19.951        0.010      334.931        5.227      858.573
04/04/2014  22:44:00     -210.671      -58.588      -13.181       53.121       46.335       42.091     2821.834     2146.905     1771.692        2.736        0.337      218.666       37.804        0.030      334.849        5.089      858.583
04/04/2014  22:45:00     -201.698       -9.938      -23.324       40.182       37.690       24.455     1614.607     1420.567      598.061        2.248        0.182      201.943       20.743        0.011      334.972        5.295      858.577
04/04/2014  22:46:00     -151.050       23.184      -24.024       41.387       57.102       23.088     1712.882     3260.599      533.043        1.472        0.275      152.819       19.346        0.016      334.880        5.144      858.567
04/04/2014  22:47:00      -78.830      -55.415        5.581       61.016       34.731       29.896     3722.919     1206.268      893.787        0.757        0.291       96.358       26.986        0.078      334.808        5.023      858.561
04/04/2014  22:48:00     -103.915      -41.015      -10.537       41.711       47.308       28.185     1739.802     2238.000      794.412        0.868        0.239      111.716       22.145        0.039      334.795        5.003      858.568
04/04/2014  22:49:00     -106.698      -18.454      -16.096       60.233       26.275       27.731     3628.071      690.394      769.009        0.853        0.254      108.282       34.328        0.101      334.776        4.973      858.567
04/04/2014  22:50:00     -105.615        4.371      -20.078       35.678       43.245       20.141     1272.940     1870.119      405.655        0.756        0.177      105.706       15.784        0.022      334.759        4.942      858.568
04/04/2014  22:51:00     -151.347      -35.098      -19.099       29.845       37.476       16.934      890.712     1404.422      286.761        1.354        0.129      155.364        8.365        0.003      334.730        4.895      858.564
04/04/2014  22:52:00     -122.289       -6.562      -18.565       37.509       37.319       21.439     1406.907     1392.718      459.629        0.930        0.163      122.465       10.385        0.007      334.792        4.998      858.564
04/04/2014  22:53:00     -181.230      -59.062      -16.812       43.032       50.952       27.671     1851.746     2596.142      765.667        2.091        0.261      190.611       24.325        0.016      334.748        4.924      858.580
04/04/2014  22:54:00     -141.055      -59.815      -14.771       50.180       47.663       29.180     2518.019     2271.767      851.469        1.467        0.282      153.214       25.700        0.028      334.693        4.833      858.590
04/04/2014  22:55:00     -138.578       38.794      -13.751       64.094       60.529       39.075     4108.002     3663.768     1526.886        1.510        0.465      143.906       35.965        0.062      334.858        5.107      858.586
04/04/2014  22:56:00     -130.280      -12.473      -17.861       37.906       44.538       27.850     1436.886     1983.637      775.601        1.082        0.210      130.875       25.328        0.037      334.801        5.013      858.588
04/04/2014  22:57:00      -81.366      -51.037       -1.548       66.191       37.836       32.249     4381.312     1431.552     1040.017        0.804        0.343       96.047       41.375        0.186      334.769        4.959      858.594
04/04/2014  22:58:00     -124.794      -41.669      -17.988       50.387       48.912       30.847     2538.856     2392.427      951.551        1.176        0.294      131.567       23.181        0.031      334.743        4.917      858.598
04/04/2014  22:59:00     -130.018      -49.376       -1.836       62.065       56.214       30.233     3852.055     3159.978      914.035        1.363        0.396      139.078       27.424        0.039      334.671        4.796      858.628
04/04/2014  23:00:00     -134.541      -28.492      -16.809       37.124       30.252       20.626     1378.170      915.175      425.444        1.096        0.136      137.525       16.686        0.015      334.628        4.724      858.644
04/04/2014  23:01:00     -127.614        3.586      -11.547       43.792       58.156       29.141     1917.758     3382.156      849.184        1.129        0.307      127.665       24.780        0.038      334.519        4.545      858.648
04/04/2014  23:02:00     -103.155      -44.510      -10.795       79.379       51.516       29.977     6300.964     2653.948      898.610        1.129        0.493      112.348       27.617        0.060      334.537        4.574      858.648
04/04/2014  23:03:00     -113.305      -51.374      -12.667       61.617       38.279       34.065     3796.695     1465.245     1160.431        1.103        0.321      124.408       16.490        0.018      334.540        4.580      858.663
04/04/2014  23:04:00     -138.259       -8.980      -19.405       41.069       49.399       28.744     1686.700     2440.294      826.196        1.226        0.248      138.550       16.345        0.014      334.520        4.547      858.680
04/04/2014  23:05:00     -125.206      -68.833      -22.558       54.019       52.268       29.491     2918.052     2731.965      869.723        1.372        0.326      142.879       23.892        0.028      334.554        4.600      858.683
04/04/2014  23:06:00     -112.617      -45.877      -14.313       41.735       32.849       22.242     1741.801     1079.033      494.698        0.915        0.166      121.603       10.391        0.007      334.544        4.585      858.694
04/04/2014  23:07:00     -119.603      -10.000       -5.468       45.877       36.725       21.820     2104.737     1348.732      476.123        0.918        0.196      120.021       21.724        0.033      334.499        4.511      858.701
04/04/2014  23:08:00      -48.253       38.892       -6.836       34.092       34.763       22.695     1162.269     1208.444      515.045        0.339        0.144       61.975       20.071        0.105      334.587        4.657      858.707
04/04/2014  23:09:00      -59.917        1.974       -1.896       42.626       42.212       24.030     1816.998     1781.829      577.432        0.389        0.209       59.950       23.694        0.156      334.543        4.585      858.707
04/04/2014  23:10:00       -3.308       -0.740        5.608       23.947       25.078       19.775      573.476      628.897      391.052        0.082        0.080        3.390       17.267       25.946      334.494        4.503      858.710
04/04/2014  23:11:00     -162.056       -3.769      -22.424       39.855       46.028       21.289     1588.389     2118.576      453.226        1.547        0.208      162.099       14.765        0.008      334.578        4.642      858.720
04/04/2014  23:12:00     -108.223       -3.785      -15.601       22.055       32.809       15.523      486.437     1076.408      240.971        0.689        0.090      108.289       11.033        0.010      334.558        4.609      858.734
04/04/2014  23:13:00      -71.120       -4.414       -9.108       44.917       32.022       23.780     2017.525     1025.426      565.482        0.438        0.180       71.257       25.622        0.129      334.600        4.679      858.741
04/04/2014  23:14:00      -50.927        4.660      -15.403       17.516       19.501       11.834      306.799      380.287      140.037        0.184        0.041       51.140        8.009        0.025      334.653        4.767      858.750
04/04/2014  23:15:00      -93.178      -40.398      -14.206       22.927       18.855        9.863      525.630      355.504       97.285        0.575        0.049      101.558        7.045        0.005      334.589        4.662      858.756
04/04/2014  23:16:00     -105.718      -39.517       -5.022       13.975       14.260       18.509      195.296      203.351      342.585        0.675        0.037      112.862        8.351        0.005      334.540        4.580      858.765
04/04/2014  23:17:00      -84.738      -34.038       -8.544       28.169       20.209       15.121      793.495      408.397      228.651        0.492        0.072       91.319        6.102        0.004      334.579        4.644      858.775
04/04/2014  23:18:00      -81.256      -44.721      -10.524       26.275       15.106       15.099      690.390      228.192      227.966        0.493        0.057       92.750        7.788        0.007      334.554        4.605      858.781
04/04/2014  23:19:00      -65.778      -42.793       -9.573       22.070       14.134        9.844      487.084      199.784       96.912        0.352        0.039       78.473        6.074        0.006      334.578        4.644      858.777
04/04/2014  23:20:00      -77.846      -20.578       -8.122       19.308       18.612       13.285      372.804      346.416      176.479        0.372        0.045       80.520        7.609        0.009      334.480        4.479      858.788
04/04/2014  23:21:00      -78.676      -24.395       -2.558       27.672       23.647       15.084      765.731      559.167      227.530        0.417        0.078       82.371       14.215        0.030      334.415        4.374      858.803
04/04/2014  23:22:00      -79.621      -19.096       -1.262       34.879       19.707       10.813     1216.577      388.383      116.932        0.421        0.086       81.879        9.367        0.013      334.407        4.360      858.810
04/04/2014  23:23:00     -129.404      -16.646      -14.063       26.876       19.554       16.275      722.299      382.339      264.865        0.929        0.068      130.471       14.154        0.012      334.432        4.400      858.825
04/04/2014  23:24:00      -85.926       -8.234       -9.203       38.084       27.983       13.101     1450.375      783.058      171.633        0.497        0.120       86.320       14.785        0.029      334.403        4.353      858.831
04/04/2014  23:25:00      -61.273       17.705       -4.615       29.933       17.167       14.580      895.988      294.696      212.582        0.275        0.070       63.779        6.328        0.010      334.422        4.384      858.833
04/04/2014  23:26:00     -111.940       -2.738      -13.495       18.182       17.383        8.971      330.571      302.159       80.486        0.672        0.036      111.974        6.963        0.004      334.566        4.624      858.834
04/04/2014  23:27:00      -75.241        6.913      -10.070       28.785       24.201       10.896      828.555      585.672      118.718        0.367        0.077       75.558        3.332        0.002      334.494        4.504      858.838
04/04/2014  23:28:00      -90.654       16.786      -13.005       21.990       30.128       13.392      483.549      907.700      179.354        0.512        0.079       92.195       12.734        0.019      334.595        4.670      858.840
04/04/2014  23:29:00      -85.048       11.218       -9.921       18.859       25.248       16.499      355.666      637.462      272.218        0.436        0.063       85.784        7.522        0.008      334.515        4.537      858.844
04/04/2014  23:30:00     -150.634       22.996      -23.847       37.006       18.686       14.763     1369.425      349.174      217.955        1.286        0.097      152.379       14.531        0.009      334.513        4.535      858.857
04/04/2014  23:31:00     -134.529       30.251      -20.322       21.812       22.429       16.464      475.782      503.078      271.051        1.034        0.062      137.888        8.467        0.004      334.402        4.351      858.867
04/04/2014  23:32:00      -81.707       45.652      -15.043       26.520       25.615       18.126      703.295      656.128      328.570        0.534        0.084       93.596       11.305        0.015      334.628        4.727      858.879
04/04/2014  23:33:00      -84.966       67.233      -19.863       27.995       28.897       18.965      783.710      835.042      359.662        0.706        0.099      108.349       15.975        0.022      334.646        4.755      858.892
04/04/2014  23:34:00     -118.071       11.141      -17.650       32.967       21.250       16.209     1086.806      451.561      262.736        0.809        0.090      118.595       13.451        0.013      334.532        4.566      858.904
04/04/2014  23:35:00      -87.428       35.067      -15.347       33.874       26.801       17.759     1147.448      718.301      315.377        0.564        0.109       94.198       18.963        0.041      334.537        4.575      858.911
04/04/2014  23:36:00      -81.244       55.006      -10.886       23.421       29.309       21.435      548.547      859.010      459.475        0.581        0.093       98.114       21.954        0.050      334.716        4.871      858.906
04/04/2014  23:37:00      -75.346        1.532      -10.222       22.204       27.292       12.687      493.022      744.858      160.949        0.359        0.070       75.362        5.378        0.005      334.641        4.748      858.913
04/04/2014  23:38:00      -71.040        2.210       -5.966       23.896       34.025       15.269      571.040     1157.698      233.131        0.352        0.098       71.074       13.745        0.037      334.519        4.545      858.917
04/04/2014  23:39:00     -103.186      -37.047      -15.660       26.848       26.956       13.721      720.803      726.636      188.258        0.695        0.082      109.635       11.401        0.011      334.491        4.499      858.926
04/04/2014  23:40:00     -119.592      -47.869      -13.192       25.328       21.982       14.930      641.510      483.193      222.909        0.906        0.067      128.816       10.757        0.007      334.454        4.437      858.928
04/04/2014  23:41:00     -163.575      -18.131      -13.578       47.096       35.813       27.880     2218.056     1282.596      777.316        1.577        0.214      164.577       21.718        0.017      334.570        4.628      858.936
04/04/2014  23:42:00     -140.334      -37.237      -24.565       28.899       32.857       19.886      835.170     1079.552      395.460        1.200        0.116      145.190       11.747        0.007      334.581        4.648      858.933
04/04/2014  23:43:00      -99.664      -40.733        0.917       40.340       41.088       24.036     1627.306     1688.207      577.745        0.774        0.195      107.666       26.631        0.061      334.618        4.709      858.934
04/04/2014  23:44:00     -116.214       -9.527       -7.251       45.806       51.142       24.921     2098.153     2615.502      621.054        0.949        0.267      116.604       21.304        0.033      334.721        4.879      858.936
04/04/2014  23:45:00     -114.191      -15.287       -2.507       45.191       38.625       25.562     2042.204     1491.924      653.408        0.873        0.209      115.209       28.117        0.060      334.615        4.703      858.943
04/04/2014  23:46:00     -150.551      -50.019       -2.754       33.849       33.671       20.334     1145.767     1133.711      413.488        1.393        0.135      158.643       17.360        0.012      334.670        4.795      858.949
04/04/2014  23:47:00     -115.979      -40.244       -1.202       46.299       36.755       26.457     2143.626     1350.906      699.998        0.963        0.210      122.762       21.737        0.031      334.609        4.695      858.948
04/04/2014  23:48:00     -143.718      -48.750       -7.644       42.856       33.459       20.403     1836.609     1119.491      416.273        1.323        0.169      151.761       20.649        0.019      334.673        4.800      858.939
04/04/2014  23:49:00      -39.212      -14.369        6.973       46.289       35.736       27.104     2142.712     1277.040      734.608        0.297        0.208       41.762       25.534        0.374      334.771        4.963      858.932
04/04/2014  23:50:00      -50.621       -5.409        0.539       38.095       24.377       19.761     1451.209      594.234      390.498        0.251        0.122       50.909       23.605        0.215      334.711        4.864      858.934
04/04/2014  23:51:00      -78.890       12.100      -10.039       40.001       24.271       15.343     1600.062      589.098      235.395        0.445        0.121       79.813       13.880        0.030      334.532        4.568      858.951
04/04/2014  23:52:00      -58.589       25.103       -9.768       26.610       16.243       16.868      708.096      263.832      284.527        0.271        0.063       63.740       12.749        0.040      334.526        4.557      858.957
04/04/2014  23:53:00      -85.702       -5.142       -7.993       17.519       24.549       16.046      306.904      602.642      257.478        0.430        0.058       85.856        9.503        0.012      334.605        4.687      858.957
04/04/2014  23:54:00      -97.670      -29.126      -11.521       20.394       17.089       12.736      415.905      292.029      162.217        0.570        0.044      101.920       10.017        0.010      334.576        4.640      858.962
04/04/2014  23:55:00     -106.575      -39.544       -0.829       18.565       24.996       16.469      344.656      624.810      271.220        0.708        0.062      113.675        6.965        0.004      334.752        4.932      858.963
04/04/2014  23:56:00      -96.731      -35.393       -8.353       18.830       21.558       12.276      354.553      464.761      150.700        0.582        0.049      103.002        6.750        0.004      334.631        4.731      858.968
04/04/2014  23:57:00      -59.794        1.929      -10.450       14.247       18.412        9.841      202.987      338.984       96.840        0.216        0.032       59.825       10.307        0.030      334.596        4.671      858.969
04/04/2014  23:58:00      -35.282       -0.076       -1.933       21.954       12.600        8.975      482.000      158.766       80.546        0.098        0.036       35.282       10.164        0.083      334.677        4.809      858.979
04/04/2014  23:59:00       23.221       26.728       10.917       10.017       21.686       20.711      100.342      470.281      428.937        0.119        0.050       35.406       12.162        0.118      334.600        4.679      858.982
